<?xml version="1.0" encoding="UTF-8" standalone="no" ?>
<gpx xmlns="http://www.topografix.com/GPX/1/1" xmlns:xsi="http://www.w3.org/2001/XMLSchema-instance" xsi:schemaLocation="http://www.topografix.com/GPX/1/1 http://www.topografix.com/GPX/1/1/gpx.xsd" version="1.1" creator="VisuGPX - https://www.visugpx.com">
  <metadata>
    <name>circuit bergonne parentignat beaulieu vichel</name>
    <desc><![CDATA[circuit roulant plus de 20km de moyenne]]></desc>
  </metadata>
  <trk>
    <name><![CDATA[2012-10-10 14:44]]></name>
    <desc><![CDATA[<h1>OruxMaps</h1><br /><hr align="center" width="480" style="height: 2px; width: 517px"/><h2>Nom: 2012-10-10 14:44</h2><br /><p>Temps de départ: 10/10/2012 14:44</p><p>Temps d'arrivée: 10/10/2012 17:00</p><p>Distance: 44,6 km (02:14)</p><p>Temps déplacement: 02:07</p><p>Vitesse moyenne: 19,9 km/h</p><p>Vitesse moyenne: 21 km/h</p><p>Vitess Max.: 65,8 km/h</p><p>Altitude minimale: 367 m</p><p>Altitude maximale: 562 m</p><p>Vitesse d'élévation: 602,4 m/h</p><p>Vitesse de descente: -934,3 m/h</p><p>Gain Altitude: 588 m</p><p>Perte Altitude: -601 m</p><p>Temps d'élévation: 00:58</p><p>Temps de descente: 00:38</p><hr align="center" width="480" style="height: 2px; width: 517px"/>]]></desc>
    <trkseg>
      <trkpt lat="45.50667" lon="3.22279">
        <ele>561.859</ele>
        <time>2012-10-10T12:46:11Z</time>
      </trkpt>
      <trkpt lat="45.50656" lon="3.22304">
        <ele>557.4123</ele>
        <time>2012-10-10T12:49:35Z</time>
      </trkpt>
      <trkpt lat="45.50647" lon="3.22329">
        <ele>557.02435</ele>
        <time>2012-10-10T12:49:40Z</time>
      </trkpt>
      <trkpt lat="45.5064" lon="3.22355">
        <ele>556.2269</ele>
        <time>2012-10-10T12:49:45Z</time>
      </trkpt>
      <trkpt lat="45.50618" lon="3.22359">
        <ele>553.2615</ele>
        <time>2012-10-10T12:49:51Z</time>
      </trkpt>
      <trkpt lat="45.50603" lon="3.22375">
        <ele>550.846</ele>
        <time>2012-10-10T12:50:03Z</time>
      </trkpt>
      <trkpt lat="45.50602" lon="3.22405">
        <ele>550.53644</ele>
        <time>2012-10-10T12:50:08Z</time>
      </trkpt>
      <trkpt lat="45.50601" lon="3.22435">
        <ele>544.5277</ele>
        <time>2012-10-10T12:50:15Z</time>
      </trkpt>
      <trkpt lat="45.50601" lon="3.22463">
        <ele>544.3459</ele>
        <time>2012-10-10T12:50:20Z</time>
      </trkpt>
      <trkpt lat="45.50604" lon="3.22492">
        <ele>543.8628</ele>
        <time>2012-10-10T12:50:25Z</time>
      </trkpt>
      <trkpt lat="45.50605" lon="3.22523">
        <ele>543.5916</ele>
        <time>2012-10-10T12:50:30Z</time>
      </trkpt>
      <trkpt lat="45.50605" lon="3.22549">
        <ele>543.9258</ele>
        <time>2012-10-10T12:50:34Z</time>
      </trkpt>
      <trkpt lat="45.50604" lon="3.22576">
        <ele>543.2479</ele>
        <time>2012-10-10T12:50:38Z</time>
      </trkpt>
      <trkpt lat="45.50603" lon="3.22605">
        <ele>543.25916</ele>
        <time>2012-10-10T12:50:43Z</time>
      </trkpt>
      <trkpt lat="45.50601" lon="3.22633">
        <ele>543.5204</ele>
        <time>2012-10-10T12:50:48Z</time>
      </trkpt>
      <trkpt lat="45.50599" lon="3.22664">
        <ele>543.7699</ele>
        <time>2012-10-10T12:50:54Z</time>
      </trkpt>
      <trkpt lat="45.50598" lon="3.2269">
        <ele>544.0535</ele>
        <time>2012-10-10T12:50:59Z</time>
      </trkpt>
      <trkpt lat="45.50595" lon="3.22719">
        <ele>543.5274</ele>
        <time>2012-10-10T12:51:05Z</time>
      </trkpt>
      <trkpt lat="45.50593" lon="3.22745">
        <ele>544.09674</ele>
        <time>2012-10-10T12:51:11Z</time>
      </trkpt>
      <trkpt lat="45.50589" lon="3.22771">
        <ele>545.26556</ele>
        <time>2012-10-10T12:51:18Z</time>
      </trkpt>
      <trkpt lat="45.50578" lon="3.22794">
        <ele>546.5651</ele>
        <time>2012-10-10T12:51:28Z</time>
      </trkpt>
      <trkpt lat="45.50569" lon="3.22818">
        <ele>549.9586</ele>
        <time>2012-10-10T12:51:38Z</time>
      </trkpt>
      <trkpt lat="45.5056" lon="3.22842">
        <ele>551.06995</ele>
        <time>2012-10-10T12:51:49Z</time>
      </trkpt>
      <trkpt lat="45.50541" lon="3.22845">
        <ele>557.88196</ele>
        <time>2012-10-10T12:52:03Z</time>
      </trkpt>
      <trkpt lat="45.50524" lon="3.22856">
        <ele>562.5984</ele>
        <time>2012-10-10T12:52:18Z</time>
      </trkpt>
      <trkpt lat="45.50529" lon="3.22881">
        <ele>559.02704</ele>
        <time>2012-10-10T12:52:34Z</time>
      </trkpt>
      <trkpt lat="45.50531" lon="3.22909">
        <ele>560.42395</ele>
        <time>2012-10-10T12:52:45Z</time>
      </trkpt>
      <trkpt lat="45.50528" lon="3.22936">
        <ele>558.39526</ele>
        <time>2012-10-10T12:52:52Z</time>
      </trkpt>
      <trkpt lat="45.5052" lon="3.22962">
        <ele>558.18884</ele>
        <time>2012-10-10T12:52:58Z</time>
      </trkpt>
      <trkpt lat="45.50514" lon="3.22986">
        <ele>557.7166</ele>
        <time>2012-10-10T12:53:04Z</time>
      </trkpt>
      <trkpt lat="45.50502" lon="3.2301">
        <ele>557.67847</ele>
        <time>2012-10-10T12:53:10Z</time>
      </trkpt>
      <trkpt lat="45.50491" lon="3.23038">
        <ele>557.44855</ele>
        <time>2012-10-10T12:53:15Z</time>
      </trkpt>
      <trkpt lat="45.50481" lon="3.23064">
        <ele>557.0543</ele>
        <time>2012-10-10T12:53:19Z</time>
      </trkpt>
      <trkpt lat="45.50471" lon="3.2309">
        <ele>556.4354</ele>
        <time>2012-10-10T12:53:23Z</time>
      </trkpt>
      <trkpt lat="45.5046" lon="3.23118">
        <ele>555.874</ele>
        <time>2012-10-10T12:53:27Z</time>
      </trkpt>
      <trkpt lat="45.5045" lon="3.23146">
        <ele>555.5046</ele>
        <time>2012-10-10T12:53:31Z</time>
      </trkpt>
      <trkpt lat="45.50439" lon="3.23175">
        <ele>555.6123</ele>
        <time>2012-10-10T12:53:35Z</time>
      </trkpt>
      <trkpt lat="45.50429" lon="3.23203">
        <ele>555.4639</ele>
        <time>2012-10-10T12:53:39Z</time>
      </trkpt>
      <trkpt lat="45.50422" lon="3.23226">
        <ele>555.35406</ele>
        <time>2012-10-10T12:53:42Z</time>
      </trkpt>
      <trkpt lat="45.50415" lon="3.23251">
        <ele>554.98425</ele>
        <time>2012-10-10T12:53:45Z</time>
      </trkpt>
      <trkpt lat="45.50408" lon="3.23276">
        <ele>554.64386</ele>
        <time>2012-10-10T12:53:48Z</time>
      </trkpt>
      <trkpt lat="45.504" lon="3.23303">
        <ele>554.25183</ele>
        <time>2012-10-10T12:53:51Z</time>
      </trkpt>
      <trkpt lat="45.50393" lon="3.2333">
        <ele>553.6958</ele>
        <time>2012-10-10T12:53:54Z</time>
      </trkpt>
      <trkpt lat="45.50384" lon="3.2336">
        <ele>553.31903</ele>
        <time>2012-10-10T12:53:57Z</time>
      </trkpt>
      <trkpt lat="45.50376" lon="3.2339">
        <ele>552.69763</ele>
        <time>2012-10-10T12:54:00Z</time>
      </trkpt>
      <trkpt lat="45.50367" lon="3.23421">
        <ele>552.13385</ele>
        <time>2012-10-10T12:54:03Z</time>
      </trkpt>
      <trkpt lat="45.50358" lon="3.2345">
        <ele>551.70074</ele>
        <time>2012-10-10T12:54:06Z</time>
      </trkpt>
      <trkpt lat="45.50349" lon="3.23482">
        <ele>551.41486</ele>
        <time>2012-10-10T12:54:09Z</time>
      </trkpt>
      <trkpt lat="45.5034" lon="3.23515">
        <ele>550.9271</ele>
        <time>2012-10-10T12:54:12Z</time>
      </trkpt>
      <trkpt lat="45.50331" lon="3.23546">
        <ele>550.326</ele>
        <time>2012-10-10T12:54:15Z</time>
      </trkpt>
      <trkpt lat="45.50319" lon="3.23577">
        <ele>549.7974</ele>
        <time>2012-10-10T12:54:18Z</time>
      </trkpt>
      <trkpt lat="45.50305" lon="3.23606">
        <ele>549.3447</ele>
        <time>2012-10-10T12:54:21Z</time>
      </trkpt>
      <trkpt lat="45.5029" lon="3.23633">
        <ele>549.2538</ele>
        <time>2012-10-10T12:54:24Z</time>
      </trkpt>
      <trkpt lat="45.50276" lon="3.23662">
        <ele>548.99506</ele>
        <time>2012-10-10T12:54:27Z</time>
      </trkpt>
      <trkpt lat="45.50267" lon="3.23693">
        <ele>548.5672</ele>
        <time>2012-10-10T12:54:30Z</time>
      </trkpt>
      <trkpt lat="45.50257" lon="3.23725">
        <ele>548.14294</ele>
        <time>2012-10-10T12:54:33Z</time>
      </trkpt>
      <trkpt lat="45.50247" lon="3.23757">
        <ele>547.6999</ele>
        <time>2012-10-10T12:54:36Z</time>
      </trkpt>
      <trkpt lat="45.50237" lon="3.2379">
        <ele>546.83954</ele>
        <time>2012-10-10T12:54:39Z</time>
      </trkpt>
      <trkpt lat="45.50235" lon="3.23816">
        <ele>545.75745</ele>
        <time>2012-10-10T12:54:41Z</time>
      </trkpt>
      <trkpt lat="45.50246" lon="3.23849">
        <ele>545.3888</ele>
        <time>2012-10-10T12:54:44Z</time>
      </trkpt>
      <trkpt lat="45.50252" lon="3.23875">
        <ele>546.0817</ele>
        <time>2012-10-10T12:54:47Z</time>
      </trkpt>
      <trkpt lat="45.50254" lon="3.23907">
        <ele>546.939</ele>
        <time>2012-10-10T12:54:51Z</time>
      </trkpt>
      <trkpt lat="45.50261" lon="3.23937">
        <ele>547.22864</ele>
        <time>2012-10-10T12:54:55Z</time>
      </trkpt>
      <trkpt lat="45.50281" lon="3.23944">
        <ele>548.23553</ele>
        <time>2012-10-10T12:54:59Z</time>
      </trkpt>
      <trkpt lat="45.50303" lon="3.23946">
        <ele>548.99396</ele>
        <time>2012-10-10T12:55:03Z</time>
      </trkpt>
      <trkpt lat="45.50324" lon="3.23953">
        <ele>550.1941</ele>
        <time>2012-10-10T12:55:07Z</time>
      </trkpt>
      <trkpt lat="45.50346" lon="3.23964">
        <ele>550.9937</ele>
        <time>2012-10-10T12:55:11Z</time>
      </trkpt>
      <trkpt lat="45.50365" lon="3.23981">
        <ele>551.1436</ele>
        <time>2012-10-10T12:55:15Z</time>
      </trkpt>
      <trkpt lat="45.50386" lon="3.23996">
        <ele>551.11993</ele>
        <time>2012-10-10T12:55:19Z</time>
      </trkpt>
      <trkpt lat="45.50404" lon="3.24012">
        <ele>551.1691</ele>
        <time>2012-10-10T12:55:23Z</time>
      </trkpt>
      <trkpt lat="45.50424" lon="3.24019">
        <ele>551.4948</ele>
        <time>2012-10-10T12:55:27Z</time>
      </trkpt>
      <trkpt lat="45.50444" lon="3.24021">
        <ele>551.8815</ele>
        <time>2012-10-10T12:55:31Z</time>
      </trkpt>
      <trkpt lat="45.50466" lon="3.24023">
        <ele>552.08777</ele>
        <time>2012-10-10T12:55:35Z</time>
      </trkpt>
      <trkpt lat="45.50485" lon="3.2402">
        <ele>552.6016</ele>
        <time>2012-10-10T12:55:37Z</time>
      </trkpt>
      <trkpt lat="45.50505" lon="3.24022">
        <ele>553.1645</ele>
        <time>2012-10-10T12:55:42Z</time>
      </trkpt>
      <trkpt lat="45.50526" lon="3.2402">
        <ele>555.0516</ele>
        <time>2012-10-10T12:55:46Z</time>
      </trkpt>
      <trkpt lat="45.50548" lon="3.24019">
        <ele>556.2217</ele>
        <time>2012-10-10T12:55:50Z</time>
      </trkpt>
      <trkpt lat="45.50571" lon="3.24017">
        <ele>557.65295</ele>
        <time>2012-10-10T12:55:55Z</time>
      </trkpt>
      <trkpt lat="45.50591" lon="3.24026">
        <ele>558.9491</ele>
        <time>2012-10-10T12:55:59Z</time>
      </trkpt>
      <trkpt lat="45.50611" lon="3.24033">
        <ele>559.8229</ele>
        <time>2012-10-10T12:56:03Z</time>
      </trkpt>
      <trkpt lat="45.50632" lon="3.24035">
        <ele>559.8247</ele>
        <time>2012-10-10T12:56:07Z</time>
      </trkpt>
      <trkpt lat="45.50653" lon="3.24035">
        <ele>559.2374</ele>
        <time>2012-10-10T12:56:11Z</time>
      </trkpt>
      <trkpt lat="45.50676" lon="3.24027">
        <ele>559.3887</ele>
        <time>2012-10-10T12:56:15Z</time>
      </trkpt>
      <trkpt lat="45.50697" lon="3.24017">
        <ele>559.49475</ele>
        <time>2012-10-10T12:56:19Z</time>
      </trkpt>
      <trkpt lat="45.50719" lon="3.24007">
        <ele>559.8229</ele>
        <time>2012-10-10T12:56:23Z</time>
      </trkpt>
      <trkpt lat="45.50743" lon="3.24005">
        <ele>559.94543</ele>
        <time>2012-10-10T12:56:27Z</time>
      </trkpt>
      <trkpt lat="45.50761" lon="3.24006">
        <ele>559.89154</ele>
        <time>2012-10-10T12:56:30Z</time>
      </trkpt>
      <trkpt lat="45.50782" lon="3.24003">
        <ele>559.9156</ele>
        <time>2012-10-10T12:56:34Z</time>
      </trkpt>
      <trkpt lat="45.508" lon="3.23997">
        <ele>560.2243</ele>
        <time>2012-10-10T12:56:37Z</time>
      </trkpt>
      <trkpt lat="45.50821" lon="3.23989">
        <ele>560.8049</ele>
        <time>2012-10-10T12:56:41Z</time>
      </trkpt>
      <trkpt lat="45.50842" lon="3.23986">
        <ele>560.1979</ele>
        <time>2012-10-10T12:56:44Z</time>
      </trkpt>
      <trkpt lat="45.50865" lon="3.23993">
        <ele>560.1785</ele>
        <time>2012-10-10T12:56:48Z</time>
      </trkpt>
      <trkpt lat="45.50884" lon="3.23998">
        <ele>559.0821</ele>
        <time>2012-10-10T12:56:51Z</time>
      </trkpt>
      <trkpt lat="45.50902" lon="3.23999">
        <ele>558.5445</ele>
        <time>2012-10-10T12:56:53Z</time>
      </trkpt>
      <trkpt lat="45.50922" lon="3.24001">
        <ele>558.599</ele>
        <time>2012-10-10T12:56:57Z</time>
      </trkpt>
      <trkpt lat="45.50941" lon="3.24006">
        <ele>557.8251</ele>
        <time>2012-10-10T12:57:00Z</time>
      </trkpt>
      <trkpt lat="45.50959" lon="3.24013">
        <ele>557.78613</ele>
        <time>2012-10-10T12:57:03Z</time>
      </trkpt>
      <trkpt lat="45.50978" lon="3.24018">
        <ele>558.1243</ele>
        <time>2012-10-10T12:57:06Z</time>
      </trkpt>
      <trkpt lat="45.50996" lon="3.24024">
        <ele>558.59204</ele>
        <time>2012-10-10T12:57:08Z</time>
      </trkpt>
      <trkpt lat="45.51017" lon="3.24035">
        <ele>559.27057</ele>
        <time>2012-10-10T12:57:12Z</time>
      </trkpt>
      <trkpt lat="45.51036" lon="3.24044">
        <ele>559.6912</ele>
        <time>2012-10-10T12:57:15Z</time>
      </trkpt>
      <trkpt lat="45.51055" lon="3.24052">
        <ele>560.1171</ele>
        <time>2012-10-10T12:57:18Z</time>
      </trkpt>
      <trkpt lat="45.51074" lon="3.24061">
        <ele>560.31866</ele>
        <time>2012-10-10T12:57:21Z</time>
      </trkpt>
      <trkpt lat="45.51091" lon="3.24073">
        <ele>559.6678</ele>
        <time>2012-10-10T12:57:24Z</time>
      </trkpt>
      <trkpt lat="45.51111" lon="3.24077">
        <ele>559.0827</ele>
        <time>2012-10-10T12:57:28Z</time>
      </trkpt>
      <trkpt lat="45.51125" lon="3.24054">
        <ele>556.98975</ele>
        <time>2012-10-10T12:57:32Z</time>
      </trkpt>
      <trkpt lat="45.51136" lon="3.24034">
        <ele>556.91656</ele>
        <time>2012-10-10T12:57:36Z</time>
      </trkpt>
      <trkpt lat="45.51147" lon="3.24011">
        <ele>557.3376</ele>
        <time>2012-10-10T12:57:40Z</time>
      </trkpt>
      <trkpt lat="45.5116" lon="3.23987">
        <ele>556.3575</ele>
        <time>2012-10-10T12:57:44Z</time>
      </trkpt>
      <trkpt lat="45.51171" lon="3.23966">
        <ele>555.25757</ele>
        <time>2012-10-10T12:57:47Z</time>
      </trkpt>
      <trkpt lat="45.51185" lon="3.23938">
        <ele>554.01184</ele>
        <time>2012-10-10T12:57:51Z</time>
      </trkpt>
      <trkpt lat="45.51197" lon="3.23917">
        <ele>553.54144</ele>
        <time>2012-10-10T12:57:54Z</time>
      </trkpt>
      <trkpt lat="45.51209" lon="3.2389">
        <ele>553.28296</ele>
        <time>2012-10-10T12:57:58Z</time>
      </trkpt>
      <trkpt lat="45.5123" lon="3.23876">
        <ele>552.58044</ele>
        <time>2012-10-10T12:58:02Z</time>
      </trkpt>
      <trkpt lat="45.51251" lon="3.23865">
        <ele>551.6855</ele>
        <time>2012-10-10T12:58:06Z</time>
      </trkpt>
      <trkpt lat="45.51271" lon="3.23858">
        <ele>551.7629</ele>
        <time>2012-10-10T12:58:10Z</time>
      </trkpt>
      <trkpt lat="45.51289" lon="3.23849">
        <ele>551.1729</ele>
        <time>2012-10-10T12:58:14Z</time>
      </trkpt>
      <trkpt lat="45.51312" lon="3.23844">
        <ele>551.07416</ele>
        <time>2012-10-10T12:58:18Z</time>
      </trkpt>
      <trkpt lat="45.51331" lon="3.23844">
        <ele>550.4771</ele>
        <time>2012-10-10T12:58:21Z</time>
      </trkpt>
      <trkpt lat="45.51354" lon="3.23847">
        <ele>549.9813</ele>
        <time>2012-10-10T12:58:25Z</time>
      </trkpt>
      <trkpt lat="45.51378" lon="3.23859">
        <ele>550.4061</ele>
        <time>2012-10-10T12:58:29Z</time>
      </trkpt>
      <trkpt lat="45.51398" lon="3.23864">
        <ele>549.07654</ele>
        <time>2012-10-10T12:58:32Z</time>
      </trkpt>
      <trkpt lat="45.51422" lon="3.23862">
        <ele>547.4859</ele>
        <time>2012-10-10T12:58:34Z</time>
      </trkpt>
      <trkpt lat="45.51447" lon="3.2385">
        <ele>546.37427</ele>
        <time>2012-10-10T12:58:38Z</time>
      </trkpt>
      <trkpt lat="45.51466" lon="3.23839">
        <ele>544.8395</ele>
        <time>2012-10-10T12:58:39Z</time>
      </trkpt>
      <trkpt lat="45.51491" lon="3.23826">
        <ele>543.76245</ele>
        <time>2012-10-10T12:58:43Z</time>
      </trkpt>
      <trkpt lat="45.51508" lon="3.23818">
        <ele>542.5641</ele>
        <time>2012-10-10T12:58:45Z</time>
      </trkpt>
      <trkpt lat="45.51529" lon="3.23802">
        <ele>539.1087</ele>
        <time>2012-10-10T12:58:46Z</time>
      </trkpt>
      <trkpt lat="45.51543" lon="3.23785">
        <ele>536.8151</ele>
        <time>2012-10-10T12:58:49Z</time>
      </trkpt>
      <trkpt lat="45.51557" lon="3.23754">
        <ele>534.8069</ele>
        <time>2012-10-10T12:58:52Z</time>
      </trkpt>
      <trkpt lat="45.51567" lon="3.23723">
        <ele>533.75964</ele>
        <time>2012-10-10T12:58:55Z</time>
      </trkpt>
      <trkpt lat="45.51572" lon="3.23693">
        <ele>532.1538</ele>
        <time>2012-10-10T12:58:57Z</time>
      </trkpt>
      <trkpt lat="45.51579" lon="3.23659">
        <ele>530.69196</ele>
        <time>2012-10-10T12:59:01Z</time>
      </trkpt>
      <trkpt lat="45.51587" lon="3.23624">
        <ele>528.11273</ele>
        <time>2012-10-10T12:59:04Z</time>
      </trkpt>
      <trkpt lat="45.51595" lon="3.23591">
        <ele>525.2387</ele>
        <time>2012-10-10T12:59:07Z</time>
      </trkpt>
      <trkpt lat="45.51603" lon="3.23558">
        <ele>522.595</ele>
        <time>2012-10-10T12:59:10Z</time>
      </trkpt>
      <trkpt lat="45.51611" lon="3.23524">
        <ele>521.3</ele>
        <time>2012-10-10T12:59:13Z</time>
      </trkpt>
      <trkpt lat="45.51619" lon="3.23492">
        <ele>521.1489</ele>
        <time>2012-10-10T12:59:16Z</time>
      </trkpt>
      <trkpt lat="45.51626" lon="3.23461">
        <ele>521.0415</ele>
        <time>2012-10-10T12:59:19Z</time>
      </trkpt>
      <trkpt lat="45.51636" lon="3.23436">
        <ele>520.48834</ele>
        <time>2012-10-10T12:59:22Z</time>
      </trkpt>
      <trkpt lat="45.51656" lon="3.2343">
        <ele>519.6565</ele>
        <time>2012-10-10T12:59:25Z</time>
      </trkpt>
      <trkpt lat="45.51681" lon="3.23437">
        <ele>518.13684</ele>
        <time>2012-10-10T12:59:28Z</time>
      </trkpt>
      <trkpt lat="45.51701" lon="3.23443">
        <ele>517.08716</ele>
        <time>2012-10-10T12:59:30Z</time>
      </trkpt>
      <trkpt lat="45.51722" lon="3.23449">
        <ele>516.29047</ele>
        <time>2012-10-10T12:59:32Z</time>
      </trkpt>
      <trkpt lat="45.51743" lon="3.23468">
        <ele>515.02985</ele>
        <time>2012-10-10T12:59:34Z</time>
      </trkpt>
      <trkpt lat="45.51763" lon="3.2349">
        <ele>512.4707</ele>
        <time>2012-10-10T12:59:35Z</time>
      </trkpt>
      <trkpt lat="45.51784" lon="3.23515">
        <ele>510.22498</ele>
        <time>2012-10-10T12:59:38Z</time>
      </trkpt>
      <trkpt lat="45.51809" lon="3.23538">
        <ele>508.02423</ele>
        <time>2012-10-10T12:59:40Z</time>
      </trkpt>
      <trkpt lat="45.51835" lon="3.23556">
        <ele>505.2488</ele>
        <time>2012-10-10T12:59:42Z</time>
      </trkpt>
      <trkpt lat="45.51863" lon="3.2357">
        <ele>502.17514</ele>
        <time>2012-10-10T12:59:43Z</time>
      </trkpt>
      <trkpt lat="45.51891" lon="3.23583">
        <ele>499.07745</ele>
        <time>2012-10-10T12:59:46Z</time>
      </trkpt>
      <trkpt lat="45.5192" lon="3.23597">
        <ele>496.37875</ele>
        <time>2012-10-10T12:59:48Z</time>
      </trkpt>
      <trkpt lat="45.51948" lon="3.23612">
        <ele>494.7545</ele>
        <time>2012-10-10T12:59:50Z</time>
      </trkpt>
      <trkpt lat="45.51978" lon="3.23628">
        <ele>493.44083</ele>
        <time>2012-10-10T12:59:52Z</time>
      </trkpt>
      <trkpt lat="45.52011" lon="3.23642">
        <ele>492.02066</ele>
        <time>2012-10-10T12:59:54Z</time>
      </trkpt>
      <trkpt lat="45.52039" lon="3.23658">
        <ele>490.7843</ele>
        <time>2012-10-10T12:59:56Z</time>
      </trkpt>
      <trkpt lat="45.52069" lon="3.23668">
        <ele>488.52637</ele>
        <time>2012-10-10T12:59:58Z</time>
      </trkpt>
      <trkpt lat="45.52096" lon="3.23675">
        <ele>486.54376</ele>
        <time>2012-10-10T12:59:59Z</time>
      </trkpt>
      <trkpt lat="45.52125" lon="3.23678">
        <ele>484.51605</ele>
        <time>2012-10-10T13:00:02Z</time>
      </trkpt>
      <trkpt lat="45.52155" lon="3.23684">
        <ele>482.28174</ele>
        <time>2012-10-10T13:00:04Z</time>
      </trkpt>
      <trkpt lat="45.52179" lon="3.23699">
        <ele>480.24368</ele>
        <time>2012-10-10T13:00:06Z</time>
      </trkpt>
      <trkpt lat="45.52199" lon="3.23717">
        <ele>478.39725</ele>
        <time>2012-10-10T13:00:08Z</time>
      </trkpt>
      <trkpt lat="45.52212" lon="3.23746">
        <ele>476.73364</ele>
        <time>2012-10-10T13:00:10Z</time>
      </trkpt>
      <trkpt lat="45.52221" lon="3.23781">
        <ele>474.63538</ele>
        <time>2012-10-10T13:00:12Z</time>
      </trkpt>
      <trkpt lat="45.52229" lon="3.23818">
        <ele>471.69882</ele>
        <time>2012-10-10T13:00:13Z</time>
      </trkpt>
      <trkpt lat="45.5224" lon="3.23853">
        <ele>468.88452</ele>
        <time>2012-10-10T13:00:16Z</time>
      </trkpt>
      <trkpt lat="45.52251" lon="3.23888">
        <ele>466.41397</ele>
        <time>2012-10-10T13:00:18Z</time>
      </trkpt>
      <trkpt lat="45.52263" lon="3.23921">
        <ele>463.9868</ele>
        <time>2012-10-10T13:00:20Z</time>
      </trkpt>
      <trkpt lat="45.52274" lon="3.23953">
        <ele>461.8965</ele>
        <time>2012-10-10T13:00:22Z</time>
      </trkpt>
      <trkpt lat="45.52288" lon="3.23981">
        <ele>460.4145</ele>
        <time>2012-10-10T13:00:24Z</time>
      </trkpt>
      <trkpt lat="45.52304" lon="3.24003">
        <ele>459.38083</ele>
        <time>2012-10-10T13:00:26Z</time>
      </trkpt>
      <trkpt lat="45.52321" lon="3.24017">
        <ele>458.1619</ele>
        <time>2012-10-10T13:00:27Z</time>
      </trkpt>
      <trkpt lat="45.52339" lon="3.24032">
        <ele>457.28876</ele>
        <time>2012-10-10T13:00:30Z</time>
      </trkpt>
      <trkpt lat="45.52355" lon="3.24048">
        <ele>456.86636</ele>
        <time>2012-10-10T13:00:32Z</time>
      </trkpt>
      <trkpt lat="45.52368" lon="3.24066">
        <ele>455.54572</ele>
        <time>2012-10-10T13:00:35Z</time>
      </trkpt>
      <trkpt lat="45.52367" lon="3.24099">
        <ele>450.73685</ele>
        <time>2012-10-10T13:00:40Z</time>
      </trkpt>
      <trkpt lat="45.52361" lon="3.24129">
        <ele>447.59888</ele>
        <time>2012-10-10T13:00:43Z</time>
      </trkpt>
      <trkpt lat="45.52353" lon="3.24163">
        <ele>444.72034</ele>
        <time>2012-10-10T13:00:46Z</time>
      </trkpt>
      <trkpt lat="45.52348" lon="3.24189">
        <ele>442.5279</ele>
        <time>2012-10-10T13:00:48Z</time>
      </trkpt>
      <trkpt lat="45.52343" lon="3.24216">
        <ele>440.1321</ele>
        <time>2012-10-10T13:00:50Z</time>
      </trkpt>
      <trkpt lat="45.52337" lon="3.24246">
        <ele>437.547</ele>
        <time>2012-10-10T13:00:52Z</time>
      </trkpt>
      <trkpt lat="45.52331" lon="3.24278">
        <ele>434.76788</ele>
        <time>2012-10-10T13:00:54Z</time>
      </trkpt>
      <trkpt lat="45.52328" lon="3.2431">
        <ele>431.91086</ele>
        <time>2012-10-10T13:00:56Z</time>
      </trkpt>
      <trkpt lat="45.52326" lon="3.24339">
        <ele>430.5413</ele>
        <time>2012-10-10T13:00:58Z</time>
      </trkpt>
      <trkpt lat="45.52329" lon="3.24373">
        <ele>430.59293</ele>
        <time>2012-10-10T13:01:01Z</time>
      </trkpt>
      <trkpt lat="45.52333" lon="3.24405">
        <ele>429.92877</ele>
        <time>2012-10-10T13:01:04Z</time>
      </trkpt>
      <trkpt lat="45.52337" lon="3.24438">
        <ele>428.7486</ele>
        <time>2012-10-10T13:01:07Z</time>
      </trkpt>
      <trkpt lat="45.5234" lon="3.24476">
        <ele>427.0054</ele>
        <time>2012-10-10T13:01:10Z</time>
      </trkpt>
      <trkpt lat="45.52343" lon="3.24502">
        <ele>425.20697</ele>
        <time>2012-10-10T13:01:12Z</time>
      </trkpt>
      <trkpt lat="45.52346" lon="3.24531">
        <ele>423.0766</ele>
        <time>2012-10-10T13:01:14Z</time>
      </trkpt>
      <trkpt lat="45.52349" lon="3.24559">
        <ele>421.13452</ele>
        <time>2012-10-10T13:01:16Z</time>
      </trkpt>
      <trkpt lat="45.52352" lon="3.24588">
        <ele>419.4671</ele>
        <time>2012-10-10T13:01:18Z</time>
      </trkpt>
      <trkpt lat="45.52355" lon="3.24616">
        <ele>417.96045</ele>
        <time>2012-10-10T13:01:20Z</time>
      </trkpt>
      <trkpt lat="45.52356" lon="3.24646">
        <ele>416.89417</ele>
        <time>2012-10-10T13:01:22Z</time>
      </trkpt>
      <trkpt lat="45.52359" lon="3.24674">
        <ele>415.5444</ele>
        <time>2012-10-10T13:01:24Z</time>
      </trkpt>
      <trkpt lat="45.5236" lon="3.247">
        <ele>414.25394</ele>
        <time>2012-10-10T13:01:26Z</time>
      </trkpt>
      <trkpt lat="45.52362" lon="3.24726">
        <ele>412.97803</ele>
        <time>2012-10-10T13:01:28Z</time>
      </trkpt>
      <trkpt lat="45.52363" lon="3.24752">
        <ele>412.1353</ele>
        <time>2012-10-10T13:01:30Z</time>
      </trkpt>
      <trkpt lat="45.52367" lon="3.24787">
        <ele>410.34668</ele>
        <time>2012-10-10T13:01:33Z</time>
      </trkpt>
      <trkpt lat="45.52368" lon="3.24819">
        <ele>408.50146</ele>
        <time>2012-10-10T13:01:36Z</time>
      </trkpt>
      <trkpt lat="45.52368" lon="3.24856">
        <ele>407.30893</ele>
        <time>2012-10-10T13:01:39Z</time>
      </trkpt>
      <trkpt lat="45.52365" lon="3.2489">
        <ele>405.39804</ele>
        <time>2012-10-10T13:01:42Z</time>
      </trkpt>
      <trkpt lat="45.52363" lon="3.24923">
        <ele>403.58408</ele>
        <time>2012-10-10T13:01:45Z</time>
      </trkpt>
      <trkpt lat="45.52362" lon="3.24957">
        <ele>403.15317</ele>
        <time>2012-10-10T13:01:48Z</time>
      </trkpt>
      <trkpt lat="45.52359" lon="3.24984">
        <ele>403.24796</ele>
        <time>2012-10-10T13:01:51Z</time>
      </trkpt>
      <trkpt lat="45.52355" lon="3.25012">
        <ele>403.2645</ele>
        <time>2012-10-10T13:01:54Z</time>
      </trkpt>
      <trkpt lat="45.52353" lon="3.25042">
        <ele>403.18396</ele>
        <time>2012-10-10T13:01:57Z</time>
      </trkpt>
      <trkpt lat="45.52349" lon="3.25068">
        <ele>403.31094</ele>
        <time>2012-10-10T13:02:00Z</time>
      </trkpt>
      <trkpt lat="45.52341" lon="3.25093">
        <ele>402.2098</ele>
        <time>2012-10-10T13:02:03Z</time>
      </trkpt>
      <trkpt lat="45.52334" lon="3.25118">
        <ele>401.7281</ele>
        <time>2012-10-10T13:02:06Z</time>
      </trkpt>
      <trkpt lat="45.52326" lon="3.25143">
        <ele>401.84048</ele>
        <time>2012-10-10T13:02:09Z</time>
      </trkpt>
      <trkpt lat="45.52318" lon="3.25168">
        <ele>402.1973</ele>
        <time>2012-10-10T13:02:12Z</time>
      </trkpt>
      <trkpt lat="45.52309" lon="3.25191">
        <ele>402.75876</ele>
        <time>2012-10-10T13:02:15Z</time>
      </trkpt>
      <trkpt lat="45.52297" lon="3.25213">
        <ele>402.61124</ele>
        <time>2012-10-10T13:02:18Z</time>
      </trkpt>
      <trkpt lat="45.52283" lon="3.25236">
        <ele>402.4459</ele>
        <time>2012-10-10T13:02:21Z</time>
      </trkpt>
      <trkpt lat="45.52272" lon="3.25258">
        <ele>402.29175</ele>
        <time>2012-10-10T13:02:24Z</time>
      </trkpt>
      <trkpt lat="45.5226" lon="3.2528">
        <ele>402.10486</ele>
        <time>2012-10-10T13:02:27Z</time>
      </trkpt>
      <trkpt lat="45.52247" lon="3.253">
        <ele>401.74945</ele>
        <time>2012-10-10T13:02:30Z</time>
      </trkpt>
      <trkpt lat="45.52238" lon="3.25325">
        <ele>400.8843</ele>
        <time>2012-10-10T13:02:34Z</time>
      </trkpt>
      <trkpt lat="45.52247" lon="3.2535">
        <ele>399.1754</ele>
        <time>2012-10-10T13:02:37Z</time>
      </trkpt>
      <trkpt lat="45.52264" lon="3.25362">
        <ele>398.57608</ele>
        <time>2012-10-10T13:02:41Z</time>
      </trkpt>
      <trkpt lat="45.52285" lon="3.25373">
        <ele>397.97635</ele>
        <time>2012-10-10T13:02:44Z</time>
      </trkpt>
      <trkpt lat="45.52309" lon="3.25386">
        <ele>397.12335</ele>
        <time>2012-10-10T13:02:47Z</time>
      </trkpt>
      <trkpt lat="45.52332" lon="3.25399">
        <ele>396.501</ele>
        <time>2012-10-10T13:02:50Z</time>
      </trkpt>
      <trkpt lat="45.52358" lon="3.25409">
        <ele>396.14468</ele>
        <time>2012-10-10T13:02:53Z</time>
      </trkpt>
      <trkpt lat="45.52376" lon="3.25414">
        <ele>395.96033</ele>
        <time>2012-10-10T13:02:54Z</time>
      </trkpt>
      <trkpt lat="45.52394" lon="3.25418">
        <ele>395.66913</ele>
        <time>2012-10-10T13:02:57Z</time>
      </trkpt>
      <trkpt lat="45.52412" lon="3.25421">
        <ele>395.41782</ele>
        <time>2012-10-10T13:02:59Z</time>
      </trkpt>
      <trkpt lat="45.52438" lon="3.25422">
        <ele>394.8049</ele>
        <time>2012-10-10T13:03:02Z</time>
      </trkpt>
      <trkpt lat="45.52463" lon="3.25418">
        <ele>394.25415</ele>
        <time>2012-10-10T13:03:05Z</time>
      </trkpt>
      <trkpt lat="45.52489" lon="3.25413">
        <ele>394.0249</ele>
        <time>2012-10-10T13:03:08Z</time>
      </trkpt>
      <trkpt lat="45.52514" lon="3.25407">
        <ele>393.98132</ele>
        <time>2012-10-10T13:03:11Z</time>
      </trkpt>
      <trkpt lat="45.52538" lon="3.25398">
        <ele>394.84576</ele>
        <time>2012-10-10T13:03:14Z</time>
      </trkpt>
      <trkpt lat="45.52563" lon="3.2539">
        <ele>395.27295</ele>
        <time>2012-10-10T13:03:17Z</time>
      </trkpt>
      <trkpt lat="45.52581" lon="3.25386">
        <ele>394.93872</ele>
        <time>2012-10-10T13:03:19Z</time>
      </trkpt>
      <trkpt lat="45.52604" lon="3.25396">
        <ele>393.81372</ele>
        <time>2012-10-10T13:03:22Z</time>
      </trkpt>
      <trkpt lat="45.52621" lon="3.25428">
        <ele>393.44537</ele>
        <time>2012-10-10T13:03:25Z</time>
      </trkpt>
      <trkpt lat="45.5263" lon="3.2546">
        <ele>393.13217</ele>
        <time>2012-10-10T13:03:28Z</time>
      </trkpt>
      <trkpt lat="45.52641" lon="3.25492">
        <ele>392.6844</ele>
        <time>2012-10-10T13:03:31Z</time>
      </trkpt>
      <trkpt lat="45.52649" lon="3.25516">
        <ele>392.48892</ele>
        <time>2012-10-10T13:03:33Z</time>
      </trkpt>
      <trkpt lat="45.52656" lon="3.2554">
        <ele>392.24115</ele>
        <time>2012-10-10T13:03:36Z</time>
      </trkpt>
      <trkpt lat="45.52669" lon="3.25559">
        <ele>391.4818</ele>
        <time>2012-10-10T13:03:43Z</time>
      </trkpt>
      <trkpt lat="45.5269" lon="3.25551">
        <ele>391.3176</ele>
        <time>2012-10-10T13:03:49Z</time>
      </trkpt>
      <trkpt lat="45.5271" lon="3.25538">
        <ele>391.24414</ele>
        <time>2012-10-10T13:03:53Z</time>
      </trkpt>
      <trkpt lat="45.52729" lon="3.25527">
        <ele>391.42676</ele>
        <time>2012-10-10T13:03:57Z</time>
      </trkpt>
      <trkpt lat="45.52749" lon="3.25511">
        <ele>392.2943</ele>
        <time>2012-10-10T13:04:01Z</time>
      </trkpt>
      <trkpt lat="45.52766" lon="3.25503">
        <ele>392.3325</ele>
        <time>2012-10-10T13:04:04Z</time>
      </trkpt>
      <trkpt lat="45.52788" lon="3.25493">
        <ele>392.2313</ele>
        <time>2012-10-10T13:04:08Z</time>
      </trkpt>
      <trkpt lat="45.52809" lon="3.25484">
        <ele>393.2321</ele>
        <time>2012-10-10T13:04:12Z</time>
      </trkpt>
      <trkpt lat="45.52827" lon="3.25476">
        <ele>394.00623</ele>
        <time>2012-10-10T13:04:15Z</time>
      </trkpt>
      <trkpt lat="45.52847" lon="3.25463">
        <ele>395.5874</ele>
        <time>2012-10-10T13:04:19Z</time>
      </trkpt>
      <trkpt lat="45.52864" lon="3.25455">
        <ele>396.9905</ele>
        <time>2012-10-10T13:04:21Z</time>
      </trkpt>
      <trkpt lat="45.52886" lon="3.25444">
        <ele>396.577</ele>
        <time>2012-10-10T13:04:26Z</time>
      </trkpt>
      <trkpt lat="45.52906" lon="3.25434">
        <ele>396.5684</ele>
        <time>2012-10-10T13:04:30Z</time>
      </trkpt>
      <trkpt lat="45.52929" lon="3.25428">
        <ele>397.27274</ele>
        <time>2012-10-10T13:04:34Z</time>
      </trkpt>
      <trkpt lat="45.52952" lon="3.25422">
        <ele>398.93542</ele>
        <time>2012-10-10T13:04:38Z</time>
      </trkpt>
      <trkpt lat="45.52972" lon="3.25417">
        <ele>401.4533</ele>
        <time>2012-10-10T13:04:42Z</time>
      </trkpt>
      <trkpt lat="45.52994" lon="3.25407">
        <ele>405.27615</ele>
        <time>2012-10-10T13:04:46Z</time>
      </trkpt>
      <trkpt lat="45.53012" lon="3.25399">
        <ele>406.89514</ele>
        <time>2012-10-10T13:04:49Z</time>
      </trkpt>
      <trkpt lat="45.53033" lon="3.25391">
        <ele>408.39368</ele>
        <time>2012-10-10T13:04:53Z</time>
      </trkpt>
      <trkpt lat="45.5305" lon="3.25384">
        <ele>408.5869</ele>
        <time>2012-10-10T13:04:56Z</time>
      </trkpt>
      <trkpt lat="45.5307" lon="3.25377">
        <ele>407.2403</ele>
        <time>2012-10-10T13:04:59Z</time>
      </trkpt>
      <trkpt lat="45.53088" lon="3.25371">
        <ele>406.2191</ele>
        <time>2012-10-10T13:05:02Z</time>
      </trkpt>
      <trkpt lat="45.53107" lon="3.25366">
        <ele>405.957</ele>
        <time>2012-10-10T13:05:05Z</time>
      </trkpt>
      <trkpt lat="45.53126" lon="3.25359">
        <ele>406.37302</ele>
        <time>2012-10-10T13:05:08Z</time>
      </trkpt>
      <trkpt lat="45.53147" lon="3.25351">
        <ele>405.97977</ele>
        <time>2012-10-10T13:05:11Z</time>
      </trkpt>
      <trkpt lat="45.53168" lon="3.25344">
        <ele>404.68884</ele>
        <time>2012-10-10T13:05:14Z</time>
      </trkpt>
      <trkpt lat="45.53189" lon="3.25336">
        <ele>403.563</ele>
        <time>2012-10-10T13:05:17Z</time>
      </trkpt>
      <trkpt lat="45.53209" lon="3.25331">
        <ele>402.55054</ele>
        <time>2012-10-10T13:05:20Z</time>
      </trkpt>
      <trkpt lat="45.53229" lon="3.25325">
        <ele>400.78433</ele>
        <time>2012-10-10T13:05:23Z</time>
      </trkpt>
      <trkpt lat="45.5325" lon="3.25316">
        <ele>399.48297</ele>
        <time>2012-10-10T13:05:26Z</time>
      </trkpt>
      <trkpt lat="45.5327" lon="3.25306">
        <ele>398.16833</ele>
        <time>2012-10-10T13:05:29Z</time>
      </trkpt>
      <trkpt lat="45.53292" lon="3.253">
        <ele>397.0809</ele>
        <time>2012-10-10T13:05:32Z</time>
      </trkpt>
      <trkpt lat="45.53313" lon="3.25293">
        <ele>397.3409</ele>
        <time>2012-10-10T13:05:35Z</time>
      </trkpt>
      <trkpt lat="45.53331" lon="3.25287">
        <ele>397.99747</ele>
        <time>2012-10-10T13:05:38Z</time>
      </trkpt>
      <trkpt lat="45.5335" lon="3.2528">
        <ele>397.94476</ele>
        <time>2012-10-10T13:05:41Z</time>
      </trkpt>
      <trkpt lat="45.5337" lon="3.25275">
        <ele>397.6022</ele>
        <time>2012-10-10T13:05:43Z</time>
      </trkpt>
      <trkpt lat="45.5339" lon="3.25267">
        <ele>396.91394</ele>
        <time>2012-10-10T13:05:47Z</time>
      </trkpt>
      <trkpt lat="45.5341" lon="3.25259">
        <ele>396.09235</ele>
        <time>2012-10-10T13:05:50Z</time>
      </trkpt>
      <trkpt lat="45.53429" lon="3.25253">
        <ele>395.73166</ele>
        <time>2012-10-10T13:05:53Z</time>
      </trkpt>
      <trkpt lat="45.53447" lon="3.25262">
        <ele>395.57593</ele>
        <time>2012-10-10T13:05:57Z</time>
      </trkpt>
      <trkpt lat="45.53457" lon="3.25289">
        <ele>395.0876</ele>
        <time>2012-10-10T13:06:01Z</time>
      </trkpt>
      <trkpt lat="45.53467" lon="3.25318">
        <ele>394.65808</ele>
        <time>2012-10-10T13:06:05Z</time>
      </trkpt>
      <trkpt lat="45.53473" lon="3.25344">
        <ele>395.27032</ele>
        <time>2012-10-10T13:06:08Z</time>
      </trkpt>
      <trkpt lat="45.53479" lon="3.25372">
        <ele>395.89426</ele>
        <time>2012-10-10T13:06:11Z</time>
      </trkpt>
      <trkpt lat="45.53483" lon="3.25406">
        <ele>396.34732</ele>
        <time>2012-10-10T13:06:15Z</time>
      </trkpt>
      <trkpt lat="45.53485" lon="3.25435">
        <ele>395.23453</ele>
        <time>2012-10-10T13:06:18Z</time>
      </trkpt>
      <trkpt lat="45.53485" lon="3.25462">
        <ele>394.56976</ele>
        <time>2012-10-10T13:06:21Z</time>
      </trkpt>
      <trkpt lat="45.53487" lon="3.25492">
        <ele>394.05182</ele>
        <time>2012-10-10T13:06:24Z</time>
      </trkpt>
      <trkpt lat="45.53492" lon="3.2552">
        <ele>393.40363</ele>
        <time>2012-10-10T13:06:27Z</time>
      </trkpt>
      <trkpt lat="45.53502" lon="3.25548">
        <ele>392.57706</ele>
        <time>2012-10-10T13:06:30Z</time>
      </trkpt>
      <trkpt lat="45.53503" lon="3.25574">
        <ele>391.81583</ele>
        <time>2012-10-10T13:06:33Z</time>
      </trkpt>
      <trkpt lat="45.53487" lon="3.25594">
        <ele>390.95407</ele>
        <time>2012-10-10T13:06:36Z</time>
      </trkpt>
      <trkpt lat="45.53472" lon="3.25612">
        <ele>388.61862</ele>
        <time>2012-10-10T13:06:39Z</time>
      </trkpt>
      <trkpt lat="45.53456" lon="3.25638">
        <ele>386.98807</ele>
        <time>2012-10-10T13:06:42Z</time>
      </trkpt>
      <trkpt lat="45.53443" lon="3.25663">
        <ele>386.15643</ele>
        <time>2012-10-10T13:06:45Z</time>
      </trkpt>
      <trkpt lat="45.5343" lon="3.25686">
        <ele>386.12274</ele>
        <time>2012-10-10T13:06:48Z</time>
      </trkpt>
      <trkpt lat="45.5342" lon="3.25713">
        <ele>385.5976</ele>
        <time>2012-10-10T13:06:51Z</time>
      </trkpt>
      <trkpt lat="45.53406" lon="3.25743">
        <ele>383.71045</ele>
        <time>2012-10-10T13:06:54Z</time>
      </trkpt>
      <trkpt lat="45.53399" lon="3.25777">
        <ele>381.38773</ele>
        <time>2012-10-10T13:06:57Z</time>
      </trkpt>
      <trkpt lat="45.53416" lon="3.25799">
        <ele>379.0797</ele>
        <time>2012-10-10T13:07:00Z</time>
      </trkpt>
      <trkpt lat="45.53435" lon="3.25811">
        <ele>377.5404</ele>
        <time>2012-10-10T13:07:03Z</time>
      </trkpt>
      <trkpt lat="45.53454" lon="3.25823">
        <ele>376.38318</ele>
        <time>2012-10-10T13:07:06Z</time>
      </trkpt>
      <trkpt lat="45.53471" lon="3.25837">
        <ele>375.82574</ele>
        <time>2012-10-10T13:07:08Z</time>
      </trkpt>
      <trkpt lat="45.53493" lon="3.25854">
        <ele>376.04575</ele>
        <time>2012-10-10T13:07:11Z</time>
      </trkpt>
      <trkpt lat="45.53518" lon="3.25867">
        <ele>376.0792</ele>
        <time>2012-10-10T13:07:14Z</time>
      </trkpt>
      <trkpt lat="45.53538" lon="3.25882">
        <ele>376.14957</ele>
        <time>2012-10-10T13:07:17Z</time>
      </trkpt>
      <trkpt lat="45.53555" lon="3.25901">
        <ele>376.02768</ele>
        <time>2012-10-10T13:07:20Z</time>
      </trkpt>
      <trkpt lat="45.53574" lon="3.25912">
        <ele>375.76843</ele>
        <time>2012-10-10T13:07:23Z</time>
      </trkpt>
      <trkpt lat="45.53589" lon="3.25928">
        <ele>376.0997</ele>
        <time>2012-10-10T13:07:26Z</time>
      </trkpt>
      <trkpt lat="45.53605" lon="3.25944">
        <ele>376.7504</ele>
        <time>2012-10-10T13:07:29Z</time>
      </trkpt>
      <trkpt lat="45.53622" lon="3.25962">
        <ele>377.22647</ele>
        <time>2012-10-10T13:07:32Z</time>
      </trkpt>
      <trkpt lat="45.53637" lon="3.25978">
        <ele>377.38513</ele>
        <time>2012-10-10T13:07:35Z</time>
      </trkpt>
      <trkpt lat="45.53654" lon="3.25995">
        <ele>377.3786</ele>
        <time>2012-10-10T13:07:38Z</time>
      </trkpt>
      <trkpt lat="45.5367" lon="3.26017">
        <ele>377.71182</ele>
        <time>2012-10-10T13:07:41Z</time>
      </trkpt>
      <trkpt lat="45.53688" lon="3.26035">
        <ele>378.9055</ele>
        <time>2012-10-10T13:07:44Z</time>
      </trkpt>
      <trkpt lat="45.53701" lon="3.26054">
        <ele>379.43878</ele>
        <time>2012-10-10T13:07:47Z</time>
      </trkpt>
      <trkpt lat="45.53716" lon="3.26074">
        <ele>379.86688</ele>
        <time>2012-10-10T13:07:50Z</time>
      </trkpt>
      <trkpt lat="45.53731" lon="3.26093">
        <ele>380.2709</ele>
        <time>2012-10-10T13:07:53Z</time>
      </trkpt>
      <trkpt lat="45.53744" lon="3.26114">
        <ele>380.607</ele>
        <time>2012-10-10T13:07:55Z</time>
      </trkpt>
      <trkpt lat="45.53758" lon="3.26137">
        <ele>380.8232</ele>
        <time>2012-10-10T13:08:00Z</time>
      </trkpt>
      <trkpt lat="45.53772" lon="3.26154">
        <ele>381.7057</ele>
        <time>2012-10-10T13:08:04Z</time>
      </trkpt>
      <trkpt lat="45.53793" lon="3.26151">
        <ele>382.50302</ele>
        <time>2012-10-10T13:08:11Z</time>
      </trkpt>
      <trkpt lat="45.53811" lon="3.2614">
        <ele>386.35382</ele>
        <time>2012-10-10T13:08:23Z</time>
      </trkpt>
      <trkpt lat="45.53828" lon="3.26131">
        <ele>387.52426</ele>
        <time>2012-10-10T13:08:34Z</time>
      </trkpt>
      <trkpt lat="45.53843" lon="3.26113">
        <ele>389.426</ele>
        <time>2012-10-10T13:08:44Z</time>
      </trkpt>
      <trkpt lat="45.53858" lon="3.26098">
        <ele>390.50598</ele>
        <time>2012-10-10T13:08:53Z</time>
      </trkpt>
      <trkpt lat="45.53871" lon="3.26074">
        <ele>389.75168</ele>
        <time>2012-10-10T13:09:00Z</time>
      </trkpt>
      <trkpt lat="45.53884" lon="3.26052">
        <ele>390.89706</ele>
        <time>2012-10-10T13:09:07Z</time>
      </trkpt>
      <trkpt lat="45.53874" lon="3.26074">
        <ele>385.5602</ele>
        <time>2012-10-10T13:09:21Z</time>
      </trkpt>
      <trkpt lat="45.53861" lon="3.26094">
        <ele>385.6786</ele>
        <time>2012-10-10T13:09:26Z</time>
      </trkpt>
      <trkpt lat="45.53846" lon="3.26119">
        <ele>383.60837</ele>
        <time>2012-10-10T13:09:30Z</time>
      </trkpt>
      <trkpt lat="45.53832" lon="3.2614">
        <ele>381.6728</ele>
        <time>2012-10-10T13:09:33Z</time>
      </trkpt>
      <trkpt lat="45.53826" lon="3.26165">
        <ele>378.02255</ele>
        <time>2012-10-10T13:09:37Z</time>
      </trkpt>
      <trkpt lat="45.53841" lon="3.26185">
        <ele>375.78516</ele>
        <time>2012-10-10T13:09:41Z</time>
      </trkpt>
      <trkpt lat="45.53855" lon="3.26207">
        <ele>375.36786</ele>
        <time>2012-10-10T13:09:45Z</time>
      </trkpt>
      <trkpt lat="45.53869" lon="3.2623">
        <ele>376.0874</ele>
        <time>2012-10-10T13:09:49Z</time>
      </trkpt>
      <trkpt lat="45.53884" lon="3.26253">
        <ele>377.07678</ele>
        <time>2012-10-10T13:09:53Z</time>
      </trkpt>
      <trkpt lat="45.53901" lon="3.26272">
        <ele>377.70624</ele>
        <time>2012-10-10T13:09:57Z</time>
      </trkpt>
      <trkpt lat="45.53917" lon="3.26292">
        <ele>378.2921</ele>
        <time>2012-10-10T13:10:01Z</time>
      </trkpt>
      <trkpt lat="45.53932" lon="3.2631">
        <ele>377.98157</ele>
        <time>2012-10-10T13:10:04Z</time>
      </trkpt>
      <trkpt lat="45.53944" lon="3.2633">
        <ele>377.29742</ele>
        <time>2012-10-10T13:10:07Z</time>
      </trkpt>
      <trkpt lat="45.53959" lon="3.26355">
        <ele>376.55652</ele>
        <time>2012-10-10T13:10:11Z</time>
      </trkpt>
      <trkpt lat="45.53973" lon="3.26378">
        <ele>375.24155</ele>
        <time>2012-10-10T13:10:14Z</time>
      </trkpt>
      <trkpt lat="45.53987" lon="3.26402">
        <ele>374.76178</ele>
        <time>2012-10-10T13:10:17Z</time>
      </trkpt>
      <trkpt lat="45.54001" lon="3.26428">
        <ele>374.57657</ele>
        <time>2012-10-10T13:10:20Z</time>
      </trkpt>
      <trkpt lat="45.54015" lon="3.26451">
        <ele>374.39688</ele>
        <time>2012-10-10T13:10:23Z</time>
      </trkpt>
      <trkpt lat="45.5403" lon="3.26474">
        <ele>374.39294</ele>
        <time>2012-10-10T13:10:26Z</time>
      </trkpt>
      <trkpt lat="45.54047" lon="3.26495">
        <ele>374.44754</ele>
        <time>2012-10-10T13:10:29Z</time>
      </trkpt>
      <trkpt lat="45.54066" lon="3.26514">
        <ele>374.35495</ele>
        <time>2012-10-10T13:10:32Z</time>
      </trkpt>
      <trkpt lat="45.54083" lon="3.26532">
        <ele>374.2534</ele>
        <time>2012-10-10T13:10:35Z</time>
      </trkpt>
      <trkpt lat="45.54101" lon="3.26545">
        <ele>375.20898</ele>
        <time>2012-10-10T13:10:38Z</time>
      </trkpt>
      <trkpt lat="45.5412" lon="3.26552">
        <ele>376.1262</ele>
        <time>2012-10-10T13:10:40Z</time>
      </trkpt>
      <trkpt lat="45.54137" lon="3.26562">
        <ele>376.76468</ele>
        <time>2012-10-10T13:10:44Z</time>
      </trkpt>
      <trkpt lat="45.54154" lon="3.26571">
        <ele>377.51843</ele>
        <time>2012-10-10T13:10:47Z</time>
      </trkpt>
      <trkpt lat="45.54177" lon="3.26577">
        <ele>378.9905</ele>
        <time>2012-10-10T13:10:51Z</time>
      </trkpt>
      <trkpt lat="45.54195" lon="3.26586">
        <ele>380.2336</ele>
        <time>2012-10-10T13:10:55Z</time>
      </trkpt>
      <trkpt lat="45.54215" lon="3.26574">
        <ele>383.04306</ele>
        <time>2012-10-10T13:11:01Z</time>
      </trkpt>
      <trkpt lat="45.54215" lon="3.26547">
        <ele>383.71704</ele>
        <time>2012-10-10T13:11:05Z</time>
      </trkpt>
      <trkpt lat="45.54214" lon="3.26516">
        <ele>382.89236</ele>
        <time>2012-10-10T13:11:10Z</time>
      </trkpt>
      <trkpt lat="45.54212" lon="3.26487">
        <ele>382.85858</ele>
        <time>2012-10-10T13:11:15Z</time>
      </trkpt>
      <trkpt lat="45.54213" lon="3.2646">
        <ele>384.23004</ele>
        <time>2012-10-10T13:11:20Z</time>
      </trkpt>
      <trkpt lat="45.54233" lon="3.26445">
        <ele>385.47113</ele>
        <time>2012-10-10T13:11:25Z</time>
      </trkpt>
      <trkpt lat="45.54252" lon="3.26438">
        <ele>387.69232</ele>
        <time>2012-10-10T13:11:29Z</time>
      </trkpt>
      <trkpt lat="45.54273" lon="3.26442">
        <ele>391.79556</ele>
        <time>2012-10-10T13:11:35Z</time>
      </trkpt>
      <trkpt lat="45.54296" lon="3.26439">
        <ele>393.51898</ele>
        <time>2012-10-10T13:11:40Z</time>
      </trkpt>
      <trkpt lat="45.54318" lon="3.26436">
        <ele>392.1898</ele>
        <time>2012-10-10T13:11:43Z</time>
      </trkpt>
      <trkpt lat="45.5434" lon="3.26427">
        <ele>390.52432</ele>
        <time>2012-10-10T13:11:46Z</time>
      </trkpt>
      <trkpt lat="45.54363" lon="3.2642">
        <ele>388.8358</ele>
        <time>2012-10-10T13:11:49Z</time>
      </trkpt>
      <trkpt lat="45.54386" lon="3.26414">
        <ele>386.84686</ele>
        <time>2012-10-10T13:11:52Z</time>
      </trkpt>
      <trkpt lat="45.54408" lon="3.26413">
        <ele>385.39685</ele>
        <time>2012-10-10T13:11:55Z</time>
      </trkpt>
      <trkpt lat="45.54429" lon="3.26417">
        <ele>385.31168</ele>
        <time>2012-10-10T13:11:58Z</time>
      </trkpt>
      <trkpt lat="45.54438" lon="3.26445">
        <ele>385.29306</ele>
        <time>2012-10-10T13:12:02Z</time>
      </trkpt>
      <trkpt lat="45.54444" lon="3.26476">
        <ele>384.41098</ele>
        <time>2012-10-10T13:12:06Z</time>
      </trkpt>
      <trkpt lat="45.54446" lon="3.26502">
        <ele>383.44577</ele>
        <time>2012-10-10T13:12:09Z</time>
      </trkpt>
      <trkpt lat="45.54454" lon="3.26527">
        <ele>382.66513</ele>
        <time>2012-10-10T13:12:12Z</time>
      </trkpt>
      <trkpt lat="45.5446" lon="3.26555">
        <ele>382.228</ele>
        <time>2012-10-10T13:12:15Z</time>
      </trkpt>
      <trkpt lat="45.54464" lon="3.26583">
        <ele>382.09827</ele>
        <time>2012-10-10T13:12:18Z</time>
      </trkpt>
      <trkpt lat="45.54469" lon="3.2661">
        <ele>382.4998</ele>
        <time>2012-10-10T13:12:21Z</time>
      </trkpt>
      <trkpt lat="45.54475" lon="3.26637">
        <ele>382.14575</ele>
        <time>2012-10-10T13:12:24Z</time>
      </trkpt>
      <trkpt lat="45.54484" lon="3.26667">
        <ele>382.51202</ele>
        <time>2012-10-10T13:12:28Z</time>
      </trkpt>
      <trkpt lat="45.54493" lon="3.26694">
        <ele>381.74316</ele>
        <time>2012-10-10T13:12:32Z</time>
      </trkpt>
      <trkpt lat="45.54501" lon="3.26721">
        <ele>380.62027</ele>
        <time>2012-10-10T13:12:35Z</time>
      </trkpt>
      <trkpt lat="45.54508" lon="3.26749">
        <ele>379.4169</ele>
        <time>2012-10-10T13:12:38Z</time>
      </trkpt>
      <trkpt lat="45.54507" lon="3.26782">
        <ele>379.11578</ele>
        <time>2012-10-10T13:12:42Z</time>
      </trkpt>
      <trkpt lat="45.54505" lon="3.26813">
        <ele>378.40295</ele>
        <time>2012-10-10T13:12:46Z</time>
      </trkpt>
      <trkpt lat="45.54502" lon="3.26841">
        <ele>376.88092</ele>
        <time>2012-10-10T13:12:50Z</time>
      </trkpt>
      <trkpt lat="45.54496" lon="3.26868">
        <ele>376.24152</ele>
        <time>2012-10-10T13:12:54Z</time>
      </trkpt>
      <trkpt lat="45.54477" lon="3.26874">
        <ele>376.80133</ele>
        <time>2012-10-10T13:12:58Z</time>
      </trkpt>
      <trkpt lat="45.5446" lon="3.26863">
        <ele>376.9339</ele>
        <time>2012-10-10T13:13:01Z</time>
      </trkpt>
      <trkpt lat="45.54441" lon="3.26855">
        <ele>376.05984</ele>
        <time>2012-10-10T13:13:05Z</time>
      </trkpt>
      <trkpt lat="45.5442" lon="3.26848">
        <ele>375.9122</ele>
        <time>2012-10-10T13:13:09Z</time>
      </trkpt>
      <trkpt lat="45.544" lon="3.26839">
        <ele>376.03067</ele>
        <time>2012-10-10T13:13:12Z</time>
      </trkpt>
      <trkpt lat="45.54379" lon="3.26836">
        <ele>376.25085</ele>
        <time>2012-10-10T13:13:17Z</time>
      </trkpt>
      <trkpt lat="45.54357" lon="3.26842">
        <ele>375.9582</ele>
        <time>2012-10-10T13:13:22Z</time>
      </trkpt>
      <trkpt lat="45.5434" lon="3.26853">
        <ele>374.85007</ele>
        <time>2012-10-10T13:13:25Z</time>
      </trkpt>
      <trkpt lat="45.54324" lon="3.26868">
        <ele>373.5357</ele>
        <time>2012-10-10T13:13:28Z</time>
      </trkpt>
      <trkpt lat="45.54311" lon="3.26894">
        <ele>372.90533</ele>
        <time>2012-10-10T13:13:32Z</time>
      </trkpt>
      <trkpt lat="45.54306" lon="3.26927">
        <ele>372.98987</ele>
        <time>2012-10-10T13:13:36Z</time>
      </trkpt>
      <trkpt lat="45.54307" lon="3.26954">
        <ele>372.67123</ele>
        <time>2012-10-10T13:13:39Z</time>
      </trkpt>
      <trkpt lat="45.54307" lon="3.26981">
        <ele>372.35556</ele>
        <time>2012-10-10T13:13:42Z</time>
      </trkpt>
      <trkpt lat="45.5431" lon="3.27008">
        <ele>372.55835</ele>
        <time>2012-10-10T13:13:45Z</time>
      </trkpt>
      <trkpt lat="45.54311" lon="3.27035">
        <ele>372.8392</ele>
        <time>2012-10-10T13:13:48Z</time>
      </trkpt>
      <trkpt lat="45.54313" lon="3.27063">
        <ele>372.53424</ele>
        <time>2012-10-10T13:13:51Z</time>
      </trkpt>
      <trkpt lat="45.54315" lon="3.27089">
        <ele>373.49152</ele>
        <time>2012-10-10T13:13:54Z</time>
      </trkpt>
      <trkpt lat="45.54314" lon="3.27116">
        <ele>373.36258</ele>
        <time>2012-10-10T13:13:57Z</time>
      </trkpt>
      <trkpt lat="45.54315" lon="3.27146">
        <ele>372.89038</ele>
        <time>2012-10-10T13:14:01Z</time>
      </trkpt>
      <trkpt lat="45.54316" lon="3.27175">
        <ele>371.54102</ele>
        <time>2012-10-10T13:14:05Z</time>
      </trkpt>
      <trkpt lat="45.54331" lon="3.27196">
        <ele>370.90375</ele>
        <time>2012-10-10T13:14:08Z</time>
      </trkpt>
      <trkpt lat="45.54341" lon="3.27223">
        <ele>370.35992</ele>
        <time>2012-10-10T13:14:11Z</time>
      </trkpt>
      <trkpt lat="45.54349" lon="3.27255">
        <ele>369.83984</ele>
        <time>2012-10-10T13:14:14Z</time>
      </trkpt>
      <trkpt lat="45.54355" lon="3.27286">
        <ele>370.47983</ele>
        <time>2012-10-10T13:14:17Z</time>
      </trkpt>
      <trkpt lat="45.54358" lon="3.27316">
        <ele>370.4217</ele>
        <time>2012-10-10T13:14:20Z</time>
      </trkpt>
      <trkpt lat="45.54358" lon="3.27346">
        <ele>370.21436</ele>
        <time>2012-10-10T13:14:22Z</time>
      </trkpt>
      <trkpt lat="45.54353" lon="3.27374">
        <ele>370.5644</ele>
        <time>2012-10-10T13:14:25Z</time>
      </trkpt>
      <trkpt lat="45.54346" lon="3.274">
        <ele>370.63394</ele>
        <time>2012-10-10T13:14:29Z</time>
      </trkpt>
      <trkpt lat="45.5434" lon="3.2743">
        <ele>371.1028</ele>
        <time>2012-10-10T13:14:33Z</time>
      </trkpt>
      <trkpt lat="45.54332" lon="3.27462">
        <ele>371.92773</ele>
        <time>2012-10-10T13:14:37Z</time>
      </trkpt>
      <trkpt lat="45.54322" lon="3.27488">
        <ele>373.61807</ele>
        <time>2012-10-10T13:14:41Z</time>
      </trkpt>
      <trkpt lat="45.54312" lon="3.27519">
        <ele>374.78882</ele>
        <time>2012-10-10T13:14:45Z</time>
      </trkpt>
      <trkpt lat="45.54302" lon="3.27551">
        <ele>375.67682</ele>
        <time>2012-10-10T13:14:49Z</time>
      </trkpt>
      <trkpt lat="45.54296" lon="3.27575">
        <ele>375.97824</ele>
        <time>2012-10-10T13:14:52Z</time>
      </trkpt>
      <trkpt lat="45.54288" lon="3.27601">
        <ele>375.81165</ele>
        <time>2012-10-10T13:14:55Z</time>
      </trkpt>
      <trkpt lat="45.5428" lon="3.27629">
        <ele>375.2148</ele>
        <time>2012-10-10T13:14:58Z</time>
      </trkpt>
      <trkpt lat="45.54271" lon="3.2766">
        <ele>374.10834</ele>
        <time>2012-10-10T13:15:01Z</time>
      </trkpt>
      <trkpt lat="45.54261" lon="3.27691">
        <ele>373.24622</ele>
        <time>2012-10-10T13:15:04Z</time>
      </trkpt>
      <trkpt lat="45.5425" lon="3.27721">
        <ele>372.77783</ele>
        <time>2012-10-10T13:15:07Z</time>
      </trkpt>
      <trkpt lat="45.54235" lon="3.27749">
        <ele>373.33334</ele>
        <time>2012-10-10T13:15:10Z</time>
      </trkpt>
      <trkpt lat="45.54225" lon="3.2777">
        <ele>372.8227</ele>
        <time>2012-10-10T13:15:12Z</time>
      </trkpt>
      <trkpt lat="45.54209" lon="3.27801">
        <ele>371.7632</ele>
        <time>2012-10-10T13:15:15Z</time>
      </trkpt>
      <trkpt lat="45.54192" lon="3.27827">
        <ele>371.4475</ele>
        <time>2012-10-10T13:15:18Z</time>
      </trkpt>
      <trkpt lat="45.54174" lon="3.27851">
        <ele>371.65335</ele>
        <time>2012-10-10T13:15:21Z</time>
      </trkpt>
      <trkpt lat="45.54156" lon="3.27868">
        <ele>372.01523</ele>
        <time>2012-10-10T13:15:24Z</time>
      </trkpt>
      <trkpt lat="45.54139" lon="3.27886">
        <ele>372.68976</ele>
        <time>2012-10-10T13:15:27Z</time>
      </trkpt>
      <trkpt lat="45.54124" lon="3.27906">
        <ele>372.8493</ele>
        <time>2012-10-10T13:15:30Z</time>
      </trkpt>
      <trkpt lat="45.54105" lon="3.27921">
        <ele>373.20724</ele>
        <time>2012-10-10T13:15:33Z</time>
      </trkpt>
      <trkpt lat="45.54089" lon="3.27939">
        <ele>373.32077</ele>
        <time>2012-10-10T13:15:36Z</time>
      </trkpt>
      <trkpt lat="45.54068" lon="3.27956">
        <ele>372.3749</ele>
        <time>2012-10-10T13:15:39Z</time>
      </trkpt>
      <trkpt lat="45.54049" lon="3.27976">
        <ele>371.1868</ele>
        <time>2012-10-10T13:15:42Z</time>
      </trkpt>
      <trkpt lat="45.5403" lon="3.27993">
        <ele>370.49026</ele>
        <time>2012-10-10T13:15:45Z</time>
      </trkpt>
      <trkpt lat="45.54015" lon="3.28009">
        <ele>371.05472</ele>
        <time>2012-10-10T13:15:47Z</time>
      </trkpt>
      <trkpt lat="45.53997" lon="3.2803">
        <ele>371.39078</ele>
        <time>2012-10-10T13:15:49Z</time>
      </trkpt>
      <trkpt lat="45.53982" lon="3.28051">
        <ele>371.3029</ele>
        <time>2012-10-10T13:15:52Z</time>
      </trkpt>
      <trkpt lat="45.53981" lon="3.28081">
        <ele>370.93143</ele>
        <time>2012-10-10T13:15:56Z</time>
      </trkpt>
      <trkpt lat="45.53987" lon="3.28112">
        <ele>369.92783</ele>
        <time>2012-10-10T13:15:59Z</time>
      </trkpt>
      <trkpt lat="45.53988" lon="3.28141">
        <ele>369.62164</ele>
        <time>2012-10-10T13:16:02Z</time>
      </trkpt>
      <trkpt lat="45.53989" lon="3.28169">
        <ele>369.5659</ele>
        <time>2012-10-10T13:16:05Z</time>
      </trkpt>
      <trkpt lat="45.5399" lon="3.28196">
        <ele>369.73456</ele>
        <time>2012-10-10T13:16:08Z</time>
      </trkpt>
      <trkpt lat="45.53992" lon="3.28229">
        <ele>369.96045</ele>
        <time>2012-10-10T13:16:12Z</time>
      </trkpt>
      <trkpt lat="45.53988" lon="3.28254">
        <ele>369.7479</ele>
        <time>2012-10-10T13:16:15Z</time>
      </trkpt>
      <trkpt lat="45.5398" lon="3.28278">
        <ele>369.73947</ele>
        <time>2012-10-10T13:16:18Z</time>
      </trkpt>
      <trkpt lat="45.53973" lon="3.28302">
        <ele>369.93906</ele>
        <time>2012-10-10T13:16:21Z</time>
      </trkpt>
      <trkpt lat="45.53966" lon="3.28328">
        <ele>369.7998</ele>
        <time>2012-10-10T13:16:24Z</time>
      </trkpt>
      <trkpt lat="45.5396" lon="3.28355">
        <ele>369.64575</ele>
        <time>2012-10-10T13:16:27Z</time>
      </trkpt>
      <trkpt lat="45.53953" lon="3.28379">
        <ele>369.31512</ele>
        <time>2012-10-10T13:16:30Z</time>
      </trkpt>
      <trkpt lat="45.53945" lon="3.28402">
        <ele>369.48813</ele>
        <time>2012-10-10T13:16:33Z</time>
      </trkpt>
      <trkpt lat="45.53928" lon="3.28426">
        <ele>369.9313</ele>
        <time>2012-10-10T13:16:37Z</time>
      </trkpt>
      <trkpt lat="45.53909" lon="3.28445">
        <ele>369.62192</ele>
        <time>2012-10-10T13:16:41Z</time>
      </trkpt>
      <trkpt lat="45.53892" lon="3.28459">
        <ele>368.9332</ele>
        <time>2012-10-10T13:16:44Z</time>
      </trkpt>
      <trkpt lat="45.53875" lon="3.28469">
        <ele>368.48328</ele>
        <time>2012-10-10T13:16:47Z</time>
      </trkpt>
      <trkpt lat="45.53859" lon="3.28482">
        <ele>368.30753</ele>
        <time>2012-10-10T13:16:50Z</time>
      </trkpt>
      <trkpt lat="45.53844" lon="3.28498">
        <ele>368.70056</ele>
        <time>2012-10-10T13:16:53Z</time>
      </trkpt>
      <trkpt lat="45.53829" lon="3.28517">
        <ele>369.17886</ele>
        <time>2012-10-10T13:16:56Z</time>
      </trkpt>
      <trkpt lat="45.53812" lon="3.28533">
        <ele>369.28848</ele>
        <time>2012-10-10T13:16:59Z</time>
      </trkpt>
      <trkpt lat="45.53799" lon="3.28551">
        <ele>368.92065</ele>
        <time>2012-10-10T13:17:02Z</time>
      </trkpt>
      <trkpt lat="45.53789" lon="3.28573">
        <ele>368.26862</ele>
        <time>2012-10-10T13:17:05Z</time>
      </trkpt>
      <trkpt lat="45.53779" lon="3.28594">
        <ele>368.03726</ele>
        <time>2012-10-10T13:17:08Z</time>
      </trkpt>
      <trkpt lat="45.53769" lon="3.28617">
        <ele>367.9725</ele>
        <time>2012-10-10T13:17:11Z</time>
      </trkpt>
      <trkpt lat="45.53763" lon="3.28642">
        <ele>368.00455</ele>
        <time>2012-10-10T13:17:14Z</time>
      </trkpt>
      <trkpt lat="45.53756" lon="3.28668">
        <ele>368.4415</ele>
        <time>2012-10-10T13:17:17Z</time>
      </trkpt>
      <trkpt lat="45.53749" lon="3.28698">
        <ele>369.37396</ele>
        <time>2012-10-10T13:17:21Z</time>
      </trkpt>
      <trkpt lat="45.53744" lon="3.28723">
        <ele>369.68015</ele>
        <time>2012-10-10T13:17:24Z</time>
      </trkpt>
      <trkpt lat="45.53736" lon="3.28751">
        <ele>369.9359</ele>
        <time>2012-10-10T13:17:27Z</time>
      </trkpt>
      <trkpt lat="45.5373" lon="3.28776">
        <ele>369.80786</ele>
        <time>2012-10-10T13:17:29Z</time>
      </trkpt>
      <trkpt lat="45.53725" lon="3.28809">
        <ele>368.80667</ele>
        <time>2012-10-10T13:17:34Z</time>
      </trkpt>
      <trkpt lat="45.53724" lon="3.28842">
        <ele>369.7942</ele>
        <time>2012-10-10T13:17:38Z</time>
      </trkpt>
      <trkpt lat="45.53722" lon="3.28871">
        <ele>370.01016</ele>
        <time>2012-10-10T13:17:42Z</time>
      </trkpt>
      <trkpt lat="45.53722" lon="3.28905">
        <ele>368.68085</ele>
        <time>2012-10-10T13:17:46Z</time>
      </trkpt>
      <trkpt lat="45.53721" lon="3.28934">
        <ele>367.8786</ele>
        <time>2012-10-10T13:17:50Z</time>
      </trkpt>
      <trkpt lat="45.53706" lon="3.28957">
        <ele>367.5642</ele>
        <time>2012-10-10T13:17:55Z</time>
      </trkpt>
      <trkpt lat="45.53684" lon="3.28959">
        <ele>368.3964</ele>
        <time>2012-10-10T13:17:59Z</time>
      </trkpt>
      <trkpt lat="45.53661" lon="3.28956">
        <ele>369.25266</ele>
        <time>2012-10-10T13:18:03Z</time>
      </trkpt>
      <trkpt lat="45.53642" lon="3.28955">
        <ele>370.66803</ele>
        <time>2012-10-10T13:18:06Z</time>
      </trkpt>
      <trkpt lat="45.53622" lon="3.28953">
        <ele>371.93704</ele>
        <time>2012-10-10T13:18:09Z</time>
      </trkpt>
      <trkpt lat="45.53596" lon="3.28952">
        <ele>372.93506</ele>
        <time>2012-10-10T13:18:12Z</time>
      </trkpt>
      <trkpt lat="45.53574" lon="3.28954">
        <ele>372.38953</ele>
        <time>2012-10-10T13:18:17Z</time>
      </trkpt>
      <trkpt lat="45.53554" lon="3.28959">
        <ele>372.02823</ele>
        <time>2012-10-10T13:18:21Z</time>
      </trkpt>
      <trkpt lat="45.53533" lon="3.28961">
        <ele>372.64908</ele>
        <time>2012-10-10T13:18:25Z</time>
      </trkpt>
      <trkpt lat="45.53512" lon="3.28971">
        <ele>373.59122</ele>
        <time>2012-10-10T13:18:29Z</time>
      </trkpt>
      <trkpt lat="45.53494" lon="3.28993">
        <ele>373.46237</ele>
        <time>2012-10-10T13:18:33Z</time>
      </trkpt>
      <trkpt lat="45.53483" lon="3.29018">
        <ele>373.4415</ele>
        <time>2012-10-10T13:18:37Z</time>
      </trkpt>
      <trkpt lat="45.53472" lon="3.2904">
        <ele>373.1524</ele>
        <time>2012-10-10T13:18:40Z</time>
      </trkpt>
      <trkpt lat="45.5348" lon="3.29069">
        <ele>370.39423</ele>
        <time>2012-10-10T13:18:44Z</time>
      </trkpt>
      <trkpt lat="45.53492" lon="3.29093">
        <ele>369.56213</ele>
        <time>2012-10-10T13:18:47Z</time>
      </trkpt>
      <trkpt lat="45.53495" lon="3.29118">
        <ele>369.57516</ele>
        <time>2012-10-10T13:18:50Z</time>
      </trkpt>
      <trkpt lat="45.53491" lon="3.29148">
        <ele>370.17285</ele>
        <time>2012-10-10T13:18:53Z</time>
      </trkpt>
      <trkpt lat="45.53488" lon="3.29182">
        <ele>370.85107</ele>
        <time>2012-10-10T13:18:57Z</time>
      </trkpt>
      <trkpt lat="45.53485" lon="3.29208">
        <ele>371.40488</ele>
        <time>2012-10-10T13:19:00Z</time>
      </trkpt>
      <trkpt lat="45.5348" lon="3.29233">
        <ele>372.01352</ele>
        <time>2012-10-10T13:19:03Z</time>
      </trkpt>
      <trkpt lat="45.53471" lon="3.29265">
        <ele>373.81824</ele>
        <time>2012-10-10T13:19:07Z</time>
      </trkpt>
      <trkpt lat="45.53461" lon="3.29287">
        <ele>375.88965</ele>
        <time>2012-10-10T13:19:11Z</time>
      </trkpt>
      <trkpt lat="45.53463" lon="3.29316">
        <ele>378.8616</ele>
        <time>2012-10-10T13:19:19Z</time>
      </trkpt>
      <trkpt lat="45.53481" lon="3.29336">
        <ele>378.10938</ele>
        <time>2012-10-10T13:19:24Z</time>
      </trkpt>
      <trkpt lat="45.53496" lon="3.29356">
        <ele>377.14273</ele>
        <time>2012-10-10T13:19:28Z</time>
      </trkpt>
      <trkpt lat="45.53515" lon="3.29376">
        <ele>376.3224</ele>
        <time>2012-10-10T13:19:32Z</time>
      </trkpt>
      <trkpt lat="45.53525" lon="3.29399">
        <ele>376.0584</ele>
        <time>2012-10-10T13:19:35Z</time>
      </trkpt>
      <trkpt lat="45.53527" lon="3.29428">
        <ele>376.04858</ele>
        <time>2012-10-10T13:19:38Z</time>
      </trkpt>
      <trkpt lat="45.53523" lon="3.29456">
        <ele>375.0929</ele>
        <time>2012-10-10T13:19:41Z</time>
      </trkpt>
      <trkpt lat="45.53517" lon="3.29485">
        <ele>374.88657</ele>
        <time>2012-10-10T13:19:44Z</time>
      </trkpt>
      <trkpt lat="45.53512" lon="3.29516">
        <ele>373.7808</ele>
        <time>2012-10-10T13:19:47Z</time>
      </trkpt>
      <trkpt lat="45.53508" lon="3.29545">
        <ele>373.26273</ele>
        <time>2012-10-10T13:19:50Z</time>
      </trkpt>
      <trkpt lat="45.53503" lon="3.29573">
        <ele>372.98947</ele>
        <time>2012-10-10T13:19:53Z</time>
      </trkpt>
      <trkpt lat="45.53501" lon="3.29602">
        <ele>373.2367</ele>
        <time>2012-10-10T13:19:56Z</time>
      </trkpt>
      <trkpt lat="45.53497" lon="3.2963">
        <ele>373.72382</ele>
        <time>2012-10-10T13:19:59Z</time>
      </trkpt>
      <trkpt lat="45.53495" lon="3.29657">
        <ele>373.94806</ele>
        <time>2012-10-10T13:20:02Z</time>
      </trkpt>
      <trkpt lat="45.53491" lon="3.29687">
        <ele>373.96768</ele>
        <time>2012-10-10T13:20:05Z</time>
      </trkpt>
      <trkpt lat="45.53485" lon="3.29715">
        <ele>374.315</ele>
        <time>2012-10-10T13:20:08Z</time>
      </trkpt>
      <trkpt lat="45.53479" lon="3.29743">
        <ele>374.3553</ele>
        <time>2012-10-10T13:20:11Z</time>
      </trkpt>
      <trkpt lat="45.5347" lon="3.2977">
        <ele>374.03323</ele>
        <time>2012-10-10T13:20:14Z</time>
      </trkpt>
      <trkpt lat="45.53458" lon="3.29795">
        <ele>374.3739</ele>
        <time>2012-10-10T13:20:17Z</time>
      </trkpt>
      <trkpt lat="45.53445" lon="3.29818">
        <ele>375.077</ele>
        <time>2012-10-10T13:20:20Z</time>
      </trkpt>
      <trkpt lat="45.53432" lon="3.2984">
        <ele>375.708</ele>
        <time>2012-10-10T13:20:23Z</time>
      </trkpt>
      <trkpt lat="45.53421" lon="3.29867">
        <ele>376.0789</ele>
        <time>2012-10-10T13:20:26Z</time>
      </trkpt>
      <trkpt lat="45.53414" lon="3.29895">
        <ele>375.78067</ele>
        <time>2012-10-10T13:20:29Z</time>
      </trkpt>
      <trkpt lat="45.53406" lon="3.29922">
        <ele>375.34705</ele>
        <time>2012-10-10T13:20:32Z</time>
      </trkpt>
      <trkpt lat="45.534" lon="3.29949">
        <ele>375.4891</ele>
        <time>2012-10-10T13:20:35Z</time>
      </trkpt>
      <trkpt lat="45.53393" lon="3.29978">
        <ele>375.44122</ele>
        <time>2012-10-10T13:20:38Z</time>
      </trkpt>
      <trkpt lat="45.53386" lon="3.30003">
        <ele>375.3804</ele>
        <time>2012-10-10T13:20:41Z</time>
      </trkpt>
      <trkpt lat="45.5338" lon="3.30031">
        <ele>374.91724</ele>
        <time>2012-10-10T13:20:44Z</time>
      </trkpt>
      <trkpt lat="45.53375" lon="3.30059">
        <ele>374.56873</ele>
        <time>2012-10-10T13:20:47Z</time>
      </trkpt>
      <trkpt lat="45.53369" lon="3.30087">
        <ele>374.13577</ele>
        <time>2012-10-10T13:20:50Z</time>
      </trkpt>
      <trkpt lat="45.53366" lon="3.30115">
        <ele>373.33124</ele>
        <time>2012-10-10T13:20:52Z</time>
      </trkpt>
      <trkpt lat="45.53362" lon="3.30143">
        <ele>373.08557</ele>
        <time>2012-10-10T13:20:56Z</time>
      </trkpt>
      <trkpt lat="45.53359" lon="3.30173">
        <ele>373.33817</ele>
        <time>2012-10-10T13:20:59Z</time>
      </trkpt>
      <trkpt lat="45.53354" lon="3.30202">
        <ele>373.29007</ele>
        <time>2012-10-10T13:21:02Z</time>
      </trkpt>
      <trkpt lat="45.53348" lon="3.30229">
        <ele>373.33228</ele>
        <time>2012-10-10T13:21:05Z</time>
      </trkpt>
      <trkpt lat="45.53341" lon="3.30256">
        <ele>373.72507</ele>
        <time>2012-10-10T13:21:08Z</time>
      </trkpt>
      <trkpt lat="45.53333" lon="3.30283">
        <ele>374.62985</ele>
        <time>2012-10-10T13:21:11Z</time>
      </trkpt>
      <trkpt lat="45.53326" lon="3.3031">
        <ele>375.49905</ele>
        <time>2012-10-10T13:21:14Z</time>
      </trkpt>
      <trkpt lat="45.53318" lon="3.30335">
        <ele>376.12668</ele>
        <time>2012-10-10T13:21:17Z</time>
      </trkpt>
      <trkpt lat="45.5331" lon="3.30361">
        <ele>375.9899</ele>
        <time>2012-10-10T13:21:20Z</time>
      </trkpt>
      <trkpt lat="45.53301" lon="3.30386">
        <ele>375.80405</ele>
        <time>2012-10-10T13:21:22Z</time>
      </trkpt>
      <trkpt lat="45.53288" lon="3.30407">
        <ele>375.8319</ele>
        <time>2012-10-10T13:21:26Z</time>
      </trkpt>
      <trkpt lat="45.53264" lon="3.30417">
        <ele>376.21976</ele>
        <time>2012-10-10T13:21:30Z</time>
      </trkpt>
      <trkpt lat="45.53247" lon="3.30423">
        <ele>377.46353</ele>
        <time>2012-10-10T13:21:33Z</time>
      </trkpt>
      <trkpt lat="45.53226" lon="3.30432">
        <ele>378.70828</ele>
        <time>2012-10-10T13:21:37Z</time>
      </trkpt>
      <trkpt lat="45.53207" lon="3.30438">
        <ele>378.9087</ele>
        <time>2012-10-10T13:21:40Z</time>
      </trkpt>
      <trkpt lat="45.53188" lon="3.30446">
        <ele>379.29013</ele>
        <time>2012-10-10T13:21:43Z</time>
      </trkpt>
      <trkpt lat="45.53168" lon="3.30453">
        <ele>378.83386</ele>
        <time>2012-10-10T13:21:46Z</time>
      </trkpt>
      <trkpt lat="45.5315" lon="3.30461">
        <ele>378.5695</ele>
        <time>2012-10-10T13:21:49Z</time>
      </trkpt>
      <trkpt lat="45.53132" lon="3.30474">
        <ele>378.56732</ele>
        <time>2012-10-10T13:21:52Z</time>
      </trkpt>
      <trkpt lat="45.53115" lon="3.30486">
        <ele>378.80237</ele>
        <time>2012-10-10T13:21:54Z</time>
      </trkpt>
      <trkpt lat="45.53095" lon="3.30485">
        <ele>378.39215</ele>
        <time>2012-10-10T13:21:58Z</time>
      </trkpt>
      <trkpt lat="45.53078" lon="3.30475">
        <ele>377.45502</ele>
        <time>2012-10-10T13:22:01Z</time>
      </trkpt>
      <trkpt lat="45.53063" lon="3.30459">
        <ele>376.36905</ele>
        <time>2012-10-10T13:22:04Z</time>
      </trkpt>
      <trkpt lat="45.53048" lon="3.30436">
        <ele>375.9187</ele>
        <time>2012-10-10T13:22:07Z</time>
      </trkpt>
      <trkpt lat="45.53033" lon="3.30416">
        <ele>375.62247</ele>
        <time>2012-10-10T13:22:10Z</time>
      </trkpt>
      <trkpt lat="45.53012" lon="3.30402">
        <ele>375.36</ele>
        <time>2012-10-10T13:22:13Z</time>
      </trkpt>
      <trkpt lat="45.52996" lon="3.30385">
        <ele>375.29614</ele>
        <time>2012-10-10T13:22:16Z</time>
      </trkpt>
      <trkpt lat="45.5298" lon="3.30365">
        <ele>374.63327</ele>
        <time>2012-10-10T13:22:19Z</time>
      </trkpt>
      <trkpt lat="45.52959" lon="3.30357">
        <ele>374.68658</ele>
        <time>2012-10-10T13:22:23Z</time>
      </trkpt>
      <trkpt lat="45.52943" lon="3.30369">
        <ele>374.75424</ele>
        <time>2012-10-10T13:22:26Z</time>
      </trkpt>
      <trkpt lat="45.52928" lon="3.30387">
        <ele>374.22183</ele>
        <time>2012-10-10T13:22:29Z</time>
      </trkpt>
      <trkpt lat="45.5291" lon="3.304">
        <ele>373.18942</ele>
        <time>2012-10-10T13:22:32Z</time>
      </trkpt>
      <trkpt lat="45.52893" lon="3.30406">
        <ele>373.732</ele>
        <time>2012-10-10T13:22:34Z</time>
      </trkpt>
      <trkpt lat="45.5287" lon="3.30412">
        <ele>373.564</ele>
        <time>2012-10-10T13:22:38Z</time>
      </trkpt>
      <trkpt lat="45.52848" lon="3.30423">
        <ele>373.9069</ele>
        <time>2012-10-10T13:22:42Z</time>
      </trkpt>
      <trkpt lat="45.52842" lon="3.30453">
        <ele>374.70404</ele>
        <time>2012-10-10T13:22:46Z</time>
      </trkpt>
      <trkpt lat="45.52842" lon="3.3048">
        <ele>374.5741</ele>
        <time>2012-10-10T13:22:49Z</time>
      </trkpt>
      <trkpt lat="45.52839" lon="3.30508">
        <ele>374.92084</ele>
        <time>2012-10-10T13:22:52Z</time>
      </trkpt>
      <trkpt lat="45.52822" lon="3.3053">
        <ele>374.8221</ele>
        <time>2012-10-10T13:22:56Z</time>
      </trkpt>
      <trkpt lat="45.52803" lon="3.30533">
        <ele>375.06454</ele>
        <time>2012-10-10T13:22:59Z</time>
      </trkpt>
      <trkpt lat="45.52785" lon="3.30531">
        <ele>375.94336</ele>
        <time>2012-10-10T13:23:02Z</time>
      </trkpt>
      <trkpt lat="45.52764" lon="3.30525">
        <ele>375.74695</ele>
        <time>2012-10-10T13:23:05Z</time>
      </trkpt>
      <trkpt lat="45.52745" lon="3.30523">
        <ele>375.69064</ele>
        <time>2012-10-10T13:23:08Z</time>
      </trkpt>
      <trkpt lat="45.52726" lon="3.30524">
        <ele>375.90436</ele>
        <time>2012-10-10T13:23:12Z</time>
      </trkpt>
      <trkpt lat="45.52706" lon="3.30526">
        <ele>377.90558</ele>
        <time>2012-10-10T13:23:16Z</time>
      </trkpt>
      <trkpt lat="45.52687" lon="3.30527">
        <ele>378.7005</ele>
        <time>2012-10-10T13:23:20Z</time>
      </trkpt>
      <trkpt lat="45.52667" lon="3.30534">
        <ele>377.2406</ele>
        <time>2012-10-10T13:23:25Z</time>
      </trkpt>
      <trkpt lat="45.52645" lon="3.30547">
        <ele>376.06122</ele>
        <time>2012-10-10T13:23:33Z</time>
      </trkpt>
      <trkpt lat="45.52627" lon="3.30564">
        <ele>376.50204</ele>
        <time>2012-10-10T13:23:39Z</time>
      </trkpt>
      <trkpt lat="45.52614" lon="3.30584">
        <ele>378.89447</ele>
        <time>2012-10-10T13:23:44Z</time>
      </trkpt>
      <trkpt lat="45.52595" lon="3.3059">
        <ele>380.46143</ele>
        <time>2012-10-10T13:23:48Z</time>
      </trkpt>
      <trkpt lat="45.52575" lon="3.30593">
        <ele>381.26743</ele>
        <time>2012-10-10T13:23:53Z</time>
      </trkpt>
      <trkpt lat="45.52557" lon="3.30597">
        <ele>381.68295</ele>
        <time>2012-10-10T13:23:57Z</time>
      </trkpt>
      <trkpt lat="45.52535" lon="3.306">
        <ele>381.34442</ele>
        <time>2012-10-10T13:24:02Z</time>
      </trkpt>
      <trkpt lat="45.52514" lon="3.30602">
        <ele>383.02472</ele>
        <time>2012-10-10T13:24:07Z</time>
      </trkpt>
      <trkpt lat="45.52495" lon="3.30608">
        <ele>382.36832</ele>
        <time>2012-10-10T13:24:12Z</time>
      </trkpt>
      <trkpt lat="45.52473" lon="3.30612">
        <ele>381.10666</ele>
        <time>2012-10-10T13:24:17Z</time>
      </trkpt>
      <trkpt lat="45.52454" lon="3.30611">
        <ele>380.77524</ele>
        <time>2012-10-10T13:24:22Z</time>
      </trkpt>
      <trkpt lat="45.52435" lon="3.30605">
        <ele>380.8862</ele>
        <time>2012-10-10T13:24:26Z</time>
      </trkpt>
      <trkpt lat="45.52414" lon="3.3059">
        <ele>379.82132</ele>
        <time>2012-10-10T13:24:30Z</time>
      </trkpt>
      <trkpt lat="45.52393" lon="3.30577">
        <ele>378.71213</ele>
        <time>2012-10-10T13:24:34Z</time>
      </trkpt>
      <trkpt lat="45.52369" lon="3.30573">
        <ele>377.84476</ele>
        <time>2012-10-10T13:24:38Z</time>
      </trkpt>
      <trkpt lat="45.52346" lon="3.30574">
        <ele>376.7785</ele>
        <time>2012-10-10T13:24:42Z</time>
      </trkpt>
      <trkpt lat="45.52323" lon="3.30561">
        <ele>378.65488</ele>
        <time>2012-10-10T13:24:47Z</time>
      </trkpt>
      <trkpt lat="45.52304" lon="3.30556">
        <ele>379.49243</ele>
        <time>2012-10-10T13:24:50Z</time>
      </trkpt>
      <trkpt lat="45.5228" lon="3.30556">
        <ele>379.82642</ele>
        <time>2012-10-10T13:24:54Z</time>
      </trkpt>
      <trkpt lat="45.52256" lon="3.30554">
        <ele>380.30124</ele>
        <time>2012-10-10T13:24:58Z</time>
      </trkpt>
      <trkpt lat="45.52237" lon="3.30554">
        <ele>380.0323</ele>
        <time>2012-10-10T13:25:01Z</time>
      </trkpt>
      <trkpt lat="45.52218" lon="3.30557">
        <ele>379.56726</ele>
        <time>2012-10-10T13:25:04Z</time>
      </trkpt>
      <trkpt lat="45.522" lon="3.30563">
        <ele>379.32422</ele>
        <time>2012-10-10T13:25:07Z</time>
      </trkpt>
      <trkpt lat="45.52181" lon="3.30569">
        <ele>379.2654</ele>
        <time>2012-10-10T13:25:10Z</time>
      </trkpt>
      <trkpt lat="45.52156" lon="3.30569">
        <ele>380.44403</ele>
        <time>2012-10-10T13:25:14Z</time>
      </trkpt>
      <trkpt lat="45.52138" lon="3.30569">
        <ele>381.05972</ele>
        <time>2012-10-10T13:25:17Z</time>
      </trkpt>
      <trkpt lat="45.52116" lon="3.30572">
        <ele>381.68597</ele>
        <time>2012-10-10T13:25:21Z</time>
      </trkpt>
      <trkpt lat="45.52094" lon="3.30575">
        <ele>382.27945</ele>
        <time>2012-10-10T13:25:25Z</time>
      </trkpt>
      <trkpt lat="45.52074" lon="3.30577">
        <ele>383.34146</ele>
        <time>2012-10-10T13:25:29Z</time>
      </trkpt>
      <trkpt lat="45.52055" lon="3.30578">
        <ele>383.5435</ele>
        <time>2012-10-10T13:25:33Z</time>
      </trkpt>
      <trkpt lat="45.52034" lon="3.30571">
        <ele>383.6823</ele>
        <time>2012-10-10T13:25:38Z</time>
      </trkpt>
      <trkpt lat="45.52013" lon="3.30566">
        <ele>383.58334</ele>
        <time>2012-10-10T13:25:43Z</time>
      </trkpt>
      <trkpt lat="45.51992" lon="3.30556">
        <ele>383.6576</ele>
        <time>2012-10-10T13:25:48Z</time>
      </trkpt>
      <trkpt lat="45.51971" lon="3.30549">
        <ele>383.90765</ele>
        <time>2012-10-10T13:25:53Z</time>
      </trkpt>
      <trkpt lat="45.51952" lon="3.30542">
        <ele>384.4949</ele>
        <time>2012-10-10T13:25:57Z</time>
      </trkpt>
      <trkpt lat="45.51933" lon="3.30537">
        <ele>385.14944</ele>
        <time>2012-10-10T13:26:01Z</time>
      </trkpt>
      <trkpt lat="45.51915" lon="3.30535">
        <ele>385.61945</ele>
        <time>2012-10-10T13:26:05Z</time>
      </trkpt>
      <trkpt lat="45.51896" lon="3.3053">
        <ele>385.68182</ele>
        <time>2012-10-10T13:26:09Z</time>
      </trkpt>
      <trkpt lat="45.51878" lon="3.30526">
        <ele>386.47424</ele>
        <time>2012-10-10T13:26:13Z</time>
      </trkpt>
      <trkpt lat="45.51857" lon="3.30521">
        <ele>386.8015</ele>
        <time>2012-10-10T13:26:17Z</time>
      </trkpt>
      <trkpt lat="45.51838" lon="3.30517">
        <ele>386.81406</ele>
        <time>2012-10-10T13:26:21Z</time>
      </trkpt>
      <trkpt lat="45.51819" lon="3.30517">
        <ele>386.03754</ele>
        <time>2012-10-10T13:26:25Z</time>
      </trkpt>
      <trkpt lat="45.51798" lon="3.30516">
        <ele>385.0524</ele>
        <time>2012-10-10T13:26:29Z</time>
      </trkpt>
      <trkpt lat="45.51779" lon="3.30509">
        <ele>384.53992</ele>
        <time>2012-10-10T13:26:33Z</time>
      </trkpt>
      <trkpt lat="45.51759" lon="3.30501">
        <ele>385.1024</ele>
        <time>2012-10-10T13:26:37Z</time>
      </trkpt>
      <trkpt lat="45.51739" lon="3.30498">
        <ele>384.75885</ele>
        <time>2012-10-10T13:26:41Z</time>
      </trkpt>
      <trkpt lat="45.51718" lon="3.30493">
        <ele>384.85916</ele>
        <time>2012-10-10T13:26:45Z</time>
      </trkpt>
      <trkpt lat="45.51699" lon="3.3049">
        <ele>383.9161</ele>
        <time>2012-10-10T13:26:48Z</time>
      </trkpt>
      <trkpt lat="45.5168" lon="3.3049">
        <ele>383.6995</ele>
        <time>2012-10-10T13:26:51Z</time>
      </trkpt>
      <trkpt lat="45.5166" lon="3.30492">
        <ele>383.3706</ele>
        <time>2012-10-10T13:26:54Z</time>
      </trkpt>
      <trkpt lat="45.51641" lon="3.30491">
        <ele>383.39282</ele>
        <time>2012-10-10T13:26:57Z</time>
      </trkpt>
      <trkpt lat="45.51623" lon="3.3049">
        <ele>383.11154</ele>
        <time>2012-10-10T13:27:00Z</time>
      </trkpt>
      <trkpt lat="45.51605" lon="3.30488">
        <ele>383.41788</ele>
        <time>2012-10-10T13:27:03Z</time>
      </trkpt>
      <trkpt lat="45.51587" lon="3.30486">
        <ele>383.3534</ele>
        <time>2012-10-10T13:27:06Z</time>
      </trkpt>
      <trkpt lat="45.51563" lon="3.30483">
        <ele>383.94962</ele>
        <time>2012-10-10T13:27:10Z</time>
      </trkpt>
      <trkpt lat="45.51542" lon="3.3048">
        <ele>385.18942</ele>
        <time>2012-10-10T13:27:14Z</time>
      </trkpt>
      <trkpt lat="45.51521" lon="3.30473">
        <ele>384.96375</ele>
        <time>2012-10-10T13:27:18Z</time>
      </trkpt>
      <trkpt lat="45.51501" lon="3.3047">
        <ele>384.6982</ele>
        <time>2012-10-10T13:27:22Z</time>
      </trkpt>
      <trkpt lat="45.5148" lon="3.30467">
        <ele>384.64307</ele>
        <time>2012-10-10T13:27:26Z</time>
      </trkpt>
      <trkpt lat="45.51459" lon="3.30461">
        <ele>384.40494</ele>
        <time>2012-10-10T13:27:30Z</time>
      </trkpt>
      <trkpt lat="45.51437" lon="3.30454">
        <ele>384.612</ele>
        <time>2012-10-10T13:27:34Z</time>
      </trkpt>
      <trkpt lat="45.51416" lon="3.30449">
        <ele>384.27676</ele>
        <time>2012-10-10T13:27:38Z</time>
      </trkpt>
      <trkpt lat="45.51397" lon="3.30444">
        <ele>384.34567</ele>
        <time>2012-10-10T13:27:42Z</time>
      </trkpt>
      <trkpt lat="45.51377" lon="3.3044">
        <ele>384.37686</ele>
        <time>2012-10-10T13:27:46Z</time>
      </trkpt>
      <trkpt lat="45.51355" lon="3.30433">
        <ele>385.175</ele>
        <time>2012-10-10T13:27:50Z</time>
      </trkpt>
      <trkpt lat="45.51332" lon="3.30427">
        <ele>385.59784</ele>
        <time>2012-10-10T13:27:54Z</time>
      </trkpt>
      <trkpt lat="45.51311" lon="3.30421">
        <ele>385.57266</ele>
        <time>2012-10-10T13:27:58Z</time>
      </trkpt>
      <trkpt lat="45.51288" lon="3.30414">
        <ele>386.26743</ele>
        <time>2012-10-10T13:28:02Z</time>
      </trkpt>
      <trkpt lat="45.51266" lon="3.30408">
        <ele>386.73373</ele>
        <time>2012-10-10T13:28:06Z</time>
      </trkpt>
      <trkpt lat="45.51244" lon="3.30403">
        <ele>387.2926</ele>
        <time>2012-10-10T13:28:10Z</time>
      </trkpt>
      <trkpt lat="45.51222" lon="3.30397">
        <ele>387.40536</ele>
        <time>2012-10-10T13:28:14Z</time>
      </trkpt>
      <trkpt lat="45.51202" lon="3.30391">
        <ele>387.81567</ele>
        <time>2012-10-10T13:28:18Z</time>
      </trkpt>
      <trkpt lat="45.51181" lon="3.30383">
        <ele>387.84705</ele>
        <time>2012-10-10T13:28:22Z</time>
      </trkpt>
      <trkpt lat="45.51161" lon="3.30373">
        <ele>388.88345</ele>
        <time>2012-10-10T13:28:27Z</time>
      </trkpt>
      <trkpt lat="45.51142" lon="3.30365">
        <ele>388.82202</ele>
        <time>2012-10-10T13:28:31Z</time>
      </trkpt>
      <trkpt lat="45.51122" lon="3.3036">
        <ele>389.04358</ele>
        <time>2012-10-10T13:28:35Z</time>
      </trkpt>
      <trkpt lat="45.51103" lon="3.30354">
        <ele>389.51016</ele>
        <time>2012-10-10T13:28:39Z</time>
      </trkpt>
      <trkpt lat="45.5108" lon="3.30346">
        <ele>389.67188</ele>
        <time>2012-10-10T13:28:43Z</time>
      </trkpt>
      <trkpt lat="45.51058" lon="3.30339">
        <ele>389.26563</ele>
        <time>2012-10-10T13:28:47Z</time>
      </trkpt>
      <trkpt lat="45.51038" lon="3.30334">
        <ele>388.57925</ele>
        <time>2012-10-10T13:28:51Z</time>
      </trkpt>
      <trkpt lat="45.51018" lon="3.3033">
        <ele>388.94998</ele>
        <time>2012-10-10T13:28:55Z</time>
      </trkpt>
      <trkpt lat="45.50999" lon="3.30323">
        <ele>389.17508</ele>
        <time>2012-10-10T13:28:59Z</time>
      </trkpt>
      <trkpt lat="45.50977" lon="3.30321">
        <ele>389.56155</ele>
        <time>2012-10-10T13:29:03Z</time>
      </trkpt>
      <trkpt lat="45.50952" lon="3.30326">
        <ele>390.72134</ele>
        <time>2012-10-10T13:29:08Z</time>
      </trkpt>
      <trkpt lat="45.50933" lon="3.30328">
        <ele>392.02682</ele>
        <time>2012-10-10T13:29:14Z</time>
      </trkpt>
      <trkpt lat="45.50924" lon="3.30305">
        <ele>392.94226</ele>
        <time>2012-10-10T13:29:20Z</time>
      </trkpt>
      <trkpt lat="45.50906" lon="3.30307">
        <ele>394.0447</ele>
        <time>2012-10-10T13:29:27Z</time>
      </trkpt>
      <trkpt lat="45.50899" lon="3.30336">
        <ele>393.2868</ele>
        <time>2012-10-10T13:29:32Z</time>
      </trkpt>
      <trkpt lat="45.50883" lon="3.30355">
        <ele>393.3223</ele>
        <time>2012-10-10T13:29:36Z</time>
      </trkpt>
      <trkpt lat="45.50871" lon="3.30379">
        <ele>393.01553</ele>
        <time>2012-10-10T13:29:40Z</time>
      </trkpt>
      <trkpt lat="45.50858" lon="3.30401">
        <ele>395.57745</ele>
        <time>2012-10-10T13:29:45Z</time>
      </trkpt>
      <trkpt lat="45.50839" lon="3.30418">
        <ele>397.7877</ele>
        <time>2012-10-10T13:29:49Z</time>
      </trkpt>
      <trkpt lat="45.5082" lon="3.30436">
        <ele>397.37646</ele>
        <time>2012-10-10T13:29:53Z</time>
      </trkpt>
      <trkpt lat="45.50801" lon="3.30454">
        <ele>397.21356</ele>
        <time>2012-10-10T13:29:57Z</time>
      </trkpt>
      <trkpt lat="45.50783" lon="3.30472">
        <ele>397.11435</ele>
        <time>2012-10-10T13:30:01Z</time>
      </trkpt>
      <trkpt lat="45.50766" lon="3.30491">
        <ele>397.9056</ele>
        <time>2012-10-10T13:30:05Z</time>
      </trkpt>
      <trkpt lat="45.50749" lon="3.30507">
        <ele>399.32825</ele>
        <time>2012-10-10T13:30:09Z</time>
      </trkpt>
      <trkpt lat="45.50731" lon="3.30526">
        <ele>400.82526</ele>
        <time>2012-10-10T13:30:13Z</time>
      </trkpt>
      <trkpt lat="45.50717" lon="3.30551">
        <ele>401.43835</ele>
        <time>2012-10-10T13:30:17Z</time>
      </trkpt>
      <trkpt lat="45.50702" lon="3.3057">
        <ele>401.0063</ele>
        <time>2012-10-10T13:30:21Z</time>
      </trkpt>
      <trkpt lat="45.50685" lon="3.30591">
        <ele>401.4511</ele>
        <time>2012-10-10T13:30:26Z</time>
      </trkpt>
      <trkpt lat="45.50668" lon="3.30608">
        <ele>403.34616</ele>
        <time>2012-10-10T13:30:30Z</time>
      </trkpt>
      <trkpt lat="45.50648" lon="3.30621">
        <ele>405.12924</ele>
        <time>2012-10-10T13:30:35Z</time>
      </trkpt>
      <trkpt lat="45.50634" lon="3.3064">
        <ele>406.58786</ele>
        <time>2012-10-10T13:30:38Z</time>
      </trkpt>
      <trkpt lat="45.50617" lon="3.30654">
        <ele>407.4824</ele>
        <time>2012-10-10T13:30:43Z</time>
      </trkpt>
      <trkpt lat="45.50599" lon="3.30662">
        <ele>408.95245</ele>
        <time>2012-10-10T13:30:46Z</time>
      </trkpt>
      <trkpt lat="45.50577" lon="3.30673">
        <ele>409.45682</ele>
        <time>2012-10-10T13:30:51Z</time>
      </trkpt>
      <trkpt lat="45.50554" lon="3.30683">
        <ele>410.23196</ele>
        <time>2012-10-10T13:30:56Z</time>
      </trkpt>
      <trkpt lat="45.50535" lon="3.30695">
        <ele>408.57797</ele>
        <time>2012-10-10T13:31:00Z</time>
      </trkpt>
      <trkpt lat="45.50515" lon="3.30707">
        <ele>406.22147</ele>
        <time>2012-10-10T13:31:04Z</time>
      </trkpt>
      <trkpt lat="45.50498" lon="3.30717">
        <ele>404.3637</ele>
        <time>2012-10-10T13:31:08Z</time>
      </trkpt>
      <trkpt lat="45.5048" lon="3.30725">
        <ele>405.4904</ele>
        <time>2012-10-10T13:31:12Z</time>
      </trkpt>
      <trkpt lat="45.50459" lon="3.30731">
        <ele>406.9281</ele>
        <time>2012-10-10T13:31:16Z</time>
      </trkpt>
      <trkpt lat="45.50439" lon="3.30741">
        <ele>408.4623</ele>
        <time>2012-10-10T13:31:20Z</time>
      </trkpt>
      <trkpt lat="45.5042" lon="3.30747">
        <ele>408.7751</ele>
        <time>2012-10-10T13:31:24Z</time>
      </trkpt>
      <trkpt lat="45.50401" lon="3.30749">
        <ele>408.97678</ele>
        <time>2012-10-10T13:31:28Z</time>
      </trkpt>
      <trkpt lat="45.50384" lon="3.30764">
        <ele>407.904</ele>
        <time>2012-10-10T13:31:32Z</time>
      </trkpt>
      <trkpt lat="45.50364" lon="3.30766">
        <ele>406.68436</ele>
        <time>2012-10-10T13:31:37Z</time>
      </trkpt>
      <trkpt lat="45.50341" lon="3.30766">
        <ele>406.49533</ele>
        <time>2012-10-10T13:31:41Z</time>
      </trkpt>
      <trkpt lat="45.50319" lon="3.30769">
        <ele>407.41678</ele>
        <time>2012-10-10T13:31:45Z</time>
      </trkpt>
      <trkpt lat="45.503" lon="3.3077">
        <ele>408.7982</ele>
        <time>2012-10-10T13:31:49Z</time>
      </trkpt>
      <trkpt lat="45.5028" lon="3.30774">
        <ele>409.39258</ele>
        <time>2012-10-10T13:31:54Z</time>
      </trkpt>
      <trkpt lat="45.50259" lon="3.30773">
        <ele>406.45615</ele>
        <time>2012-10-10T13:31:58Z</time>
      </trkpt>
      <trkpt lat="45.50241" lon="3.30769">
        <ele>405.02393</ele>
        <time>2012-10-10T13:32:02Z</time>
      </trkpt>
      <trkpt lat="45.50222" lon="3.30768">
        <ele>404.74457</ele>
        <time>2012-10-10T13:32:06Z</time>
      </trkpt>
      <trkpt lat="45.50204" lon="3.30755">
        <ele>404.67282</ele>
        <time>2012-10-10T13:32:11Z</time>
      </trkpt>
      <trkpt lat="45.50198" lon="3.30727">
        <ele>404.04404</ele>
        <time>2012-10-10T13:32:15Z</time>
      </trkpt>
      <trkpt lat="45.5019" lon="3.30704">
        <ele>401.50485</ele>
        <time>2012-10-10T13:32:19Z</time>
      </trkpt>
      <trkpt lat="45.50183" lon="3.30678">
        <ele>399.62292</ele>
        <time>2012-10-10T13:32:23Z</time>
      </trkpt>
      <trkpt lat="45.50175" lon="3.30651">
        <ele>398.4841</ele>
        <time>2012-10-10T13:32:27Z</time>
      </trkpt>
      <trkpt lat="45.50167" lon="3.30622">
        <ele>399.34995</ele>
        <time>2012-10-10T13:32:31Z</time>
      </trkpt>
      <trkpt lat="45.50162" lon="3.30593">
        <ele>400.48883</ele>
        <time>2012-10-10T13:32:36Z</time>
      </trkpt>
      <trkpt lat="45.50155" lon="3.30564">
        <ele>402.4644</ele>
        <time>2012-10-10T13:32:41Z</time>
      </trkpt>
      <trkpt lat="45.50147" lon="3.30537">
        <ele>404.9306</ele>
        <time>2012-10-10T13:32:48Z</time>
      </trkpt>
      <trkpt lat="45.50133" lon="3.30514">
        <ele>408.85388</ele>
        <time>2012-10-10T13:32:56Z</time>
      </trkpt>
      <trkpt lat="45.50118" lon="3.30496">
        <ele>409.5953</ele>
        <time>2012-10-10T13:33:03Z</time>
      </trkpt>
      <trkpt lat="45.50103" lon="3.30475">
        <ele>411.3693</ele>
        <time>2012-10-10T13:33:09Z</time>
      </trkpt>
      <trkpt lat="45.5009" lon="3.30456">
        <ele>411.6315</ele>
        <time>2012-10-10T13:33:15Z</time>
      </trkpt>
      <trkpt lat="45.50075" lon="3.30437">
        <ele>412.17575</ele>
        <time>2012-10-10T13:33:22Z</time>
      </trkpt>
      <trkpt lat="45.50059" lon="3.30421">
        <ele>413.83044</ele>
        <time>2012-10-10T13:33:29Z</time>
      </trkpt>
      <trkpt lat="45.50044" lon="3.30403">
        <ele>415.15118</ele>
        <time>2012-10-10T13:33:36Z</time>
      </trkpt>
      <trkpt lat="45.50024" lon="3.30392">
        <ele>416.73</ele>
        <time>2012-10-10T13:33:43Z</time>
      </trkpt>
      <trkpt lat="45.50005" lon="3.30386">
        <ele>418.20462</ele>
        <time>2012-10-10T13:33:49Z</time>
      </trkpt>
      <trkpt lat="45.49985" lon="3.30389">
        <ele>419.53027</ele>
        <time>2012-10-10T13:33:56Z</time>
      </trkpt>
      <trkpt lat="45.49964" lon="3.30389">
        <ele>420.57092</ele>
        <time>2012-10-10T13:34:03Z</time>
      </trkpt>
      <trkpt lat="45.49944" lon="3.30392">
        <ele>421.81845</ele>
        <time>2012-10-10T13:34:10Z</time>
      </trkpt>
      <trkpt lat="45.49924" lon="3.30389">
        <ele>422.6613</ele>
        <time>2012-10-10T13:34:17Z</time>
      </trkpt>
      <trkpt lat="45.49906" lon="3.30384">
        <ele>422.7401</ele>
        <time>2012-10-10T13:34:23Z</time>
      </trkpt>
      <trkpt lat="45.49886" lon="3.30376">
        <ele>424.64664</ele>
        <time>2012-10-10T13:34:30Z</time>
      </trkpt>
      <trkpt lat="45.49868" lon="3.30366">
        <ele>426.71756</ele>
        <time>2012-10-10T13:34:36Z</time>
      </trkpt>
      <trkpt lat="45.49849" lon="3.30354">
        <ele>429.09222</ele>
        <time>2012-10-10T13:34:42Z</time>
      </trkpt>
      <trkpt lat="45.49831" lon="3.30346">
        <ele>429.24106</ele>
        <time>2012-10-10T13:34:47Z</time>
      </trkpt>
      <trkpt lat="45.49812" lon="3.30332">
        <ele>429.24445</ele>
        <time>2012-10-10T13:34:52Z</time>
      </trkpt>
      <trkpt lat="45.49791" lon="3.30321">
        <ele>428.7961</ele>
        <time>2012-10-10T13:34:57Z</time>
      </trkpt>
      <trkpt lat="45.49772" lon="3.30309">
        <ele>428.11765</ele>
        <time>2012-10-10T13:35:02Z</time>
      </trkpt>
      <trkpt lat="45.49751" lon="3.30301">
        <ele>427.76428</ele>
        <time>2012-10-10T13:35:07Z</time>
      </trkpt>
      <trkpt lat="45.49732" lon="3.30294">
        <ele>427.61478</ele>
        <time>2012-10-10T13:35:12Z</time>
      </trkpt>
      <trkpt lat="45.49713" lon="3.30287">
        <ele>427.95178</ele>
        <time>2012-10-10T13:35:17Z</time>
      </trkpt>
      <trkpt lat="45.49694" lon="3.30279">
        <ele>428.57715</ele>
        <time>2012-10-10T13:35:22Z</time>
      </trkpt>
      <trkpt lat="45.49678" lon="3.3027">
        <ele>429.78268</ele>
        <time>2012-10-10T13:35:27Z</time>
      </trkpt>
      <trkpt lat="45.4966" lon="3.30261">
        <ele>431.10794</ele>
        <time>2012-10-10T13:35:32Z</time>
      </trkpt>
      <trkpt lat="45.49639" lon="3.30251">
        <ele>432.0944</ele>
        <time>2012-10-10T13:35:38Z</time>
      </trkpt>
      <trkpt lat="45.49622" lon="3.30243">
        <ele>432.61832</ele>
        <time>2012-10-10T13:35:43Z</time>
      </trkpt>
      <trkpt lat="45.49602" lon="3.30234">
        <ele>432.57578</ele>
        <time>2012-10-10T13:35:49Z</time>
      </trkpt>
      <trkpt lat="45.49583" lon="3.30221">
        <ele>433.32053</ele>
        <time>2012-10-10T13:35:55Z</time>
      </trkpt>
      <trkpt lat="45.49568" lon="3.30203">
        <ele>434.25418</ele>
        <time>2012-10-10T13:36:01Z</time>
      </trkpt>
      <trkpt lat="45.49552" lon="3.30186">
        <ele>434.5004</ele>
        <time>2012-10-10T13:36:06Z</time>
      </trkpt>
      <trkpt lat="45.49537" lon="3.30171">
        <ele>434.2547</ele>
        <time>2012-10-10T13:36:10Z</time>
      </trkpt>
      <trkpt lat="45.49521" lon="3.30157">
        <ele>433.8262</ele>
        <time>2012-10-10T13:36:14Z</time>
      </trkpt>
      <trkpt lat="45.49504" lon="3.30142">
        <ele>433.57773</ele>
        <time>2012-10-10T13:36:18Z</time>
      </trkpt>
      <trkpt lat="45.49485" lon="3.30125">
        <ele>433.62488</ele>
        <time>2012-10-10T13:36:22Z</time>
      </trkpt>
      <trkpt lat="45.49466" lon="3.30115">
        <ele>433.298</ele>
        <time>2012-10-10T13:36:26Z</time>
      </trkpt>
      <trkpt lat="45.49448" lon="3.30103">
        <ele>433.50708</ele>
        <time>2012-10-10T13:36:31Z</time>
      </trkpt>
      <trkpt lat="45.49428" lon="3.30089">
        <ele>434.19293</ele>
        <time>2012-10-10T13:36:36Z</time>
      </trkpt>
      <trkpt lat="45.49408" lon="3.30076">
        <ele>436.17676</ele>
        <time>2012-10-10T13:36:41Z</time>
      </trkpt>
      <trkpt lat="45.49391" lon="3.30066">
        <ele>437.00153</ele>
        <time>2012-10-10T13:36:45Z</time>
      </trkpt>
      <trkpt lat="45.4937" lon="3.30054">
        <ele>437.40674</ele>
        <time>2012-10-10T13:36:50Z</time>
      </trkpt>
      <trkpt lat="45.49348" lon="3.30049">
        <ele>437.99323</ele>
        <time>2012-10-10T13:36:55Z</time>
      </trkpt>
      <trkpt lat="45.4933" lon="3.30044">
        <ele>439.3966</ele>
        <time>2012-10-10T13:36:59Z</time>
      </trkpt>
      <trkpt lat="45.49312" lon="3.30038">
        <ele>439.7133</ele>
        <time>2012-10-10T13:37:03Z</time>
      </trkpt>
      <trkpt lat="45.49292" lon="3.30031">
        <ele>440.25113</ele>
        <time>2012-10-10T13:37:08Z</time>
      </trkpt>
      <trkpt lat="45.49272" lon="3.30023">
        <ele>441.65912</ele>
        <time>2012-10-10T13:37:13Z</time>
      </trkpt>
      <trkpt lat="45.49252" lon="3.30013">
        <ele>443.02002</ele>
        <time>2012-10-10T13:37:18Z</time>
      </trkpt>
      <trkpt lat="45.49233" lon="3.29998">
        <ele>444.25925</ele>
        <time>2012-10-10T13:37:25Z</time>
      </trkpt>
      <trkpt lat="45.49217" lon="3.29982">
        <ele>444.95474</ele>
        <time>2012-10-10T13:37:33Z</time>
      </trkpt>
      <trkpt lat="45.49201" lon="3.29968">
        <ele>447.2524</ele>
        <time>2012-10-10T13:37:40Z</time>
      </trkpt>
      <trkpt lat="45.49186" lon="3.29951">
        <ele>451.08002</ele>
        <time>2012-10-10T13:37:48Z</time>
      </trkpt>
      <trkpt lat="45.4917" lon="3.29938">
        <ele>453.7692</ele>
        <time>2012-10-10T13:37:57Z</time>
      </trkpt>
      <trkpt lat="45.49154" lon="3.29924">
        <ele>452.66156</ele>
        <time>2012-10-10T13:38:07Z</time>
      </trkpt>
      <trkpt lat="45.49142" lon="3.29903">
        <ele>453.15753</ele>
        <time>2012-10-10T13:38:19Z</time>
      </trkpt>
      <trkpt lat="45.49128" lon="3.29883">
        <ele>453.2018</ele>
        <time>2012-10-10T13:38:27Z</time>
      </trkpt>
      <trkpt lat="45.49116" lon="3.29864">
        <ele>457.56177</ele>
        <time>2012-10-10T13:38:37Z</time>
      </trkpt>
      <trkpt lat="45.49099" lon="3.29849">
        <ele>458.30936</ele>
        <time>2012-10-10T13:38:46Z</time>
      </trkpt>
      <trkpt lat="45.49082" lon="3.29833">
        <ele>459.9499</ele>
        <time>2012-10-10T13:38:55Z</time>
      </trkpt>
      <trkpt lat="45.49067" lon="3.29819">
        <ele>461.7043</ele>
        <time>2012-10-10T13:39:03Z</time>
      </trkpt>
      <trkpt lat="45.49051" lon="3.29801">
        <ele>462.45294</ele>
        <time>2012-10-10T13:39:10Z</time>
      </trkpt>
      <trkpt lat="45.49036" lon="3.29784">
        <ele>463.80746</ele>
        <time>2012-10-10T13:39:16Z</time>
      </trkpt>
      <trkpt lat="45.49021" lon="3.29763">
        <ele>465.12167</ele>
        <time>2012-10-10T13:39:22Z</time>
      </trkpt>
      <trkpt lat="45.49007" lon="3.29742">
        <ele>464.76572</ele>
        <time>2012-10-10T13:39:27Z</time>
      </trkpt>
      <trkpt lat="45.48994" lon="3.2972">
        <ele>464.5617</ele>
        <time>2012-10-10T13:39:32Z</time>
      </trkpt>
      <trkpt lat="45.48981" lon="3.29695">
        <ele>465.00687</ele>
        <time>2012-10-10T13:39:37Z</time>
      </trkpt>
      <trkpt lat="45.4897" lon="3.29672">
        <ele>466.05988</ele>
        <time>2012-10-10T13:39:40Z</time>
      </trkpt>
      <trkpt lat="45.48959" lon="3.29646">
        <ele>466.5798</ele>
        <time>2012-10-10T13:39:45Z</time>
      </trkpt>
      <trkpt lat="45.48948" lon="3.29619">
        <ele>466.1888</ele>
        <time>2012-10-10T13:39:49Z</time>
      </trkpt>
      <trkpt lat="45.48936" lon="3.2959">
        <ele>465.8655</ele>
        <time>2012-10-10T13:39:52Z</time>
      </trkpt>
      <trkpt lat="45.48926" lon="3.29562">
        <ele>465.32922</ele>
        <time>2012-10-10T13:39:57Z</time>
      </trkpt>
      <trkpt lat="45.48917" lon="3.2954">
        <ele>465.4816</ele>
        <time>2012-10-10T13:40:00Z</time>
      </trkpt>
      <trkpt lat="45.48908" lon="3.29515">
        <ele>465.61777</ele>
        <time>2012-10-10T13:40:03Z</time>
      </trkpt>
      <trkpt lat="45.48899" lon="3.29493">
        <ele>465.46112</ele>
        <time>2012-10-10T13:40:06Z</time>
      </trkpt>
      <trkpt lat="45.48887" lon="3.29464">
        <ele>464.62784</ele>
        <time>2012-10-10T13:40:10Z</time>
      </trkpt>
      <trkpt lat="45.48876" lon="3.29438">
        <ele>464.83997</ele>
        <time>2012-10-10T13:40:14Z</time>
      </trkpt>
      <trkpt lat="45.48867" lon="3.29411">
        <ele>465.12622</ele>
        <time>2012-10-10T13:40:18Z</time>
      </trkpt>
      <trkpt lat="45.48858" lon="3.29384">
        <ele>464.95197</ele>
        <time>2012-10-10T13:40:22Z</time>
      </trkpt>
      <trkpt lat="45.48846" lon="3.29357">
        <ele>465.13745</ele>
        <time>2012-10-10T13:40:25Z</time>
      </trkpt>
      <trkpt lat="45.48834" lon="3.29337">
        <ele>464.44443</ele>
        <time>2012-10-10T13:40:28Z</time>
      </trkpt>
      <trkpt lat="45.4882" lon="3.2932">
        <ele>463.91458</ele>
        <time>2012-10-10T13:40:32Z</time>
      </trkpt>
      <trkpt lat="45.48804" lon="3.29304">
        <ele>463.04105</ele>
        <time>2012-10-10T13:40:35Z</time>
      </trkpt>
      <trkpt lat="45.48787" lon="3.29288">
        <ele>461.64438</ele>
        <time>2012-10-10T13:40:38Z</time>
      </trkpt>
      <trkpt lat="45.48772" lon="3.29273">
        <ele>460.97394</ele>
        <time>2012-10-10T13:40:41Z</time>
      </trkpt>
      <trkpt lat="45.48758" lon="3.29254">
        <ele>460.9067</ele>
        <time>2012-10-10T13:40:44Z</time>
      </trkpt>
      <trkpt lat="45.48743" lon="3.29227">
        <ele>460.26297</ele>
        <time>2012-10-10T13:40:48Z</time>
      </trkpt>
      <trkpt lat="45.48729" lon="3.29203">
        <ele>459.3927</ele>
        <time>2012-10-10T13:40:51Z</time>
      </trkpt>
      <trkpt lat="45.48714" lon="3.29179">
        <ele>458.249</ele>
        <time>2012-10-10T13:40:54Z</time>
      </trkpt>
      <trkpt lat="45.487" lon="3.29153">
        <ele>457.28836</ele>
        <time>2012-10-10T13:40:57Z</time>
      </trkpt>
      <trkpt lat="45.48686" lon="3.29128">
        <ele>456.3675</ele>
        <time>2012-10-10T13:41:00Z</time>
      </trkpt>
      <trkpt lat="45.48671" lon="3.29106">
        <ele>455.66806</ele>
        <time>2012-10-10T13:41:03Z</time>
      </trkpt>
      <trkpt lat="45.48656" lon="3.29081">
        <ele>454.71674</ele>
        <time>2012-10-10T13:41:06Z</time>
      </trkpt>
      <trkpt lat="45.48639" lon="3.29051">
        <ele>453.50287</ele>
        <time>2012-10-10T13:41:09Z</time>
      </trkpt>
      <trkpt lat="45.48632" lon="3.29014">
        <ele>452.8158</ele>
        <time>2012-10-10T13:41:12Z</time>
      </trkpt>
      <trkpt lat="45.48629" lon="3.28977">
        <ele>451.965</ele>
        <time>2012-10-10T13:41:15Z</time>
      </trkpt>
      <trkpt lat="45.48626" lon="3.28943">
        <ele>451.067</ele>
        <time>2012-10-10T13:41:18Z</time>
      </trkpt>
      <trkpt lat="45.48623" lon="3.28918">
        <ele>450.6397</ele>
        <time>2012-10-10T13:41:21Z</time>
      </trkpt>
      <trkpt lat="45.48619" lon="3.28891">
        <ele>448.66754</ele>
        <time>2012-10-10T13:41:25Z</time>
      </trkpt>
      <trkpt lat="45.48618" lon="3.28858">
        <ele>448.4162</ele>
        <time>2012-10-10T13:41:29Z</time>
      </trkpt>
      <trkpt lat="45.48615" lon="3.28831">
        <ele>448.96985</ele>
        <time>2012-10-10T13:41:32Z</time>
      </trkpt>
      <trkpt lat="45.48612" lon="3.28802">
        <ele>449.69037</ele>
        <time>2012-10-10T13:41:36Z</time>
      </trkpt>
      <trkpt lat="45.48613" lon="3.28774">
        <ele>451.6037</ele>
        <time>2012-10-10T13:41:41Z</time>
      </trkpt>
      <trkpt lat="45.48611" lon="3.28748">
        <ele>452.7088</ele>
        <time>2012-10-10T13:41:46Z</time>
      </trkpt>
      <trkpt lat="45.48611" lon="3.2872">
        <ele>454.21637</ele>
        <time>2012-10-10T13:41:52Z</time>
      </trkpt>
      <trkpt lat="45.48613" lon="3.2869">
        <ele>456.98166</ele>
        <time>2012-10-10T13:41:59Z</time>
      </trkpt>
      <trkpt lat="45.48611" lon="3.2866">
        <ele>458.58716</ele>
        <time>2012-10-10T13:42:05Z</time>
      </trkpt>
      <trkpt lat="45.48612" lon="3.28632">
        <ele>458.61777</ele>
        <time>2012-10-10T13:42:10Z</time>
      </trkpt>
      <trkpt lat="45.48617" lon="3.28602">
        <ele>459.44165</ele>
        <time>2012-10-10T13:42:15Z</time>
      </trkpt>
      <trkpt lat="45.48616" lon="3.2857">
        <ele>459.83636</ele>
        <time>2012-10-10T13:42:20Z</time>
      </trkpt>
      <trkpt lat="45.48617" lon="3.28542">
        <ele>460.07623</ele>
        <time>2012-10-10T13:42:24Z</time>
      </trkpt>
      <trkpt lat="45.48616" lon="3.28515">
        <ele>458.86465</ele>
        <time>2012-10-10T13:42:28Z</time>
      </trkpt>
      <trkpt lat="45.48618" lon="3.28487">
        <ele>457.84497</ele>
        <time>2012-10-10T13:42:32Z</time>
      </trkpt>
      <trkpt lat="45.4862" lon="3.28452">
        <ele>456.61725</ele>
        <time>2012-10-10T13:42:36Z</time>
      </trkpt>
      <trkpt lat="45.48622" lon="3.28422">
        <ele>455.51093</ele>
        <time>2012-10-10T13:42:39Z</time>
      </trkpt>
      <trkpt lat="45.48623" lon="3.28388">
        <ele>454.71136</ele>
        <time>2012-10-10T13:42:42Z</time>
      </trkpt>
      <trkpt lat="45.48626" lon="3.2835">
        <ele>453.46625</ele>
        <time>2012-10-10T13:42:45Z</time>
      </trkpt>
      <trkpt lat="45.48627" lon="3.28321">
        <ele>452.4912</ele>
        <time>2012-10-10T13:42:47Z</time>
      </trkpt>
      <trkpt lat="45.48632" lon="3.2829">
        <ele>450.7115</ele>
        <time>2012-10-10T13:42:49Z</time>
      </trkpt>
      <trkpt lat="45.48638" lon="3.28256">
        <ele>448.4604</ele>
        <time>2012-10-10T13:42:51Z</time>
      </trkpt>
      <trkpt lat="45.48641" lon="3.2822">
        <ele>445.9379</ele>
        <time>2012-10-10T13:42:53Z</time>
      </trkpt>
      <trkpt lat="45.48644" lon="3.28184">
        <ele>442.98776</ele>
        <time>2012-10-10T13:42:55Z</time>
      </trkpt>
      <trkpt lat="45.48648" lon="3.28145">
        <ele>440.40955</ele>
        <time>2012-10-10T13:42:57Z</time>
      </trkpt>
      <trkpt lat="45.48651" lon="3.28109">
        <ele>438.4843</ele>
        <time>2012-10-10T13:42:59Z</time>
      </trkpt>
      <trkpt lat="45.48653" lon="3.28076">
        <ele>436.9576</ele>
        <time>2012-10-10T13:43:01Z</time>
      </trkpt>
      <trkpt lat="45.48654" lon="3.28049">
        <ele>435.22385</ele>
        <time>2012-10-10T13:43:03Z</time>
      </trkpt>
      <trkpt lat="45.48655" lon="3.28021">
        <ele>433.9736</ele>
        <time>2012-10-10T13:43:05Z</time>
      </trkpt>
      <trkpt lat="45.48655" lon="3.27992">
        <ele>432.47034</ele>
        <time>2012-10-10T13:43:07Z</time>
      </trkpt>
      <trkpt lat="45.48653" lon="3.27963">
        <ele>430.49976</ele>
        <time>2012-10-10T13:43:09Z</time>
      </trkpt>
      <trkpt lat="45.48649" lon="3.27933">
        <ele>429.43506</ele>
        <time>2012-10-10T13:43:11Z</time>
      </trkpt>
      <trkpt lat="45.48641" lon="3.27905">
        <ele>428.72992</ele>
        <time>2012-10-10T13:43:13Z</time>
      </trkpt>
      <trkpt lat="45.48626" lon="3.27882">
        <ele>427.76453</ele>
        <time>2012-10-10T13:43:15Z</time>
      </trkpt>
      <trkpt lat="45.48607" lon="3.27868">
        <ele>426.54022</ele>
        <time>2012-10-10T13:43:17Z</time>
      </trkpt>
      <trkpt lat="45.48585" lon="3.27867">
        <ele>425.70782</ele>
        <time>2012-10-10T13:43:19Z</time>
      </trkpt>
      <trkpt lat="45.48562" lon="3.2787">
        <ele>424.40833</ele>
        <time>2012-10-10T13:43:21Z</time>
      </trkpt>
      <trkpt lat="45.48543" lon="3.27877">
        <ele>422.80862</ele>
        <time>2012-10-10T13:43:23Z</time>
      </trkpt>
      <trkpt lat="45.48517" lon="3.27873">
        <ele>421.1276</ele>
        <time>2012-10-10T13:43:26Z</time>
      </trkpt>
      <trkpt lat="45.485" lon="3.27863">
        <ele>420.0882</ele>
        <time>2012-10-10T13:43:28Z</time>
      </trkpt>
      <trkpt lat="45.48475" lon="3.2785">
        <ele>418.5721</ele>
        <time>2012-10-10T13:43:31Z</time>
      </trkpt>
      <trkpt lat="45.48457" lon="3.27839">
        <ele>417.05075</ele>
        <time>2012-10-10T13:43:33Z</time>
      </trkpt>
      <trkpt lat="45.48437" lon="3.27827">
        <ele>415.18872</ele>
        <time>2012-10-10T13:43:34Z</time>
      </trkpt>
      <trkpt lat="45.48417" lon="3.27817">
        <ele>413.2476</ele>
        <time>2012-10-10T13:43:37Z</time>
      </trkpt>
      <trkpt lat="45.48395" lon="3.27807">
        <ele>411.6682</ele>
        <time>2012-10-10T13:43:39Z</time>
      </trkpt>
      <trkpt lat="45.48373" lon="3.27801">
        <ele>410.1298</ele>
        <time>2012-10-10T13:43:41Z</time>
      </trkpt>
      <trkpt lat="45.48352" lon="3.27792">
        <ele>409.03946</ele>
        <time>2012-10-10T13:43:42Z</time>
      </trkpt>
      <trkpt lat="45.48335" lon="3.27779">
        <ele>408.23865</ele>
        <time>2012-10-10T13:43:44Z</time>
      </trkpt>
      <trkpt lat="45.48313" lon="3.27753">
        <ele>407.68243</ele>
        <time>2012-10-10T13:43:48Z</time>
      </trkpt>
      <trkpt lat="45.48296" lon="3.27735">
        <ele>407.2128</ele>
        <time>2012-10-10T13:43:49Z</time>
      </trkpt>
      <trkpt lat="45.48273" lon="3.27724">
        <ele>406.81738</ele>
        <time>2012-10-10T13:43:52Z</time>
      </trkpt>
      <trkpt lat="45.48251" lon="3.27712">
        <ele>406.3262</ele>
        <time>2012-10-10T13:43:54Z</time>
      </trkpt>
      <trkpt lat="45.48233" lon="3.2769">
        <ele>405.71158</ele>
        <time>2012-10-10T13:43:57Z</time>
      </trkpt>
      <trkpt lat="45.48225" lon="3.27666">
        <ele>404.93976</ele>
        <time>2012-10-10T13:43:59Z</time>
      </trkpt>
      <trkpt lat="45.48232" lon="3.27641">
        <ele>404.39853</ele>
        <time>2012-10-10T13:44:03Z</time>
      </trkpt>
      <trkpt lat="45.48242" lon="3.27618">
        <ele>404.39688</ele>
        <time>2012-10-10T13:44:05Z</time>
      </trkpt>
      <trkpt lat="45.48243" lon="3.2759">
        <ele>405.04608</ele>
        <time>2012-10-10T13:44:08Z</time>
      </trkpt>
      <trkpt lat="45.48228" lon="3.27574">
        <ele>404.72153</ele>
        <time>2012-10-10T13:44:10Z</time>
      </trkpt>
      <trkpt lat="45.48215" lon="3.27554">
        <ele>402.47855</ele>
        <time>2012-10-10T13:44:13Z</time>
      </trkpt>
      <trkpt lat="45.48201" lon="3.27528">
        <ele>399.34457</ele>
        <time>2012-10-10T13:44:16Z</time>
      </trkpt>
      <trkpt lat="45.48178" lon="3.27516">
        <ele>394.04276</ele>
        <time>2012-10-10T13:44:19Z</time>
      </trkpt>
      <trkpt lat="45.48159" lon="3.27503">
        <ele>390.51855</ele>
        <time>2012-10-10T13:44:22Z</time>
      </trkpt>
      <trkpt lat="45.48137" lon="3.27495">
        <ele>387.89758</ele>
        <time>2012-10-10T13:44:26Z</time>
      </trkpt>
      <trkpt lat="45.48119" lon="3.27487">
        <ele>388.09326</ele>
        <time>2012-10-10T13:44:29Z</time>
      </trkpt>
      <trkpt lat="45.48103" lon="3.27474">
        <ele>388.86954</ele>
        <time>2012-10-10T13:44:32Z</time>
      </trkpt>
      <trkpt lat="45.48083" lon="3.27457">
        <ele>387.67828</ele>
        <time>2012-10-10T13:44:35Z</time>
      </trkpt>
      <trkpt lat="45.48068" lon="3.27439">
        <ele>385.95856</ele>
        <time>2012-10-10T13:44:38Z</time>
      </trkpt>
      <trkpt lat="45.48054" lon="3.27422">
        <ele>384.39084</ele>
        <time>2012-10-10T13:44:41Z</time>
      </trkpt>
      <trkpt lat="45.48038" lon="3.27406">
        <ele>383.8154</ele>
        <time>2012-10-10T13:44:44Z</time>
      </trkpt>
      <trkpt lat="45.4802" lon="3.27394">
        <ele>384.25702</ele>
        <time>2012-10-10T13:44:47Z</time>
      </trkpt>
      <trkpt lat="45.48003" lon="3.27385">
        <ele>384.52145</ele>
        <time>2012-10-10T13:44:50Z</time>
      </trkpt>
      <trkpt lat="45.47983" lon="3.27376">
        <ele>385.4252</ele>
        <time>2012-10-10T13:44:53Z</time>
      </trkpt>
      <trkpt lat="45.47963" lon="3.2737">
        <ele>386.22522</ele>
        <time>2012-10-10T13:44:56Z</time>
      </trkpt>
      <trkpt lat="45.47943" lon="3.27365">
        <ele>386.4346</ele>
        <time>2012-10-10T13:44:59Z</time>
      </trkpt>
      <trkpt lat="45.47925" lon="3.27359">
        <ele>386.41824</ele>
        <time>2012-10-10T13:45:02Z</time>
      </trkpt>
      <trkpt lat="45.47909" lon="3.27344">
        <ele>385.66135</ele>
        <time>2012-10-10T13:45:05Z</time>
      </trkpt>
      <trkpt lat="45.47891" lon="3.27327">
        <ele>385.75766</ele>
        <time>2012-10-10T13:45:08Z</time>
      </trkpt>
      <trkpt lat="45.47875" lon="3.27312">
        <ele>385.1389</ele>
        <time>2012-10-10T13:45:11Z</time>
      </trkpt>
      <trkpt lat="45.47858" lon="3.27302">
        <ele>384.56693</ele>
        <time>2012-10-10T13:45:14Z</time>
      </trkpt>
      <trkpt lat="45.4784" lon="3.27295">
        <ele>383.66626</ele>
        <time>2012-10-10T13:45:17Z</time>
      </trkpt>
      <trkpt lat="45.47822" lon="3.27283">
        <ele>383.22845</ele>
        <time>2012-10-10T13:45:20Z</time>
      </trkpt>
      <trkpt lat="45.47805" lon="3.27269">
        <ele>384.21408</ele>
        <time>2012-10-10T13:45:23Z</time>
      </trkpt>
      <trkpt lat="45.47784" lon="3.27253">
        <ele>385.4024</ele>
        <time>2012-10-10T13:45:27Z</time>
      </trkpt>
      <trkpt lat="45.47766" lon="3.27241">
        <ele>385.65466</ele>
        <time>2012-10-10T13:45:30Z</time>
      </trkpt>
      <trkpt lat="45.47745" lon="3.27234">
        <ele>385.75327</ele>
        <time>2012-10-10T13:45:33Z</time>
      </trkpt>
      <trkpt lat="45.47724" lon="3.27227">
        <ele>387.46204</ele>
        <time>2012-10-10T13:45:35Z</time>
      </trkpt>
      <trkpt lat="45.47706" lon="3.2722">
        <ele>388.0517</ele>
        <time>2012-10-10T13:45:39Z</time>
      </trkpt>
      <trkpt lat="45.47682" lon="3.27218">
        <ele>388.06763</ele>
        <time>2012-10-10T13:45:42Z</time>
      </trkpt>
      <trkpt lat="45.47663" lon="3.27218">
        <ele>387.1838</ele>
        <time>2012-10-10T13:45:45Z</time>
      </trkpt>
      <trkpt lat="45.47643" lon="3.2722">
        <ele>386.7468</ele>
        <time>2012-10-10T13:45:49Z</time>
      </trkpt>
      <trkpt lat="45.47624" lon="3.27217">
        <ele>386.06088</ele>
        <time>2012-10-10T13:45:52Z</time>
      </trkpt>
      <trkpt lat="45.47605" lon="3.27213">
        <ele>384.87152</ele>
        <time>2012-10-10T13:45:55Z</time>
      </trkpt>
      <trkpt lat="45.47585" lon="3.27212">
        <ele>384.74475</ele>
        <time>2012-10-10T13:45:58Z</time>
      </trkpt>
      <trkpt lat="45.47565" lon="3.27209">
        <ele>385.1262</ele>
        <time>2012-10-10T13:46:02Z</time>
      </trkpt>
      <trkpt lat="45.47541" lon="3.27206">
        <ele>385.98657</ele>
        <time>2012-10-10T13:46:05Z</time>
      </trkpt>
      <trkpt lat="45.4752" lon="3.27198">
        <ele>386.67297</ele>
        <time>2012-10-10T13:46:08Z</time>
      </trkpt>
      <trkpt lat="45.47496" lon="3.27195">
        <ele>387.0765</ele>
        <time>2012-10-10T13:46:12Z</time>
      </trkpt>
      <trkpt lat="45.47477" lon="3.27195">
        <ele>389.09714</ele>
        <time>2012-10-10T13:46:16Z</time>
      </trkpt>
      <trkpt lat="45.47458" lon="3.27189">
        <ele>389.9158</ele>
        <time>2012-10-10T13:46:20Z</time>
      </trkpt>
      <trkpt lat="45.47437" lon="3.27191">
        <ele>390.57593</ele>
        <time>2012-10-10T13:46:22Z</time>
      </trkpt>
      <trkpt lat="45.47416" lon="3.27188">
        <ele>390.32004</ele>
        <time>2012-10-10T13:46:26Z</time>
      </trkpt>
      <trkpt lat="45.47395" lon="3.27189">
        <ele>389.82928</ele>
        <time>2012-10-10T13:46:29Z</time>
      </trkpt>
      <trkpt lat="45.47376" lon="3.27197">
        <ele>389.26132</ele>
        <time>2012-10-10T13:46:32Z</time>
      </trkpt>
      <trkpt lat="45.47357" lon="3.27201">
        <ele>389.35452</ele>
        <time>2012-10-10T13:46:35Z</time>
      </trkpt>
      <trkpt lat="45.47337" lon="3.27211">
        <ele>389.59216</ele>
        <time>2012-10-10T13:46:39Z</time>
      </trkpt>
      <trkpt lat="45.47315" lon="3.27222">
        <ele>389.08142</ele>
        <time>2012-10-10T13:46:43Z</time>
      </trkpt>
      <trkpt lat="45.47292" lon="3.27235">
        <ele>389.87643</ele>
        <time>2012-10-10T13:46:47Z</time>
      </trkpt>
      <trkpt lat="45.47274" lon="3.27243">
        <ele>390.06558</ele>
        <time>2012-10-10T13:46:50Z</time>
      </trkpt>
      <trkpt lat="45.47256" lon="3.27255">
        <ele>389.97662</ele>
        <time>2012-10-10T13:46:53Z</time>
      </trkpt>
      <trkpt lat="45.47235" lon="3.27268">
        <ele>389.55942</ele>
        <time>2012-10-10T13:46:56Z</time>
      </trkpt>
      <trkpt lat="45.47216" lon="3.27284">
        <ele>389.48495</ele>
        <time>2012-10-10T13:46:59Z</time>
      </trkpt>
      <trkpt lat="45.47197" lon="3.27298">
        <ele>388.91916</ele>
        <time>2012-10-10T13:47:02Z</time>
      </trkpt>
      <trkpt lat="45.47179" lon="3.27311">
        <ele>387.8247</ele>
        <time>2012-10-10T13:47:06Z</time>
      </trkpt>
      <trkpt lat="45.47162" lon="3.27324">
        <ele>388.04376</ele>
        <time>2012-10-10T13:47:08Z</time>
      </trkpt>
      <trkpt lat="45.47141" lon="3.27336">
        <ele>389.09555</ele>
        <time>2012-10-10T13:47:12Z</time>
      </trkpt>
      <trkpt lat="45.47123" lon="3.27351">
        <ele>389.1455</ele>
        <time>2012-10-10T13:47:15Z</time>
      </trkpt>
      <trkpt lat="45.47101" lon="3.27364">
        <ele>388.5494</ele>
        <time>2012-10-10T13:47:17Z</time>
      </trkpt>
      <trkpt lat="45.47087" lon="3.27382">
        <ele>388.47916</ele>
        <time>2012-10-10T13:47:21Z</time>
      </trkpt>
      <trkpt lat="45.47066" lon="3.27396">
        <ele>388.5761</ele>
        <time>2012-10-10T13:47:24Z</time>
      </trkpt>
      <trkpt lat="45.47048" lon="3.27409">
        <ele>387.26074</ele>
        <time>2012-10-10T13:47:27Z</time>
      </trkpt>
      <trkpt lat="45.47029" lon="3.2742">
        <ele>386.08865</ele>
        <time>2012-10-10T13:47:30Z</time>
      </trkpt>
      <trkpt lat="45.47006" lon="3.27432">
        <ele>384.93008</ele>
        <time>2012-10-10T13:47:33Z</time>
      </trkpt>
      <trkpt lat="45.46986" lon="3.27438">
        <ele>385.98978</ele>
        <time>2012-10-10T13:47:36Z</time>
      </trkpt>
      <trkpt lat="45.46967" lon="3.27451">
        <ele>387.34464</ele>
        <time>2012-10-10T13:47:39Z</time>
      </trkpt>
      <trkpt lat="45.46952" lon="3.27473">
        <ele>386.985</ele>
        <time>2012-10-10T13:47:42Z</time>
      </trkpt>
      <trkpt lat="45.46936" lon="3.27494">
        <ele>385.7676</ele>
        <time>2012-10-10T13:47:45Z</time>
      </trkpt>
      <trkpt lat="45.46921" lon="3.27516">
        <ele>385.25873</ele>
        <time>2012-10-10T13:47:48Z</time>
      </trkpt>
      <trkpt lat="45.46908" lon="3.27542">
        <ele>385.41278</ele>
        <time>2012-10-10T13:47:51Z</time>
      </trkpt>
      <trkpt lat="45.46896" lon="3.27566">
        <ele>387.44498</ele>
        <time>2012-10-10T13:47:54Z</time>
      </trkpt>
      <trkpt lat="45.46886" lon="3.2759">
        <ele>389.81793</ele>
        <time>2012-10-10T13:47:57Z</time>
      </trkpt>
      <trkpt lat="45.46877" lon="3.27618">
        <ele>391.38776</ele>
        <time>2012-10-10T13:48:00Z</time>
      </trkpt>
      <trkpt lat="45.46869" lon="3.27647">
        <ele>391.84067</ele>
        <time>2012-10-10T13:48:03Z</time>
      </trkpt>
      <trkpt lat="45.46863" lon="3.27676">
        <ele>392.61453</ele>
        <time>2012-10-10T13:48:06Z</time>
      </trkpt>
      <trkpt lat="45.46859" lon="3.27706">
        <ele>393.54572</ele>
        <time>2012-10-10T13:48:09Z</time>
      </trkpt>
      <trkpt lat="45.4686" lon="3.27732">
        <ele>394.60263</ele>
        <time>2012-10-10T13:48:12Z</time>
      </trkpt>
      <trkpt lat="45.46861" lon="3.27762">
        <ele>395.07663</ele>
        <time>2012-10-10T13:48:15Z</time>
      </trkpt>
      <trkpt lat="45.46865" lon="3.27792">
        <ele>395.74533</ele>
        <time>2012-10-10T13:48:18Z</time>
      </trkpt>
      <trkpt lat="45.46869" lon="3.27821">
        <ele>395.30402</ele>
        <time>2012-10-10T13:48:21Z</time>
      </trkpt>
      <trkpt lat="45.46871" lon="3.27853">
        <ele>393.92722</ele>
        <time>2012-10-10T13:48:24Z</time>
      </trkpt>
      <trkpt lat="45.46875" lon="3.27883">
        <ele>393.1667</ele>
        <time>2012-10-10T13:48:27Z</time>
      </trkpt>
      <trkpt lat="45.46876" lon="3.2791">
        <ele>392.8927</ele>
        <time>2012-10-10T13:48:30Z</time>
      </trkpt>
      <trkpt lat="45.4688" lon="3.27941">
        <ele>391.7886</ele>
        <time>2012-10-10T13:48:34Z</time>
      </trkpt>
      <trkpt lat="45.46881" lon="3.27971">
        <ele>391.0475</ele>
        <time>2012-10-10T13:48:38Z</time>
      </trkpt>
      <trkpt lat="45.46895" lon="3.27992">
        <ele>392.25034</ele>
        <time>2012-10-10T13:48:44Z</time>
      </trkpt>
      <trkpt lat="45.46913" lon="3.27979">
        <ele>390.6024</ele>
        <time>2012-10-10T13:48:50Z</time>
      </trkpt>
      <trkpt lat="45.46925" lon="3.27955">
        <ele>390.40414</ele>
        <time>2012-10-10T13:48:56Z</time>
      </trkpt>
      <trkpt lat="45.46939" lon="3.27935">
        <ele>392.77805</ele>
        <time>2012-10-10T13:49:04Z</time>
      </trkpt>
      <trkpt lat="45.4693" lon="3.27965">
        <ele>395.70624</ele>
        <time>2012-10-10T13:49:14Z</time>
      </trkpt>
      <trkpt lat="45.46915" lon="3.27991">
        <ele>394.4331</ele>
        <time>2012-10-10T13:49:18Z</time>
      </trkpt>
      <trkpt lat="45.46901" lon="3.28011">
        <ele>393.6145</ele>
        <time>2012-10-10T13:49:21Z</time>
      </trkpt>
      <trkpt lat="45.46884" lon="3.28027">
        <ele>393.58633</ele>
        <time>2012-10-10T13:49:24Z</time>
      </trkpt>
      <trkpt lat="45.46863" lon="3.28045">
        <ele>394.58502</ele>
        <time>2012-10-10T13:49:28Z</time>
      </trkpt>
      <trkpt lat="45.46846" lon="3.28058">
        <ele>394.71295</ele>
        <time>2012-10-10T13:49:31Z</time>
      </trkpt>
      <trkpt lat="45.4683" lon="3.28074">
        <ele>394.87943</ele>
        <time>2012-10-10T13:49:34Z</time>
      </trkpt>
      <trkpt lat="45.46815" lon="3.28091">
        <ele>394.3137</ele>
        <time>2012-10-10T13:49:37Z</time>
      </trkpt>
      <trkpt lat="45.46798" lon="3.28104">
        <ele>393.37036</ele>
        <time>2012-10-10T13:49:40Z</time>
      </trkpt>
      <trkpt lat="45.4678" lon="3.2812">
        <ele>392.72238</ele>
        <time>2012-10-10T13:49:43Z</time>
      </trkpt>
      <trkpt lat="45.4676" lon="3.28137">
        <ele>392.3459</ele>
        <time>2012-10-10T13:49:46Z</time>
      </trkpt>
      <trkpt lat="45.46736" lon="3.28147">
        <ele>391.68707</ele>
        <time>2012-10-10T13:49:49Z</time>
      </trkpt>
      <trkpt lat="45.46711" lon="3.2815">
        <ele>391.0435</ele>
        <time>2012-10-10T13:49:52Z</time>
      </trkpt>
      <trkpt lat="45.46685" lon="3.28149">
        <ele>390.96106</ele>
        <time>2012-10-10T13:49:55Z</time>
      </trkpt>
      <trkpt lat="45.46667" lon="3.28147">
        <ele>391.03827</ele>
        <time>2012-10-10T13:49:57Z</time>
      </trkpt>
      <trkpt lat="45.46648" lon="3.28147">
        <ele>391.2817</ele>
        <time>2012-10-10T13:49:59Z</time>
      </trkpt>
      <trkpt lat="45.4663" lon="3.28143">
        <ele>391.25616</ele>
        <time>2012-10-10T13:50:01Z</time>
      </trkpt>
      <trkpt lat="45.4661" lon="3.28142">
        <ele>390.72302</ele>
        <time>2012-10-10T13:50:03Z</time>
      </trkpt>
      <trkpt lat="45.46583" lon="3.2814">
        <ele>390.28366</ele>
        <time>2012-10-10T13:50:06Z</time>
      </trkpt>
      <trkpt lat="45.46557" lon="3.28137">
        <ele>390.6358</ele>
        <time>2012-10-10T13:50:09Z</time>
      </trkpt>
      <trkpt lat="45.46533" lon="3.28135">
        <ele>390.89844</ele>
        <time>2012-10-10T13:50:12Z</time>
      </trkpt>
      <trkpt lat="45.46509" lon="3.28131">
        <ele>390.74985</ele>
        <time>2012-10-10T13:50:15Z</time>
      </trkpt>
      <trkpt lat="45.46485" lon="3.28128">
        <ele>390.48093</ele>
        <time>2012-10-10T13:50:18Z</time>
      </trkpt>
      <trkpt lat="45.46461" lon="3.28127">
        <ele>389.75653</ele>
        <time>2012-10-10T13:50:21Z</time>
      </trkpt>
      <trkpt lat="45.46436" lon="3.28126">
        <ele>389.73685</ele>
        <time>2012-10-10T13:50:24Z</time>
      </trkpt>
      <trkpt lat="45.46414" lon="3.28124">
        <ele>389.83325</ele>
        <time>2012-10-10T13:50:26Z</time>
      </trkpt>
      <trkpt lat="45.46391" lon="3.28122">
        <ele>389.7864</ele>
        <time>2012-10-10T13:50:30Z</time>
      </trkpt>
      <trkpt lat="45.46369" lon="3.28122">
        <ele>389.6276</ele>
        <time>2012-10-10T13:50:33Z</time>
      </trkpt>
      <trkpt lat="45.46348" lon="3.2812">
        <ele>389.94968</ele>
        <time>2012-10-10T13:50:36Z</time>
      </trkpt>
      <trkpt lat="45.46329" lon="3.28119">
        <ele>390.0996</ele>
        <time>2012-10-10T13:50:39Z</time>
      </trkpt>
      <trkpt lat="45.4631" lon="3.28116">
        <ele>390.06128</ele>
        <time>2012-10-10T13:50:42Z</time>
      </trkpt>
      <trkpt lat="45.46288" lon="3.28115">
        <ele>390.20798</ele>
        <time>2012-10-10T13:50:45Z</time>
      </trkpt>
      <trkpt lat="45.46269" lon="3.28113">
        <ele>390.33328</ele>
        <time>2012-10-10T13:50:50Z</time>
      </trkpt>
      <trkpt lat="45.46258" lon="3.28138">
        <ele>390.77878</ele>
        <time>2012-10-10T13:50:56Z</time>
      </trkpt>
      <trkpt lat="45.46257" lon="3.28169">
        <ele>391.0182</ele>
        <time>2012-10-10T13:51:00Z</time>
      </trkpt>
      <trkpt lat="45.46257" lon="3.28195">
        <ele>391.0332</ele>
        <time>2012-10-10T13:51:03Z</time>
      </trkpt>
      <trkpt lat="45.46257" lon="3.28221">
        <ele>391.10513</ele>
        <time>2012-10-10T13:51:06Z</time>
      </trkpt>
      <trkpt lat="45.46256" lon="3.28248">
        <ele>391.09644</ele>
        <time>2012-10-10T13:51:09Z</time>
      </trkpt>
      <trkpt lat="45.46256" lon="3.28277">
        <ele>391.1287</ele>
        <time>2012-10-10T13:51:12Z</time>
      </trkpt>
      <trkpt lat="45.46256" lon="3.28305">
        <ele>391.31418</ele>
        <time>2012-10-10T13:51:14Z</time>
      </trkpt>
      <trkpt lat="45.46255" lon="3.28331">
        <ele>391.20337</ele>
        <time>2012-10-10T13:51:18Z</time>
      </trkpt>
      <trkpt lat="45.46254" lon="3.28359">
        <ele>391.0535</ele>
        <time>2012-10-10T13:51:21Z</time>
      </trkpt>
      <trkpt lat="45.46253" lon="3.28387">
        <ele>391.04965</ele>
        <time>2012-10-10T13:51:24Z</time>
      </trkpt>
      <trkpt lat="45.46252" lon="3.28415">
        <ele>391.24957</ele>
        <time>2012-10-10T13:51:27Z</time>
      </trkpt>
      <trkpt lat="45.46251" lon="3.28442">
        <ele>391.50735</ele>
        <time>2012-10-10T13:51:30Z</time>
      </trkpt>
      <trkpt lat="45.46251" lon="3.2847">
        <ele>391.79736</ele>
        <time>2012-10-10T13:51:33Z</time>
      </trkpt>
      <trkpt lat="45.46251" lon="3.28498">
        <ele>391.90723</ele>
        <time>2012-10-10T13:51:36Z</time>
      </trkpt>
      <trkpt lat="45.4625" lon="3.28526">
        <ele>391.88483</ele>
        <time>2012-10-10T13:51:39Z</time>
      </trkpt>
      <trkpt lat="45.4625" lon="3.28555">
        <ele>392.0191</ele>
        <time>2012-10-10T13:51:42Z</time>
      </trkpt>
      <trkpt lat="45.46249" lon="3.28585">
        <ele>392.05234</ele>
        <time>2012-10-10T13:51:45Z</time>
      </trkpt>
      <trkpt lat="45.46248" lon="3.28614">
        <ele>392.26947</ele>
        <time>2012-10-10T13:51:48Z</time>
      </trkpt>
      <trkpt lat="45.46248" lon="3.28644">
        <ele>392.29858</ele>
        <time>2012-10-10T13:51:51Z</time>
      </trkpt>
      <trkpt lat="45.46248" lon="3.28673">
        <ele>392.6296</ele>
        <time>2012-10-10T13:51:54Z</time>
      </trkpt>
      <trkpt lat="45.46248" lon="3.28703">
        <ele>392.65518</ele>
        <time>2012-10-10T13:51:57Z</time>
      </trkpt>
      <trkpt lat="45.46247" lon="3.28733">
        <ele>392.35504</ele>
        <time>2012-10-10T13:52:00Z</time>
      </trkpt>
      <trkpt lat="45.46247" lon="3.28762">
        <ele>392.0175</ele>
        <time>2012-10-10T13:52:03Z</time>
      </trkpt>
      <trkpt lat="45.46247" lon="3.28791">
        <ele>391.88916</ele>
        <time>2012-10-10T13:52:06Z</time>
      </trkpt>
      <trkpt lat="45.46246" lon="3.28821">
        <ele>391.75687</ele>
        <time>2012-10-10T13:52:09Z</time>
      </trkpt>
      <trkpt lat="45.46245" lon="3.28851">
        <ele>391.80264</ele>
        <time>2012-10-10T13:52:12Z</time>
      </trkpt>
      <trkpt lat="45.46244" lon="3.28881">
        <ele>391.22507</ele>
        <time>2012-10-10T13:52:15Z</time>
      </trkpt>
      <trkpt lat="45.46243" lon="3.28908">
        <ele>391.30173</ele>
        <time>2012-10-10T13:52:18Z</time>
      </trkpt>
      <trkpt lat="45.46243" lon="3.28937">
        <ele>391.63562</ele>
        <time>2012-10-10T13:52:21Z</time>
      </trkpt>
      <trkpt lat="45.46241" lon="3.2897">
        <ele>391.59906</ele>
        <time>2012-10-10T13:52:25Z</time>
      </trkpt>
      <trkpt lat="45.46239" lon="3.29">
        <ele>392.19647</ele>
        <time>2012-10-10T13:52:29Z</time>
      </trkpt>
      <trkpt lat="45.46231" lon="3.29023">
        <ele>393.5403</ele>
        <time>2012-10-10T13:52:34Z</time>
      </trkpt>
      <trkpt lat="45.46211" lon="3.2902">
        <ele>394.3107</ele>
        <time>2012-10-10T13:52:38Z</time>
      </trkpt>
      <trkpt lat="45.46189" lon="3.29021">
        <ele>394.1939</ele>
        <time>2012-10-10T13:52:42Z</time>
      </trkpt>
      <trkpt lat="45.46167" lon="3.2902">
        <ele>394.2886</ele>
        <time>2012-10-10T13:52:46Z</time>
      </trkpt>
      <trkpt lat="45.46146" lon="3.29022">
        <ele>393.87207</ele>
        <time>2012-10-10T13:52:50Z</time>
      </trkpt>
      <trkpt lat="45.46124" lon="3.29023">
        <ele>394.54108</ele>
        <time>2012-10-10T13:52:54Z</time>
      </trkpt>
      <trkpt lat="45.46103" lon="3.29023">
        <ele>394.44415</ele>
        <time>2012-10-10T13:52:58Z</time>
      </trkpt>
      <trkpt lat="45.46081" lon="3.29024">
        <ele>394.47092</ele>
        <time>2012-10-10T13:53:02Z</time>
      </trkpt>
      <trkpt lat="45.46061" lon="3.29024">
        <ele>393.9696</ele>
        <time>2012-10-10T13:53:06Z</time>
      </trkpt>
      <trkpt lat="45.46041" lon="3.29027">
        <ele>394.35355</ele>
        <time>2012-10-10T13:53:11Z</time>
      </trkpt>
      <trkpt lat="45.46023" lon="3.29031">
        <ele>395.09183</ele>
        <time>2012-10-10T13:53:16Z</time>
      </trkpt>
      <trkpt lat="45.46002" lon="3.29037">
        <ele>395.41742</ele>
        <time>2012-10-10T13:53:21Z</time>
      </trkpt>
      <trkpt lat="45.4598" lon="3.29042">
        <ele>397.0781</ele>
        <time>2012-10-10T13:53:26Z</time>
      </trkpt>
      <trkpt lat="45.45963" lon="3.29048">
        <ele>397.61914</ele>
        <time>2012-10-10T13:53:30Z</time>
      </trkpt>
      <trkpt lat="45.45945" lon="3.29053">
        <ele>398.2001</ele>
        <time>2012-10-10T13:53:34Z</time>
      </trkpt>
      <trkpt lat="45.45927" lon="3.2906">
        <ele>399.49057</ele>
        <time>2012-10-10T13:53:38Z</time>
      </trkpt>
      <trkpt lat="45.45905" lon="3.29064">
        <ele>400.244</ele>
        <time>2012-10-10T13:53:43Z</time>
      </trkpt>
      <trkpt lat="45.45885" lon="3.29067">
        <ele>400.08096</ele>
        <time>2012-10-10T13:53:48Z</time>
      </trkpt>
      <trkpt lat="45.45867" lon="3.29073">
        <ele>400.68454</ele>
        <time>2012-10-10T13:53:54Z</time>
      </trkpt>
      <trkpt lat="45.45848" lon="3.29079">
        <ele>402.42657</ele>
        <time>2012-10-10T13:54:00Z</time>
      </trkpt>
      <trkpt lat="45.45831" lon="3.2909">
        <ele>403.66583</ele>
        <time>2012-10-10T13:54:06Z</time>
      </trkpt>
      <trkpt lat="45.45815" lon="3.29106">
        <ele>405.26068</ele>
        <time>2012-10-10T13:54:14Z</time>
      </trkpt>
      <trkpt lat="45.45798" lon="3.29123">
        <ele>407.47983</ele>
        <time>2012-10-10T13:54:22Z</time>
      </trkpt>
      <trkpt lat="45.45782" lon="3.29141">
        <ele>409.01706</ele>
        <time>2012-10-10T13:54:30Z</time>
      </trkpt>
      <trkpt lat="45.45769" lon="3.29159">
        <ele>411.5983</ele>
        <time>2012-10-10T13:54:37Z</time>
      </trkpt>
      <trkpt lat="45.45756" lon="3.29179">
        <ele>414.3826</ele>
        <time>2012-10-10T13:54:45Z</time>
      </trkpt>
      <trkpt lat="45.45743" lon="3.29202">
        <ele>417.1991</ele>
        <time>2012-10-10T13:54:53Z</time>
      </trkpt>
      <trkpt lat="45.45728" lon="3.29219">
        <ele>417.78064</ele>
        <time>2012-10-10T13:55:00Z</time>
      </trkpt>
      <trkpt lat="45.45711" lon="3.29237">
        <ele>419.23117</ele>
        <time>2012-10-10T13:55:08Z</time>
      </trkpt>
      <trkpt lat="45.45693" lon="3.29241">
        <ele>420.22217</ele>
        <time>2012-10-10T13:55:15Z</time>
      </trkpt>
      <trkpt lat="45.45673" lon="3.29237">
        <ele>422.00446</ele>
        <time>2012-10-10T13:55:22Z</time>
      </trkpt>
      <trkpt lat="45.45655" lon="3.29233">
        <ele>422.21732</ele>
        <time>2012-10-10T13:55:28Z</time>
      </trkpt>
      <trkpt lat="45.45636" lon="3.29229">
        <ele>423.61145</ele>
        <time>2012-10-10T13:55:35Z</time>
      </trkpt>
      <trkpt lat="45.45616" lon="3.29237">
        <ele>425.6898</ele>
        <time>2012-10-10T13:55:42Z</time>
      </trkpt>
      <trkpt lat="45.45597" lon="3.29245">
        <ele>426.8763</ele>
        <time>2012-10-10T13:55:49Z</time>
      </trkpt>
      <trkpt lat="45.45577" lon="3.29251">
        <ele>428.73218</ele>
        <time>2012-10-10T13:55:56Z</time>
      </trkpt>
      <trkpt lat="45.45557" lon="3.29256">
        <ele>428.8013</ele>
        <time>2012-10-10T13:56:03Z</time>
      </trkpt>
      <trkpt lat="45.4554" lon="3.29262">
        <ele>429.46182</ele>
        <time>2012-10-10T13:56:09Z</time>
      </trkpt>
      <trkpt lat="45.45519" lon="3.29268">
        <ele>430.70328</ele>
        <time>2012-10-10T13:56:16Z</time>
      </trkpt>
      <trkpt lat="45.45498" lon="3.29273">
        <ele>432.09897</ele>
        <time>2012-10-10T13:56:22Z</time>
      </trkpt>
      <trkpt lat="45.45478" lon="3.29277">
        <ele>433.46756</ele>
        <time>2012-10-10T13:56:28Z</time>
      </trkpt>
      <trkpt lat="45.4546" lon="3.29283">
        <ele>434.47943</ele>
        <time>2012-10-10T13:56:33Z</time>
      </trkpt>
      <trkpt lat="45.45441" lon="3.29287">
        <ele>435.71487</ele>
        <time>2012-10-10T13:56:38Z</time>
      </trkpt>
      <trkpt lat="45.45422" lon="3.29291">
        <ele>436.8811</ele>
        <time>2012-10-10T13:56:43Z</time>
      </trkpt>
      <trkpt lat="45.45401" lon="3.29298">
        <ele>436.6643</ele>
        <time>2012-10-10T13:56:48Z</time>
      </trkpt>
      <trkpt lat="45.45382" lon="3.29302">
        <ele>436.31985</ele>
        <time>2012-10-10T13:56:52Z</time>
      </trkpt>
      <trkpt lat="45.45363" lon="3.29307">
        <ele>436.34564</ele>
        <time>2012-10-10T13:56:56Z</time>
      </trkpt>
      <trkpt lat="45.45342" lon="3.29313">
        <ele>436.6831</ele>
        <time>2012-10-10T13:57:00Z</time>
      </trkpt>
      <trkpt lat="45.45323" lon="3.29318">
        <ele>436.85236</ele>
        <time>2012-10-10T13:57:04Z</time>
      </trkpt>
      <trkpt lat="45.45311" lon="3.29294">
        <ele>436.35748</ele>
        <time>2012-10-10T13:57:09Z</time>
      </trkpt>
      <trkpt lat="45.45309" lon="3.29266">
        <ele>435.8548</ele>
        <time>2012-10-10T13:57:13Z</time>
      </trkpt>
      <trkpt lat="45.45304" lon="3.29239">
        <ele>434.96295</ele>
        <time>2012-10-10T13:57:17Z</time>
      </trkpt>
      <trkpt lat="45.45299" lon="3.29211">
        <ele>434.83075</ele>
        <time>2012-10-10T13:57:21Z</time>
      </trkpt>
      <trkpt lat="45.45293" lon="3.29182">
        <ele>435.57996</ele>
        <time>2012-10-10T13:57:25Z</time>
      </trkpt>
      <trkpt lat="45.45287" lon="3.29153">
        <ele>436.3248</ele>
        <time>2012-10-10T13:57:29Z</time>
      </trkpt>
      <trkpt lat="45.4528" lon="3.29126">
        <ele>437.59525</ele>
        <time>2012-10-10T13:57:33Z</time>
      </trkpt>
      <trkpt lat="45.45274" lon="3.29098">
        <ele>437.9484</ele>
        <time>2012-10-10T13:57:37Z</time>
      </trkpt>
      <trkpt lat="45.45269" lon="3.29069">
        <ele>438.94333</ele>
        <time>2012-10-10T13:57:41Z</time>
      </trkpt>
      <trkpt lat="45.45264" lon="3.29041">
        <ele>440.8527</ele>
        <time>2012-10-10T13:57:45Z</time>
      </trkpt>
      <trkpt lat="45.45258" lon="3.29013">
        <ele>442.34235</ele>
        <time>2012-10-10T13:57:49Z</time>
      </trkpt>
      <trkpt lat="45.45252" lon="3.28987">
        <ele>443.23087</ele>
        <time>2012-10-10T13:57:53Z</time>
      </trkpt>
      <trkpt lat="45.45246" lon="3.2896">
        <ele>443.47958</ele>
        <time>2012-10-10T13:57:57Z</time>
      </trkpt>
      <trkpt lat="45.4524" lon="3.28932">
        <ele>443.4626</ele>
        <time>2012-10-10T13:58:01Z</time>
      </trkpt>
      <trkpt lat="45.45234" lon="3.28907">
        <ele>443.21307</ele>
        <time>2012-10-10T13:58:05Z</time>
      </trkpt>
      <trkpt lat="45.45229" lon="3.28878">
        <ele>443.2087</ele>
        <time>2012-10-10T13:58:09Z</time>
      </trkpt>
      <trkpt lat="45.45224" lon="3.28851">
        <ele>442.9097</ele>
        <time>2012-10-10T13:58:13Z</time>
      </trkpt>
      <trkpt lat="45.45219" lon="3.28824">
        <ele>443.11588</ele>
        <time>2012-10-10T13:58:17Z</time>
      </trkpt>
      <trkpt lat="45.45211" lon="3.28797">
        <ele>443.42798</ele>
        <time>2012-10-10T13:58:21Z</time>
      </trkpt>
      <trkpt lat="45.45198" lon="3.28779">
        <ele>443.97476</ele>
        <time>2012-10-10T13:58:25Z</time>
      </trkpt>
      <trkpt lat="45.45178" lon="3.28781">
        <ele>444.22122</ele>
        <time>2012-10-10T13:58:29Z</time>
      </trkpt>
      <trkpt lat="45.45158" lon="3.28786">
        <ele>444.48007</ele>
        <time>2012-10-10T13:58:33Z</time>
      </trkpt>
      <trkpt lat="45.45136" lon="3.28788">
        <ele>444.49945</ele>
        <time>2012-10-10T13:58:37Z</time>
      </trkpt>
      <trkpt lat="45.45117" lon="3.28794">
        <ele>444.69855</ele>
        <time>2012-10-10T13:58:41Z</time>
      </trkpt>
      <trkpt lat="45.45096" lon="3.28796">
        <ele>443.91428</ele>
        <time>2012-10-10T13:58:45Z</time>
      </trkpt>
      <trkpt lat="45.45076" lon="3.288">
        <ele>443.80365</ele>
        <time>2012-10-10T13:58:49Z</time>
      </trkpt>
      <trkpt lat="45.45057" lon="3.28806">
        <ele>444.36746</ele>
        <time>2012-10-10T13:58:53Z</time>
      </trkpt>
      <trkpt lat="45.45037" lon="3.28808">
        <ele>445.65485</ele>
        <time>2012-10-10T13:58:57Z</time>
      </trkpt>
      <trkpt lat="45.45016" lon="3.2881">
        <ele>447.24304</ele>
        <time>2012-10-10T13:59:01Z</time>
      </trkpt>
      <trkpt lat="45.44993" lon="3.28813">
        <ele>447.1647</ele>
        <time>2012-10-10T13:59:05Z</time>
      </trkpt>
      <trkpt lat="45.44975" lon="3.28816">
        <ele>447.3727</ele>
        <time>2012-10-10T13:59:09Z</time>
      </trkpt>
      <trkpt lat="45.44954" lon="3.28816">
        <ele>447.2616</ele>
        <time>2012-10-10T13:59:13Z</time>
      </trkpt>
      <trkpt lat="45.44934" lon="3.28816">
        <ele>447.88464</ele>
        <time>2012-10-10T13:59:17Z</time>
      </trkpt>
      <trkpt lat="45.44915" lon="3.28816">
        <ele>448.8669</ele>
        <time>2012-10-10T13:59:21Z</time>
      </trkpt>
      <trkpt lat="45.44896" lon="3.28815">
        <ele>449.63202</ele>
        <time>2012-10-10T13:59:25Z</time>
      </trkpt>
      <trkpt lat="45.44876" lon="3.28812">
        <ele>450.4909</ele>
        <time>2012-10-10T13:59:29Z</time>
      </trkpt>
      <trkpt lat="45.44856" lon="3.28813">
        <ele>451.82687</ele>
        <time>2012-10-10T13:59:34Z</time>
      </trkpt>
      <trkpt lat="45.4484" lon="3.28824">
        <ele>454.48184</ele>
        <time>2012-10-10T13:59:41Z</time>
      </trkpt>
      <trkpt lat="45.44829" lon="3.28804">
        <ele>454.80835</ele>
        <time>2012-10-10T14:01:07Z</time>
      </trkpt>
      <trkpt lat="45.44822" lon="3.28776">
        <ele>453.66544</ele>
        <time>2012-10-10T14:01:11Z</time>
      </trkpt>
      <trkpt lat="45.44814" lon="3.28749">
        <ele>451.4078</ele>
        <time>2012-10-10T14:01:14Z</time>
      </trkpt>
      <trkpt lat="45.44804" lon="3.2872">
        <ele>449.08505</ele>
        <time>2012-10-10T14:01:17Z</time>
      </trkpt>
      <trkpt lat="45.44788" lon="3.28695">
        <ele>446.56766</ele>
        <time>2012-10-10T14:01:20Z</time>
      </trkpt>
      <trkpt lat="45.44768" lon="3.28676">
        <ele>444.7353</ele>
        <time>2012-10-10T14:01:23Z</time>
      </trkpt>
      <trkpt lat="45.44742" lon="3.28671">
        <ele>443.83728</ele>
        <time>2012-10-10T14:01:26Z</time>
      </trkpt>
      <trkpt lat="45.44715" lon="3.28668">
        <ele>443.16467</ele>
        <time>2012-10-10T14:01:29Z</time>
      </trkpt>
      <trkpt lat="45.44696" lon="3.2867">
        <ele>442.42157</ele>
        <time>2012-10-10T14:01:31Z</time>
      </trkpt>
      <trkpt lat="45.44676" lon="3.28671">
        <ele>441.90356</ele>
        <time>2012-10-10T14:01:33Z</time>
      </trkpt>
      <trkpt lat="45.44658" lon="3.28662">
        <ele>440.81845</ele>
        <time>2012-10-10T14:01:35Z</time>
      </trkpt>
      <trkpt lat="45.4464" lon="3.28633">
        <ele>439.16925</ele>
        <time>2012-10-10T14:01:38Z</time>
      </trkpt>
      <trkpt lat="45.44625" lon="3.28606">
        <ele>439.80627</ele>
        <time>2012-10-10T14:01:41Z</time>
      </trkpt>
      <trkpt lat="45.44609" lon="3.28582">
        <ele>440.74222</ele>
        <time>2012-10-10T14:01:44Z</time>
      </trkpt>
      <trkpt lat="45.44588" lon="3.28569">
        <ele>441.74957</ele>
        <time>2012-10-10T14:01:47Z</time>
      </trkpt>
      <trkpt lat="45.44572" lon="3.28555">
        <ele>441.03082</ele>
        <time>2012-10-10T14:01:50Z</time>
      </trkpt>
      <trkpt lat="45.44558" lon="3.28533">
        <ele>441.91745</ele>
        <time>2012-10-10T14:01:54Z</time>
      </trkpt>
      <trkpt lat="45.44538" lon="3.28532">
        <ele>444.02185</ele>
        <time>2012-10-10T14:01:59Z</time>
      </trkpt>
      <trkpt lat="45.44517" lon="3.2854">
        <ele>445.54153</ele>
        <time>2012-10-10T14:02:04Z</time>
      </trkpt>
      <trkpt lat="45.44499" lon="3.28544">
        <ele>447.57086</ele>
        <time>2012-10-10T14:02:08Z</time>
      </trkpt>
      <trkpt lat="45.44481" lon="3.28541">
        <ele>448.9977</ele>
        <time>2012-10-10T14:02:12Z</time>
      </trkpt>
      <trkpt lat="45.44461" lon="3.28533">
        <ele>449.90775</ele>
        <time>2012-10-10T14:02:18Z</time>
      </trkpt>
      <trkpt lat="45.44457" lon="3.28507">
        <ele>450.37296</ele>
        <time>2012-10-10T14:02:23Z</time>
      </trkpt>
      <trkpt lat="45.4444" lon="3.28484">
        <ele>450.67078</ele>
        <time>2012-10-10T14:02:28Z</time>
      </trkpt>
      <trkpt lat="45.44435" lon="3.28457">
        <ele>450.97043</ele>
        <time>2012-10-10T14:02:33Z</time>
      </trkpt>
      <trkpt lat="45.44415" lon="3.28463">
        <ele>452.33035</ele>
        <time>2012-10-10T14:02:42Z</time>
      </trkpt>
      <trkpt lat="45.44397" lon="3.28472">
        <ele>452.11163</ele>
        <time>2012-10-10T14:02:47Z</time>
      </trkpt>
      <trkpt lat="45.44376" lon="3.28479">
        <ele>455.86697</ele>
        <time>2012-10-10T14:02:53Z</time>
      </trkpt>
      <trkpt lat="45.44357" lon="3.28483">
        <ele>456.96786</ele>
        <time>2012-10-10T14:02:58Z</time>
      </trkpt>
      <trkpt lat="45.44338" lon="3.28489">
        <ele>458.20023</ele>
        <time>2012-10-10T14:03:03Z</time>
      </trkpt>
      <trkpt lat="45.44317" lon="3.28492">
        <ele>460.66034</ele>
        <time>2012-10-10T14:03:09Z</time>
      </trkpt>
      <trkpt lat="45.44299" lon="3.28491">
        <ele>461.93906</ele>
        <time>2012-10-10T14:03:13Z</time>
      </trkpt>
      <trkpt lat="45.44286" lon="3.2847">
        <ele>462.9169</ele>
        <time>2012-10-10T14:03:19Z</time>
      </trkpt>
      <trkpt lat="45.44273" lon="3.28449">
        <ele>462.23578</ele>
        <time>2012-10-10T14:03:24Z</time>
      </trkpt>
      <trkpt lat="45.44262" lon="3.28429">
        <ele>462.36447</ele>
        <time>2012-10-10T14:03:29Z</time>
      </trkpt>
      <trkpt lat="45.44247" lon="3.28407">
        <ele>463.6253</ele>
        <time>2012-10-10T14:03:35Z</time>
      </trkpt>
      <trkpt lat="45.44235" lon="3.28386">
        <ele>464.40585</ele>
        <time>2012-10-10T14:03:40Z</time>
      </trkpt>
      <trkpt lat="45.4422" lon="3.28366">
        <ele>465.9231</ele>
        <time>2012-10-10T14:03:45Z</time>
      </trkpt>
      <trkpt lat="45.44205" lon="3.28351">
        <ele>467.64554</ele>
        <time>2012-10-10T14:03:50Z</time>
      </trkpt>
      <trkpt lat="45.44187" lon="3.28336">
        <ele>468.3158</ele>
        <time>2012-10-10T14:03:55Z</time>
      </trkpt>
      <trkpt lat="45.4417" lon="3.28321">
        <ele>468.57974</ele>
        <time>2012-10-10T14:04:00Z</time>
      </trkpt>
      <trkpt lat="45.44154" lon="3.28307">
        <ele>469.77112</ele>
        <time>2012-10-10T14:04:05Z</time>
      </trkpt>
      <trkpt lat="45.44139" lon="3.28291">
        <ele>471.2412</ele>
        <time>2012-10-10T14:04:10Z</time>
      </trkpt>
      <trkpt lat="45.44123" lon="3.28271">
        <ele>472.62326</ele>
        <time>2012-10-10T14:04:16Z</time>
      </trkpt>
      <trkpt lat="45.44108" lon="3.28249">
        <ele>472.68652</ele>
        <time>2012-10-10T14:04:22Z</time>
      </trkpt>
      <trkpt lat="45.44095" lon="3.28229">
        <ele>472.71402</ele>
        <time>2012-10-10T14:04:27Z</time>
      </trkpt>
      <trkpt lat="45.44078" lon="3.28209">
        <ele>472.0311</ele>
        <time>2012-10-10T14:04:32Z</time>
      </trkpt>
      <trkpt lat="45.44065" lon="3.28189">
        <ele>471.81638</ele>
        <time>2012-10-10T14:04:36Z</time>
      </trkpt>
      <trkpt lat="45.44053" lon="3.2817">
        <ele>471.67072</ele>
        <time>2012-10-10T14:04:40Z</time>
      </trkpt>
      <trkpt lat="45.4404" lon="3.28149">
        <ele>472.1008</ele>
        <time>2012-10-10T14:04:44Z</time>
      </trkpt>
      <trkpt lat="45.44026" lon="3.2813">
        <ele>472.82123</ele>
        <time>2012-10-10T14:04:48Z</time>
      </trkpt>
      <trkpt lat="45.44008" lon="3.2811">
        <ele>472.64197</ele>
        <time>2012-10-10T14:04:53Z</time>
      </trkpt>
      <trkpt lat="45.43994" lon="3.28087">
        <ele>472.2749</ele>
        <time>2012-10-10T14:04:57Z</time>
      </trkpt>
      <trkpt lat="45.4398" lon="3.28061">
        <ele>471.34937</ele>
        <time>2012-10-10T14:05:01Z</time>
      </trkpt>
      <trkpt lat="45.43969" lon="3.2804">
        <ele>470.6901</ele>
        <time>2012-10-10T14:05:04Z</time>
      </trkpt>
      <trkpt lat="45.43959" lon="3.28017">
        <ele>470.25574</ele>
        <time>2012-10-10T14:05:07Z</time>
      </trkpt>
      <trkpt lat="45.43946" lon="3.27993">
        <ele>469.56934</ele>
        <time>2012-10-10T14:05:10Z</time>
      </trkpt>
      <trkpt lat="45.43934" lon="3.27965">
        <ele>468.16882</ele>
        <time>2012-10-10T14:05:13Z</time>
      </trkpt>
      <trkpt lat="45.43922" lon="3.27945">
        <ele>466.93015</ele>
        <time>2012-10-10T14:05:15Z</time>
      </trkpt>
      <trkpt lat="45.43908" lon="3.27919">
        <ele>465.63824</ele>
        <time>2012-10-10T14:05:18Z</time>
      </trkpt>
      <trkpt lat="45.43895" lon="3.27895">
        <ele>465.4057</ele>
        <time>2012-10-10T14:05:21Z</time>
      </trkpt>
      <trkpt lat="45.43885" lon="3.27872">
        <ele>465.46857</ele>
        <time>2012-10-10T14:05:24Z</time>
      </trkpt>
      <trkpt lat="45.4387" lon="3.27846">
        <ele>465.4427</ele>
        <time>2012-10-10T14:05:28Z</time>
      </trkpt>
      <trkpt lat="45.43858" lon="3.27822">
        <ele>464.84857</ele>
        <time>2012-10-10T14:05:32Z</time>
      </trkpt>
      <trkpt lat="45.43845" lon="3.278">
        <ele>464.40588</ele>
        <time>2012-10-10T14:05:36Z</time>
      </trkpt>
      <trkpt lat="45.43832" lon="3.27774">
        <ele>464.16974</ele>
        <time>2012-10-10T14:05:40Z</time>
      </trkpt>
      <trkpt lat="45.43813" lon="3.27761">
        <ele>463.938</ele>
        <time>2012-10-10T14:05:44Z</time>
      </trkpt>
      <trkpt lat="45.43792" lon="3.27764">
        <ele>465.23404</ele>
        <time>2012-10-10T14:05:50Z</time>
      </trkpt>
      <trkpt lat="45.43773" lon="3.27767">
        <ele>466.3699</ele>
        <time>2012-10-10T14:05:55Z</time>
      </trkpt>
      <trkpt lat="45.43755" lon="3.27771">
        <ele>467.6675</ele>
        <time>2012-10-10T14:06:00Z</time>
      </trkpt>
      <trkpt lat="45.43735" lon="3.27777">
        <ele>468.87396</ele>
        <time>2012-10-10T14:06:05Z</time>
      </trkpt>
      <trkpt lat="45.43714" lon="3.27781">
        <ele>470.1666</ele>
        <time>2012-10-10T14:06:10Z</time>
      </trkpt>
      <trkpt lat="45.43692" lon="3.27782">
        <ele>470.46826</ele>
        <time>2012-10-10T14:06:15Z</time>
      </trkpt>
      <trkpt lat="45.43673" lon="3.27784">
        <ele>470.67426</ele>
        <time>2012-10-10T14:06:19Z</time>
      </trkpt>
      <trkpt lat="45.43652" lon="3.27789">
        <ele>471.92264</ele>
        <time>2012-10-10T14:06:24Z</time>
      </trkpt>
      <trkpt lat="45.4363" lon="3.27792">
        <ele>472.99768</ele>
        <time>2012-10-10T14:06:28Z</time>
      </trkpt>
      <trkpt lat="45.43611" lon="3.27797">
        <ele>474.05072</ele>
        <time>2012-10-10T14:06:32Z</time>
      </trkpt>
      <trkpt lat="45.4359" lon="3.27798">
        <ele>473.93042</ele>
        <time>2012-10-10T14:06:36Z</time>
      </trkpt>
      <trkpt lat="45.43568" lon="3.27801">
        <ele>474.3349</ele>
        <time>2012-10-10T14:06:40Z</time>
      </trkpt>
      <trkpt lat="45.43545" lon="3.27806">
        <ele>475.04337</ele>
        <time>2012-10-10T14:06:44Z</time>
      </trkpt>
      <trkpt lat="45.43525" lon="3.27808">
        <ele>475.38083</ele>
        <time>2012-10-10T14:06:48Z</time>
      </trkpt>
      <trkpt lat="45.43505" lon="3.2781">
        <ele>476.34265</ele>
        <time>2012-10-10T14:06:52Z</time>
      </trkpt>
      <trkpt lat="45.43486" lon="3.27814">
        <ele>476.9181</ele>
        <time>2012-10-10T14:06:56Z</time>
      </trkpt>
      <trkpt lat="45.43467" lon="3.27817">
        <ele>477.73883</ele>
        <time>2012-10-10T14:07:00Z</time>
      </trkpt>
      <trkpt lat="45.43445" lon="3.27819">
        <ele>478.69724</ele>
        <time>2012-10-10T14:07:05Z</time>
      </trkpt>
      <trkpt lat="45.43423" lon="3.27822">
        <ele>480.63376</ele>
        <time>2012-10-10T14:07:10Z</time>
      </trkpt>
      <trkpt lat="45.43403" lon="3.27826">
        <ele>482.7637</ele>
        <time>2012-10-10T14:07:15Z</time>
      </trkpt>
      <trkpt lat="45.4338" lon="3.2783">
        <ele>482.92093</ele>
        <time>2012-10-10T14:07:20Z</time>
      </trkpt>
      <trkpt lat="45.43361" lon="3.27831">
        <ele>483.09048</ele>
        <time>2012-10-10T14:07:24Z</time>
      </trkpt>
      <trkpt lat="45.43341" lon="3.27833">
        <ele>484.0139</ele>
        <time>2012-10-10T14:07:29Z</time>
      </trkpt>
      <trkpt lat="45.43323" lon="3.27838">
        <ele>484.70352</ele>
        <time>2012-10-10T14:07:33Z</time>
      </trkpt>
      <trkpt lat="45.43304" lon="3.27841">
        <ele>485.09866</ele>
        <time>2012-10-10T14:07:37Z</time>
      </trkpt>
      <trkpt lat="45.43284" lon="3.27844">
        <ele>485.01474</ele>
        <time>2012-10-10T14:07:41Z</time>
      </trkpt>
      <trkpt lat="45.43263" lon="3.27848">
        <ele>485.0526</ele>
        <time>2012-10-10T14:07:45Z</time>
      </trkpt>
      <trkpt lat="45.43241" lon="3.27852">
        <ele>485.2181</ele>
        <time>2012-10-10T14:07:49Z</time>
      </trkpt>
      <trkpt lat="45.43219" lon="3.27855">
        <ele>485.14938</ele>
        <time>2012-10-10T14:07:53Z</time>
      </trkpt>
      <trkpt lat="45.43196" lon="3.27859">
        <ele>484.89093</ele>
        <time>2012-10-10T14:07:57Z</time>
      </trkpt>
      <trkpt lat="45.43173" lon="3.27863">
        <ele>484.774</ele>
        <time>2012-10-10T14:08:01Z</time>
      </trkpt>
      <trkpt lat="45.43149" lon="3.27866">
        <ele>484.45496</ele>
        <time>2012-10-10T14:08:05Z</time>
      </trkpt>
      <trkpt lat="45.43131" lon="3.2787">
        <ele>484.36276</ele>
        <time>2012-10-10T14:08:08Z</time>
      </trkpt>
      <trkpt lat="45.43107" lon="3.27873">
        <ele>484.63306</ele>
        <time>2012-10-10T14:08:12Z</time>
      </trkpt>
      <trkpt lat="45.43089" lon="3.27877">
        <ele>484.86288</ele>
        <time>2012-10-10T14:08:15Z</time>
      </trkpt>
      <trkpt lat="45.43071" lon="3.2788">
        <ele>485.34894</ele>
        <time>2012-10-10T14:08:18Z</time>
      </trkpt>
      <trkpt lat="45.43053" lon="3.27883">
        <ele>485.56958</ele>
        <time>2012-10-10T14:08:21Z</time>
      </trkpt>
      <trkpt lat="45.43035" lon="3.27886">
        <ele>485.7002</ele>
        <time>2012-10-10T14:08:24Z</time>
      </trkpt>
      <trkpt lat="45.43011" lon="3.2789">
        <ele>486.13123</ele>
        <time>2012-10-10T14:08:28Z</time>
      </trkpt>
      <trkpt lat="45.42988" lon="3.27895">
        <ele>486.8805</ele>
        <time>2012-10-10T14:08:32Z</time>
      </trkpt>
      <trkpt lat="45.42964" lon="3.27898">
        <ele>487.23123</ele>
        <time>2012-10-10T14:08:36Z</time>
      </trkpt>
      <trkpt lat="45.42941" lon="3.27899">
        <ele>487.43204</ele>
        <time>2012-10-10T14:08:40Z</time>
      </trkpt>
      <trkpt lat="45.42918" lon="3.27902">
        <ele>487.7335</ele>
        <time>2012-10-10T14:08:44Z</time>
      </trkpt>
      <trkpt lat="45.429" lon="3.27904">
        <ele>487.6459</ele>
        <time>2012-10-10T14:08:47Z</time>
      </trkpt>
      <trkpt lat="45.42881" lon="3.27907">
        <ele>487.49802</ele>
        <time>2012-10-10T14:08:50Z</time>
      </trkpt>
      <trkpt lat="45.42863" lon="3.27909">
        <ele>487.24344</ele>
        <time>2012-10-10T14:08:53Z</time>
      </trkpt>
      <trkpt lat="45.4284" lon="3.27911">
        <ele>486.94254</ele>
        <time>2012-10-10T14:08:57Z</time>
      </trkpt>
      <trkpt lat="45.42821" lon="3.27915">
        <ele>486.89972</ele>
        <time>2012-10-10T14:09:00Z</time>
      </trkpt>
      <trkpt lat="45.42803" lon="3.2792">
        <ele>486.8504</ele>
        <time>2012-10-10T14:09:03Z</time>
      </trkpt>
      <trkpt lat="45.42784" lon="3.27924">
        <ele>486.75302</ele>
        <time>2012-10-10T14:09:06Z</time>
      </trkpt>
      <trkpt lat="45.42766" lon="3.27932">
        <ele>486.60727</ele>
        <time>2012-10-10T14:09:09Z</time>
      </trkpt>
      <trkpt lat="45.42742" lon="3.27938">
        <ele>486.66156</ele>
        <time>2012-10-10T14:09:13Z</time>
      </trkpt>
      <trkpt lat="45.42719" lon="3.27942">
        <ele>486.8893</ele>
        <time>2012-10-10T14:09:17Z</time>
      </trkpt>
      <trkpt lat="45.42701" lon="3.27942">
        <ele>487.11163</ele>
        <time>2012-10-10T14:09:20Z</time>
      </trkpt>
      <trkpt lat="45.42682" lon="3.27941">
        <ele>487.2398</ele>
        <time>2012-10-10T14:09:23Z</time>
      </trkpt>
      <trkpt lat="45.42664" lon="3.2794">
        <ele>487.10794</ele>
        <time>2012-10-10T14:09:26Z</time>
      </trkpt>
      <trkpt lat="45.4264" lon="3.27937">
        <ele>486.9114</ele>
        <time>2012-10-10T14:09:30Z</time>
      </trkpt>
      <trkpt lat="45.42621" lon="3.27936">
        <ele>486.5944</ele>
        <time>2012-10-10T14:09:33Z</time>
      </trkpt>
      <trkpt lat="45.42602" lon="3.27938">
        <ele>485.96378</ele>
        <time>2012-10-10T14:09:36Z</time>
      </trkpt>
      <trkpt lat="45.42581" lon="3.27943">
        <ele>485.2571</ele>
        <time>2012-10-10T14:09:39Z</time>
      </trkpt>
      <trkpt lat="45.42558" lon="3.27949">
        <ele>484.66678</ele>
        <time>2012-10-10T14:09:42Z</time>
      </trkpt>
      <trkpt lat="45.42537" lon="3.27959">
        <ele>484.21463</ele>
        <time>2012-10-10T14:09:45Z</time>
      </trkpt>
      <trkpt lat="45.42514" lon="3.27972">
        <ele>483.25513</ele>
        <time>2012-10-10T14:09:48Z</time>
      </trkpt>
      <trkpt lat="45.4249" lon="3.27984">
        <ele>482.1613</ele>
        <time>2012-10-10T14:09:51Z</time>
      </trkpt>
      <trkpt lat="45.42466" lon="3.27993">
        <ele>481.49197</ele>
        <time>2012-10-10T14:09:54Z</time>
      </trkpt>
      <trkpt lat="45.42442" lon="3.28001">
        <ele>480.619</ele>
        <time>2012-10-10T14:09:57Z</time>
      </trkpt>
      <trkpt lat="45.4242" lon="3.28007">
        <ele>479.6601</ele>
        <time>2012-10-10T14:10:00Z</time>
      </trkpt>
      <trkpt lat="45.42399" lon="3.2801">
        <ele>478.85712</ele>
        <time>2012-10-10T14:10:03Z</time>
      </trkpt>
      <trkpt lat="45.42378" lon="3.28013">
        <ele>478.27774</ele>
        <time>2012-10-10T14:10:06Z</time>
      </trkpt>
      <trkpt lat="45.42359" lon="3.28016">
        <ele>478.0505</ele>
        <time>2012-10-10T14:10:09Z</time>
      </trkpt>
      <trkpt lat="45.42341" lon="3.28018">
        <ele>477.664</ele>
        <time>2012-10-10T14:10:12Z</time>
      </trkpt>
      <trkpt lat="45.42319" lon="3.28021">
        <ele>477.4432</ele>
        <time>2012-10-10T14:10:16Z</time>
      </trkpt>
      <trkpt lat="45.42306" lon="3.28002">
        <ele>476.98953</ele>
        <time>2012-10-10T14:10:22Z</time>
      </trkpt>
      <trkpt lat="45.42312" lon="3.27973">
        <ele>477.07196</ele>
        <time>2012-10-10T14:10:27Z</time>
      </trkpt>
      <trkpt lat="45.4232" lon="3.27944">
        <ele>477.66428</ele>
        <time>2012-10-10T14:10:32Z</time>
      </trkpt>
      <trkpt lat="45.42328" lon="3.27914">
        <ele>478.9358</ele>
        <time>2012-10-10T14:10:37Z</time>
      </trkpt>
      <trkpt lat="45.42335" lon="3.27888">
        <ele>479.9456</ele>
        <time>2012-10-10T14:10:41Z</time>
      </trkpt>
      <trkpt lat="45.42336" lon="3.27858">
        <ele>480.48776</ele>
        <time>2012-10-10T14:10:45Z</time>
      </trkpt>
      <trkpt lat="45.42345" lon="3.27826">
        <ele>480.55383</ele>
        <time>2012-10-10T14:10:49Z</time>
      </trkpt>
      <trkpt lat="45.42355" lon="3.27799">
        <ele>480.90448</ele>
        <time>2012-10-10T14:10:52Z</time>
      </trkpt>
      <trkpt lat="45.42363" lon="3.27774">
        <ele>481.33524</ele>
        <time>2012-10-10T14:10:55Z</time>
      </trkpt>
      <trkpt lat="45.42371" lon="3.27747">
        <ele>481.74506</ele>
        <time>2012-10-10T14:10:58Z</time>
      </trkpt>
      <trkpt lat="45.42376" lon="3.27717">
        <ele>482.13516</ele>
        <time>2012-10-10T14:11:01Z</time>
      </trkpt>
      <trkpt lat="45.42381" lon="3.27688">
        <ele>482.92786</ele>
        <time>2012-10-10T14:11:04Z</time>
      </trkpt>
      <trkpt lat="45.4238" lon="3.27653">
        <ele>483.11694</ele>
        <time>2012-10-10T14:11:07Z</time>
      </trkpt>
      <trkpt lat="45.42381" lon="3.27619">
        <ele>482.7733</ele>
        <time>2012-10-10T14:11:10Z</time>
      </trkpt>
      <trkpt lat="45.42379" lon="3.27593">
        <ele>482.58267</ele>
        <time>2012-10-10T14:11:12Z</time>
      </trkpt>
      <trkpt lat="45.42377" lon="3.27557">
        <ele>482.126</ele>
        <time>2012-10-10T14:11:15Z</time>
      </trkpt>
      <trkpt lat="45.42372" lon="3.27529">
        <ele>481.40607</ele>
        <time>2012-10-10T14:11:17Z</time>
      </trkpt>
      <trkpt lat="45.42371" lon="3.275">
        <ele>480.30112</ele>
        <time>2012-10-10T14:11:19Z</time>
      </trkpt>
      <trkpt lat="45.42371" lon="3.27473">
        <ele>479.39206</ele>
        <time>2012-10-10T14:11:21Z</time>
      </trkpt>
      <trkpt lat="45.42371" lon="3.27445">
        <ele>478.5057</ele>
        <time>2012-10-10T14:11:23Z</time>
      </trkpt>
      <trkpt lat="45.42372" lon="3.27417">
        <ele>477.63214</ele>
        <time>2012-10-10T14:11:25Z</time>
      </trkpt>
      <trkpt lat="45.42372" lon="3.27391">
        <ele>476.96576</ele>
        <time>2012-10-10T14:11:27Z</time>
      </trkpt>
      <trkpt lat="45.42374" lon="3.27363">
        <ele>476.1472</ele>
        <time>2012-10-10T14:11:29Z</time>
      </trkpt>
      <trkpt lat="45.42375" lon="3.27335">
        <ele>475.593</ele>
        <time>2012-10-10T14:11:31Z</time>
      </trkpt>
      <trkpt lat="45.42375" lon="3.2731">
        <ele>475.0875</ele>
        <time>2012-10-10T14:11:33Z</time>
      </trkpt>
      <trkpt lat="45.4238" lon="3.27283">
        <ele>474.9969</ele>
        <time>2012-10-10T14:11:35Z</time>
      </trkpt>
      <trkpt lat="45.42368" lon="3.27261">
        <ele>474.70078</ele>
        <time>2012-10-10T14:11:38Z</time>
      </trkpt>
      <trkpt lat="45.42347" lon="3.27255">
        <ele>473.06802</ele>
        <time>2012-10-10T14:11:40Z</time>
      </trkpt>
      <trkpt lat="45.42322" lon="3.27247">
        <ele>471.1339</ele>
        <time>2012-10-10T14:11:44Z</time>
      </trkpt>
      <trkpt lat="45.42298" lon="3.27238">
        <ele>469.53827</ele>
        <time>2012-10-10T14:11:46Z</time>
      </trkpt>
      <trkpt lat="45.42277" lon="3.27217">
        <ele>468.3448</ele>
        <time>2012-10-10T14:11:50Z</time>
      </trkpt>
      <trkpt lat="45.42264" lon="3.27194">
        <ele>467.14285</ele>
        <time>2012-10-10T14:11:52Z</time>
      </trkpt>
      <trkpt lat="45.42253" lon="3.27172">
        <ele>465.92484</ele>
        <time>2012-10-10T14:11:56Z</time>
      </trkpt>
      <trkpt lat="45.42239" lon="3.27152">
        <ele>465.2032</ele>
        <time>2012-10-10T14:11:59Z</time>
      </trkpt>
      <trkpt lat="45.42227" lon="3.2713">
        <ele>464.42374</ele>
        <time>2012-10-10T14:12:02Z</time>
      </trkpt>
      <trkpt lat="45.42219" lon="3.27106">
        <ele>463.80585</ele>
        <time>2012-10-10T14:12:05Z</time>
      </trkpt>
      <trkpt lat="45.42218" lon="3.2708">
        <ele>463.19205</ele>
        <time>2012-10-10T14:12:08Z</time>
      </trkpt>
      <trkpt lat="45.42223" lon="3.27049">
        <ele>462.8837</ele>
        <time>2012-10-10T14:12:12Z</time>
      </trkpt>
      <trkpt lat="45.42225" lon="3.27019">
        <ele>462.68967</ele>
        <time>2012-10-10T14:12:16Z</time>
      </trkpt>
      <trkpt lat="45.42229" lon="3.26992">
        <ele>463.32397</ele>
        <time>2012-10-10T14:12:20Z</time>
      </trkpt>
      <trkpt lat="45.42231" lon="3.26966">
        <ele>463.97897</ele>
        <time>2012-10-10T14:12:24Z</time>
      </trkpt>
      <trkpt lat="45.42232" lon="3.26939">
        <ele>464.94534</ele>
        <time>2012-10-10T14:12:29Z</time>
      </trkpt>
      <trkpt lat="45.4223" lon="3.26908">
        <ele>465.43842</ele>
        <time>2012-10-10T14:12:34Z</time>
      </trkpt>
      <trkpt lat="45.42226" lon="3.26882">
        <ele>466.00424</ele>
        <time>2012-10-10T14:12:38Z</time>
      </trkpt>
      <trkpt lat="45.42221" lon="3.26854">
        <ele>466.21414</ele>
        <time>2012-10-10T14:12:42Z</time>
      </trkpt>
      <trkpt lat="45.42224" lon="3.26824">
        <ele>466.53406</ele>
        <time>2012-10-10T14:12:46Z</time>
      </trkpt>
      <trkpt lat="45.42229" lon="3.26797">
        <ele>466.61145</ele>
        <time>2012-10-10T14:12:50Z</time>
      </trkpt>
      <trkpt lat="45.42214" lon="3.26778">
        <ele>464.975</ele>
        <time>2012-10-10T14:12:54Z</time>
      </trkpt>
      <trkpt lat="45.42194" lon="3.26787">
        <ele>463.48996</ele>
        <time>2012-10-10T14:12:57Z</time>
      </trkpt>
      <trkpt lat="45.42173" lon="3.26795">
        <ele>462.7041</ele>
        <time>2012-10-10T14:12:59Z</time>
      </trkpt>
      <trkpt lat="45.42155" lon="3.26803">
        <ele>462.60538</ele>
        <time>2012-10-10T14:13:03Z</time>
      </trkpt>
      <trkpt lat="45.42135" lon="3.26813">
        <ele>462.55942</ele>
        <time>2012-10-10T14:13:07Z</time>
      </trkpt>
      <trkpt lat="45.42113" lon="3.26808">
        <ele>462.3527</ele>
        <time>2012-10-10T14:13:11Z</time>
      </trkpt>
      <trkpt lat="45.42093" lon="3.26792">
        <ele>462.29858</ele>
        <time>2012-10-10T14:13:15Z</time>
      </trkpt>
      <trkpt lat="45.42076" lon="3.2678">
        <ele>461.71704</ele>
        <time>2012-10-10T14:13:19Z</time>
      </trkpt>
      <trkpt lat="45.42057" lon="3.26771">
        <ele>462.19397</ele>
        <time>2012-10-10T14:13:25Z</time>
      </trkpt>
      <trkpt lat="45.42041" lon="3.26757">
        <ele>462.5647</ele>
        <time>2012-10-10T14:13:30Z</time>
      </trkpt>
      <trkpt lat="45.42023" lon="3.26741">
        <ele>463.46066</ele>
        <time>2012-10-10T14:13:36Z</time>
      </trkpt>
      <trkpt lat="45.42006" lon="3.26728">
        <ele>465.8649</ele>
        <time>2012-10-10T14:13:42Z</time>
      </trkpt>
      <trkpt lat="45.41991" lon="3.26714">
        <ele>467.27542</ele>
        <time>2012-10-10T14:13:48Z</time>
      </trkpt>
      <trkpt lat="45.41972" lon="3.26704">
        <ele>467.40436</ele>
        <time>2012-10-10T14:13:54Z</time>
      </trkpt>
      <trkpt lat="45.41964" lon="3.26679">
        <ele>468.8384</ele>
        <time>2012-10-10T14:14:02Z</time>
      </trkpt>
      <trkpt lat="45.41965" lon="3.26654">
        <ele>470.89597</ele>
        <time>2012-10-10T14:14:08Z</time>
      </trkpt>
      <trkpt lat="45.41968" lon="3.26625">
        <ele>472.36267</ele>
        <time>2012-10-10T14:14:14Z</time>
      </trkpt>
      <trkpt lat="45.41969" lon="3.26596">
        <ele>474.305</ele>
        <time>2012-10-10T14:14:20Z</time>
      </trkpt>
      <trkpt lat="45.41969" lon="3.26567">
        <ele>474.95862</ele>
        <time>2012-10-10T14:14:25Z</time>
      </trkpt>
      <trkpt lat="45.41971" lon="3.26538">
        <ele>475.61795</ele>
        <time>2012-10-10T14:14:32Z</time>
      </trkpt>
      <trkpt lat="45.41972" lon="3.26512">
        <ele>476.08893</ele>
        <time>2012-10-10T14:14:37Z</time>
      </trkpt>
      <trkpt lat="45.41974" lon="3.26485">
        <ele>476.63168</ele>
        <time>2012-10-10T14:14:42Z</time>
      </trkpt>
      <trkpt lat="45.41973" lon="3.26456">
        <ele>475.23767</ele>
        <time>2012-10-10T14:14:48Z</time>
      </trkpt>
      <trkpt lat="45.41978" lon="3.26428">
        <ele>476.2326</ele>
        <time>2012-10-10T14:14:53Z</time>
      </trkpt>
      <trkpt lat="45.41976" lon="3.26398">
        <ele>477.80756</ele>
        <time>2012-10-10T14:14:59Z</time>
      </trkpt>
      <trkpt lat="45.41976" lon="3.2637">
        <ele>477.29135</ele>
        <time>2012-10-10T14:15:05Z</time>
      </trkpt>
      <trkpt lat="45.41979" lon="3.26342">
        <ele>477.6969</ele>
        <time>2012-10-10T14:15:10Z</time>
      </trkpt>
      <trkpt lat="45.4198" lon="3.26309">
        <ele>477.83417</ele>
        <time>2012-10-10T14:15:15Z</time>
      </trkpt>
      <trkpt lat="45.4198" lon="3.2628">
        <ele>479.3238</ele>
        <time>2012-10-10T14:15:21Z</time>
      </trkpt>
      <trkpt lat="45.41981" lon="3.26254">
        <ele>481.1257</ele>
        <time>2012-10-10T14:15:26Z</time>
      </trkpt>
      <trkpt lat="45.4198" lon="3.26228">
        <ele>482.4202</ele>
        <time>2012-10-10T14:15:31Z</time>
      </trkpt>
      <trkpt lat="45.41979" lon="3.26201">
        <ele>484.59662</ele>
        <time>2012-10-10T14:15:36Z</time>
      </trkpt>
      <trkpt lat="45.41979" lon="3.26173">
        <ele>485.22363</ele>
        <time>2012-10-10T14:15:41Z</time>
      </trkpt>
      <trkpt lat="45.41977" lon="3.26144">
        <ele>485.0444</ele>
        <time>2012-10-10T14:15:46Z</time>
      </trkpt>
      <trkpt lat="45.41976" lon="3.26118">
        <ele>485.02676</ele>
        <time>2012-10-10T14:15:51Z</time>
      </trkpt>
      <trkpt lat="45.41973" lon="3.26092">
        <ele>485.3263</ele>
        <time>2012-10-10T14:15:56Z</time>
      </trkpt>
      <trkpt lat="45.41969" lon="3.26066">
        <ele>485.7841</ele>
        <time>2012-10-10T14:16:01Z</time>
      </trkpt>
      <trkpt lat="45.41963" lon="3.26041">
        <ele>485.7473</ele>
        <time>2012-10-10T14:16:06Z</time>
      </trkpt>
      <trkpt lat="45.41957" lon="3.26016">
        <ele>485.89954</ele>
        <time>2012-10-10T14:16:11Z</time>
      </trkpt>
      <trkpt lat="45.41949" lon="3.25988">
        <ele>486.02145</ele>
        <time>2012-10-10T14:16:17Z</time>
      </trkpt>
      <trkpt lat="45.41945" lon="3.25962">
        <ele>485.79446</ele>
        <time>2012-10-10T14:16:22Z</time>
      </trkpt>
      <trkpt lat="45.41941" lon="3.25933">
        <ele>486.6165</ele>
        <time>2012-10-10T14:16:27Z</time>
      </trkpt>
      <trkpt lat="45.41938" lon="3.25905">
        <ele>487.4021</ele>
        <time>2012-10-10T14:16:32Z</time>
      </trkpt>
      <trkpt lat="45.41933" lon="3.2588">
        <ele>486.62903</ele>
        <time>2012-10-10T14:16:38Z</time>
      </trkpt>
      <trkpt lat="45.41929" lon="3.25854">
        <ele>486.2413</ele>
        <time>2012-10-10T14:16:43Z</time>
      </trkpt>
      <trkpt lat="45.41922" lon="3.25827">
        <ele>486.85464</ele>
        <time>2012-10-10T14:16:48Z</time>
      </trkpt>
      <trkpt lat="45.41915" lon="3.25802">
        <ele>488.06146</ele>
        <time>2012-10-10T14:16:53Z</time>
      </trkpt>
      <trkpt lat="45.41907" lon="3.25777">
        <ele>489.21237</ele>
        <time>2012-10-10T14:16:58Z</time>
      </trkpt>
      <trkpt lat="45.419" lon="3.25753">
        <ele>489.43402</ele>
        <time>2012-10-10T14:17:03Z</time>
      </trkpt>
      <trkpt lat="45.41893" lon="3.25725">
        <ele>488.6364</ele>
        <time>2012-10-10T14:17:08Z</time>
      </trkpt>
      <trkpt lat="45.41886" lon="3.25698">
        <ele>488.76297</ele>
        <time>2012-10-10T14:17:13Z</time>
      </trkpt>
      <trkpt lat="45.4188" lon="3.25673">
        <ele>488.81824</ele>
        <time>2012-10-10T14:17:17Z</time>
      </trkpt>
      <trkpt lat="45.41872" lon="3.25644">
        <ele>489.23962</ele>
        <time>2012-10-10T14:17:22Z</time>
      </trkpt>
      <trkpt lat="45.41866" lon="3.25615">
        <ele>489.64587</ele>
        <time>2012-10-10T14:17:27Z</time>
      </trkpt>
      <trkpt lat="45.41856" lon="3.25587">
        <ele>489.53336</ele>
        <time>2012-10-10T14:17:32Z</time>
      </trkpt>
      <trkpt lat="45.4185" lon="3.2556">
        <ele>490.6221</ele>
        <time>2012-10-10T14:17:37Z</time>
      </trkpt>
      <trkpt lat="45.41842" lon="3.25533">
        <ele>492.029</ele>
        <time>2012-10-10T14:17:42Z</time>
      </trkpt>
      <trkpt lat="45.41835" lon="3.25509">
        <ele>494.33856</ele>
        <time>2012-10-10T14:17:47Z</time>
      </trkpt>
      <trkpt lat="45.41829" lon="3.25483">
        <ele>496.18427</ele>
        <time>2012-10-10T14:17:53Z</time>
      </trkpt>
      <trkpt lat="45.41821" lon="3.25456">
        <ele>496.8752</ele>
        <time>2012-10-10T14:17:59Z</time>
      </trkpt>
      <trkpt lat="45.41814" lon="3.25428">
        <ele>497.7858</ele>
        <time>2012-10-10T14:18:05Z</time>
      </trkpt>
      <trkpt lat="45.41809" lon="3.25398">
        <ele>498.6942</ele>
        <time>2012-10-10T14:18:11Z</time>
      </trkpt>
      <trkpt lat="45.41805" lon="3.25372">
        <ele>498.43634</ele>
        <time>2012-10-10T14:18:16Z</time>
      </trkpt>
      <trkpt lat="45.41802" lon="3.25345">
        <ele>498.73746</ele>
        <time>2012-10-10T14:18:21Z</time>
      </trkpt>
      <trkpt lat="45.41797" lon="3.25316">
        <ele>498.8907</ele>
        <time>2012-10-10T14:18:27Z</time>
      </trkpt>
      <trkpt lat="45.41794" lon="3.25289">
        <ele>498.93338</ele>
        <time>2012-10-10T14:18:32Z</time>
      </trkpt>
      <trkpt lat="45.41791" lon="3.25262">
        <ele>498.8111</ele>
        <time>2012-10-10T14:18:37Z</time>
      </trkpt>
      <trkpt lat="45.41786" lon="3.25236">
        <ele>499.02814</ele>
        <time>2012-10-10T14:18:42Z</time>
      </trkpt>
      <trkpt lat="45.41783" lon="3.25205">
        <ele>499.3854</ele>
        <time>2012-10-10T14:18:48Z</time>
      </trkpt>
      <trkpt lat="45.41779" lon="3.2518">
        <ele>500.5913</ele>
        <time>2012-10-10T14:18:53Z</time>
      </trkpt>
      <trkpt lat="45.41783" lon="3.25154">
        <ele>502.11502</ele>
        <time>2012-10-10T14:19:00Z</time>
      </trkpt>
      <trkpt lat="45.41795" lon="3.25135">
        <ele>501.53082</ele>
        <time>2012-10-10T14:19:04Z</time>
      </trkpt>
      <trkpt lat="45.41806" lon="3.25112">
        <ele>501.77295</ele>
        <time>2012-10-10T14:19:07Z</time>
      </trkpt>
      <trkpt lat="45.41821" lon="3.25088">
        <ele>501.31403</ele>
        <time>2012-10-10T14:19:12Z</time>
      </trkpt>
      <trkpt lat="45.41834" lon="3.25068">
        <ele>500.25018</ele>
        <time>2012-10-10T14:19:15Z</time>
      </trkpt>
      <trkpt lat="45.41848" lon="3.25048">
        <ele>499.31073</ele>
        <time>2012-10-10T14:19:18Z</time>
      </trkpt>
      <trkpt lat="45.41866" lon="3.25032">
        <ele>498.68005</ele>
        <time>2012-10-10T14:19:21Z</time>
      </trkpt>
      <trkpt lat="45.41887" lon="3.25017">
        <ele>497.53275</ele>
        <time>2012-10-10T14:19:24Z</time>
      </trkpt>
      <trkpt lat="45.41908" lon="3.24997">
        <ele>495.8237</ele>
        <time>2012-10-10T14:19:27Z</time>
      </trkpt>
      <trkpt lat="45.41926" lon="3.24983">
        <ele>494.1949</ele>
        <time>2012-10-10T14:19:30Z</time>
      </trkpt>
      <trkpt lat="45.41945" lon="3.24974">
        <ele>493.6146</ele>
        <time>2012-10-10T14:19:37Z</time>
      </trkpt>
      <trkpt lat="45.41962" lon="3.24963">
        <ele>492.63043</ele>
        <time>2012-10-10T14:19:42Z</time>
      </trkpt>
      <trkpt lat="45.41979" lon="3.24951">
        <ele>491.26382</ele>
        <time>2012-10-10T14:19:45Z</time>
      </trkpt>
      <trkpt lat="45.41998" lon="3.24941">
        <ele>491.23657</ele>
        <time>2012-10-10T14:19:51Z</time>
      </trkpt>
      <trkpt lat="45.42017" lon="3.24929">
        <ele>491.39413</ele>
        <time>2012-10-10T14:19:56Z</time>
      </trkpt>
      <trkpt lat="45.42038" lon="3.24917">
        <ele>491.73526</ele>
        <time>2012-10-10T14:20:01Z</time>
      </trkpt>
      <trkpt lat="45.42059" lon="3.24906">
        <ele>492.5294</ele>
        <time>2012-10-10T14:20:06Z</time>
      </trkpt>
      <trkpt lat="45.42078" lon="3.24895">
        <ele>493.40506</ele>
        <time>2012-10-10T14:20:11Z</time>
      </trkpt>
      <trkpt lat="45.42095" lon="3.24882">
        <ele>493.8776</ele>
        <time>2012-10-10T14:20:16Z</time>
      </trkpt>
      <trkpt lat="45.42113" lon="3.24864">
        <ele>494.67285</ele>
        <time>2012-10-10T14:20:22Z</time>
      </trkpt>
      <trkpt lat="45.42129" lon="3.24846">
        <ele>495.1485</ele>
        <time>2012-10-10T14:20:28Z</time>
      </trkpt>
      <trkpt lat="45.42145" lon="3.24829">
        <ele>496.55243</ele>
        <time>2012-10-10T14:20:34Z</time>
      </trkpt>
      <trkpt lat="45.42161" lon="3.24812">
        <ele>497.67807</ele>
        <time>2012-10-10T14:20:41Z</time>
      </trkpt>
      <trkpt lat="45.42177" lon="3.24796">
        <ele>500.53427</ele>
        <time>2012-10-10T14:20:49Z</time>
      </trkpt>
      <trkpt lat="45.42192" lon="3.24779">
        <ele>503.18878</ele>
        <time>2012-10-10T14:20:58Z</time>
      </trkpt>
      <trkpt lat="45.42208" lon="3.24763">
        <ele>506.34805</ele>
        <time>2012-10-10T14:21:07Z</time>
      </trkpt>
      <trkpt lat="45.42224" lon="3.24752">
        <ele>509.6396</ele>
        <time>2012-10-10T14:21:20Z</time>
      </trkpt>
      <trkpt lat="45.42243" lon="3.24749">
        <ele>511.58774</ele>
        <time>2012-10-10T14:21:30Z</time>
      </trkpt>
      <trkpt lat="45.42262" lon="3.24745">
        <ele>511.8891</ele>
        <time>2012-10-10T14:21:39Z</time>
      </trkpt>
      <trkpt lat="45.4228" lon="3.24735">
        <ele>512.6523</ele>
        <time>2012-10-10T14:21:47Z</time>
      </trkpt>
      <trkpt lat="45.42296" lon="3.24721">
        <ele>514.0046</ele>
        <time>2012-10-10T14:21:54Z</time>
      </trkpt>
      <trkpt lat="45.42311" lon="3.24703">
        <ele>516.0415</ele>
        <time>2012-10-10T14:22:01Z</time>
      </trkpt>
      <trkpt lat="45.42326" lon="3.24686">
        <ele>516.4639</ele>
        <time>2012-10-10T14:22:08Z</time>
      </trkpt>
      <trkpt lat="45.42337" lon="3.24665">
        <ele>518.6804</ele>
        <time>2012-10-10T14:22:16Z</time>
      </trkpt>
      <trkpt lat="45.4235" lon="3.24644">
        <ele>519.76483</ele>
        <time>2012-10-10T14:22:24Z</time>
      </trkpt>
      <trkpt lat="45.42366" lon="3.24627">
        <ele>521.01086</ele>
        <time>2012-10-10T14:22:32Z</time>
      </trkpt>
      <trkpt lat="45.42384" lon="3.24618">
        <ele>521.599</ele>
        <time>2012-10-10T14:22:38Z</time>
      </trkpt>
      <trkpt lat="45.42404" lon="3.24611">
        <ele>521.4496</ele>
        <time>2012-10-10T14:22:45Z</time>
      </trkpt>
      <trkpt lat="45.42423" lon="3.24604">
        <ele>522.0772</ele>
        <time>2012-10-10T14:22:51Z</time>
      </trkpt>
      <trkpt lat="45.42443" lon="3.24603">
        <ele>524.02234</ele>
        <time>2012-10-10T14:22:57Z</time>
      </trkpt>
      <trkpt lat="45.42463" lon="3.24597">
        <ele>525.39154</ele>
        <time>2012-10-10T14:23:03Z</time>
      </trkpt>
      <trkpt lat="45.42483" lon="3.24589">
        <ele>525.68494</ele>
        <time>2012-10-10T14:23:09Z</time>
      </trkpt>
      <trkpt lat="45.42501" lon="3.24583">
        <ele>526.35846</ele>
        <time>2012-10-10T14:23:15Z</time>
      </trkpt>
      <trkpt lat="45.42519" lon="3.24575">
        <ele>527.8124</ele>
        <time>2012-10-10T14:23:21Z</time>
      </trkpt>
      <trkpt lat="45.42537" lon="3.24562">
        <ele>529.1605</ele>
        <time>2012-10-10T14:23:27Z</time>
      </trkpt>
      <trkpt lat="45.42553" lon="3.24546">
        <ele>531.6565</ele>
        <time>2012-10-10T14:23:33Z</time>
      </trkpt>
      <trkpt lat="45.4257" lon="3.24532">
        <ele>532.8538</ele>
        <time>2012-10-10T14:23:39Z</time>
      </trkpt>
      <trkpt lat="45.4259" lon="3.24529">
        <ele>532.65936</ele>
        <time>2012-10-10T14:23:44Z</time>
      </trkpt>
      <trkpt lat="45.42611" lon="3.24524">
        <ele>532.41907</ele>
        <time>2012-10-10T14:23:48Z</time>
      </trkpt>
      <trkpt lat="45.42633" lon="3.24521">
        <ele>532.9614</ele>
        <time>2012-10-10T14:23:52Z</time>
      </trkpt>
      <trkpt lat="45.42653" lon="3.24519">
        <ele>532.67596</ele>
        <time>2012-10-10T14:23:56Z</time>
      </trkpt>
      <trkpt lat="45.42674" lon="3.24517">
        <ele>533.51483</ele>
        <time>2012-10-10T14:24:01Z</time>
      </trkpt>
      <trkpt lat="45.42692" lon="3.24517">
        <ele>534.17334</ele>
        <time>2012-10-10T14:24:06Z</time>
      </trkpt>
      <trkpt lat="45.42713" lon="3.24516">
        <ele>534.8353</ele>
        <time>2012-10-10T14:24:12Z</time>
      </trkpt>
      <trkpt lat="45.42733" lon="3.24519">
        <ele>535.8807</ele>
        <time>2012-10-10T14:24:18Z</time>
      </trkpt>
      <trkpt lat="45.42755" lon="3.2452">
        <ele>537.3856</ele>
        <time>2012-10-10T14:24:24Z</time>
      </trkpt>
      <trkpt lat="45.42775" lon="3.24517">
        <ele>539.4012</ele>
        <time>2012-10-10T14:24:30Z</time>
      </trkpt>
      <trkpt lat="45.42794" lon="3.24513">
        <ele>542.1237</ele>
        <time>2012-10-10T14:24:37Z</time>
      </trkpt>
      <trkpt lat="45.42812" lon="3.24498">
        <ele>545.40814</ele>
        <time>2012-10-10T14:24:43Z</time>
      </trkpt>
      <trkpt lat="45.4282" lon="3.2447">
        <ele>548.2538</ele>
        <time>2012-10-10T14:24:50Z</time>
      </trkpt>
      <trkpt lat="45.42811" lon="3.24444">
        <ele>549.07306</ele>
        <time>2012-10-10T14:24:55Z</time>
      </trkpt>
      <trkpt lat="45.42806" lon="3.24419">
        <ele>549.95105</ele>
        <time>2012-10-10T14:25:00Z</time>
      </trkpt>
      <trkpt lat="45.42802" lon="3.24392">
        <ele>551.50055</ele>
        <time>2012-10-10T14:25:05Z</time>
      </trkpt>
      <trkpt lat="45.42799" lon="3.24362">
        <ele>551.7975</ele>
        <time>2012-10-10T14:25:11Z</time>
      </trkpt>
      <trkpt lat="45.42791" lon="3.24338">
        <ele>551.0756</ele>
        <time>2012-10-10T14:25:16Z</time>
      </trkpt>
      <trkpt lat="45.42785" lon="3.24314">
        <ele>551.5008</ele>
        <time>2012-10-10T14:25:21Z</time>
      </trkpt>
      <trkpt lat="45.42789" lon="3.24285">
        <ele>552.3794</ele>
        <time>2012-10-10T14:25:28Z</time>
      </trkpt>
      <trkpt lat="45.42809" lon="3.24274">
        <ele>552.0461</ele>
        <time>2012-10-10T14:25:34Z</time>
      </trkpt>
      <trkpt lat="45.4283" lon="3.24273">
        <ele>549.9402</ele>
        <time>2012-10-10T14:25:40Z</time>
      </trkpt>
      <trkpt lat="45.42845" lon="3.24288">
        <ele>548.5811</ele>
        <time>2012-10-10T14:25:45Z</time>
      </trkpt>
      <trkpt lat="45.42863" lon="3.24306">
        <ele>546.88965</ele>
        <time>2012-10-10T14:25:49Z</time>
      </trkpt>
      <trkpt lat="45.42883" lon="3.24314">
        <ele>546.08765</ele>
        <time>2012-10-10T14:25:53Z</time>
      </trkpt>
      <trkpt lat="45.42905" lon="3.2432">
        <ele>546.3543</ele>
        <time>2012-10-10T14:25:57Z</time>
      </trkpt>
      <trkpt lat="45.4292" lon="3.24337">
        <ele>546.98834</ele>
        <time>2012-10-10T14:26:03Z</time>
      </trkpt>
      <trkpt lat="45.42938" lon="3.24343">
        <ele>545.4575</ele>
        <time>2012-10-10T14:26:07Z</time>
      </trkpt>
      <trkpt lat="45.42955" lon="3.24357">
        <ele>545.3315</ele>
        <time>2012-10-10T14:26:12Z</time>
      </trkpt>
      <trkpt lat="45.42973" lon="3.24364">
        <ele>545.1901</ele>
        <time>2012-10-10T14:26:19Z</time>
      </trkpt>
      <trkpt lat="45.42997" lon="3.24378">
        <ele>545.26874</ele>
        <time>2012-10-10T14:26:26Z</time>
      </trkpt>
      <trkpt lat="45.43017" lon="3.24381">
        <ele>544.78107</ele>
        <time>2012-10-10T14:26:29Z</time>
      </trkpt>
      <trkpt lat="45.43039" lon="3.24383">
        <ele>542.62537</ele>
        <time>2012-10-10T14:26:32Z</time>
      </trkpt>
      <trkpt lat="45.43065" lon="3.24383">
        <ele>540.73</ele>
        <time>2012-10-10T14:26:35Z</time>
      </trkpt>
      <trkpt lat="45.43084" lon="3.24378">
        <ele>539.0083</ele>
        <time>2012-10-10T14:26:37Z</time>
      </trkpt>
      <trkpt lat="45.43103" lon="3.24365">
        <ele>537.70233</ele>
        <time>2012-10-10T14:26:39Z</time>
      </trkpt>
      <trkpt lat="45.43124" lon="3.24352">
        <ele>536.19904</ele>
        <time>2012-10-10T14:26:41Z</time>
      </trkpt>
      <trkpt lat="45.43143" lon="3.24338">
        <ele>534.50336</ele>
        <time>2012-10-10T14:26:43Z</time>
      </trkpt>
      <trkpt lat="45.43164" lon="3.24327">
        <ele>532.7246</ele>
        <time>2012-10-10T14:26:45Z</time>
      </trkpt>
      <trkpt lat="45.43184" lon="3.24315">
        <ele>530.9115</ele>
        <time>2012-10-10T14:26:47Z</time>
      </trkpt>
      <trkpt lat="45.43204" lon="3.24305">
        <ele>529.19165</ele>
        <time>2012-10-10T14:26:49Z</time>
      </trkpt>
      <trkpt lat="45.43223" lon="3.24295">
        <ele>527.84924</ele>
        <time>2012-10-10T14:26:51Z</time>
      </trkpt>
      <trkpt lat="45.43241" lon="3.24285">
        <ele>526.1004</ele>
        <time>2012-10-10T14:26:53Z</time>
      </trkpt>
      <trkpt lat="45.43259" lon="3.24275">
        <ele>524.61664</ele>
        <time>2012-10-10T14:26:55Z</time>
      </trkpt>
      <trkpt lat="45.43278" lon="3.24267">
        <ele>523.3008</ele>
        <time>2012-10-10T14:26:57Z</time>
      </trkpt>
      <trkpt lat="45.43297" lon="3.24257">
        <ele>522.0794</ele>
        <time>2012-10-10T14:26:59Z</time>
      </trkpt>
      <trkpt lat="45.43315" lon="3.24247">
        <ele>521.02985</ele>
        <time>2012-10-10T14:27:01Z</time>
      </trkpt>
      <trkpt lat="45.43334" lon="3.24238">
        <ele>520.11444</ele>
        <time>2012-10-10T14:27:03Z</time>
      </trkpt>
      <trkpt lat="45.43352" lon="3.24227">
        <ele>518.8246</ele>
        <time>2012-10-10T14:27:05Z</time>
      </trkpt>
      <trkpt lat="45.4337" lon="3.24216">
        <ele>517.6553</ele>
        <time>2012-10-10T14:27:07Z</time>
      </trkpt>
      <trkpt lat="45.43387" lon="3.24202">
        <ele>516.39124</ele>
        <time>2012-10-10T14:27:09Z</time>
      </trkpt>
      <trkpt lat="45.43402" lon="3.24186">
        <ele>515.299</ele>
        <time>2012-10-10T14:27:11Z</time>
      </trkpt>
      <trkpt lat="45.43416" lon="3.2417">
        <ele>514.32837</ele>
        <time>2012-10-10T14:27:13Z</time>
      </trkpt>
      <trkpt lat="45.43435" lon="3.24145">
        <ele>513.17346</ele>
        <time>2012-10-10T14:27:16Z</time>
      </trkpt>
      <trkpt lat="45.43454" lon="3.24123">
        <ele>511.95648</ele>
        <time>2012-10-10T14:27:19Z</time>
      </trkpt>
      <trkpt lat="45.43476" lon="3.24107">
        <ele>510.2759</ele>
        <time>2012-10-10T14:27:22Z</time>
      </trkpt>
      <trkpt lat="45.43497" lon="3.24089">
        <ele>507.8544</ele>
        <time>2012-10-10T14:27:25Z</time>
      </trkpt>
      <trkpt lat="45.43515" lon="3.24078">
        <ele>506.72205</ele>
        <time>2012-10-10T14:27:27Z</time>
      </trkpt>
      <trkpt lat="45.43536" lon="3.24078">
        <ele>505.82886</ele>
        <time>2012-10-10T14:27:29Z</time>
      </trkpt>
      <trkpt lat="45.43555" lon="3.24073">
        <ele>504.52017</ele>
        <time>2012-10-10T14:27:31Z</time>
      </trkpt>
      <trkpt lat="45.43576" lon="3.24068">
        <ele>503.04028</ele>
        <time>2012-10-10T14:27:33Z</time>
      </trkpt>
      <trkpt lat="45.43596" lon="3.24063">
        <ele>501.23285</ele>
        <time>2012-10-10T14:27:35Z</time>
      </trkpt>
      <trkpt lat="45.43616" lon="3.24056">
        <ele>499.55365</ele>
        <time>2012-10-10T14:27:37Z</time>
      </trkpt>
      <trkpt lat="45.43637" lon="3.2405">
        <ele>497.70288</ele>
        <time>2012-10-10T14:27:39Z</time>
      </trkpt>
      <trkpt lat="45.43658" lon="3.24042">
        <ele>496.05554</ele>
        <time>2012-10-10T14:27:41Z</time>
      </trkpt>
      <trkpt lat="45.4368" lon="3.24035">
        <ele>494.64142</ele>
        <time>2012-10-10T14:27:43Z</time>
      </trkpt>
      <trkpt lat="45.43701" lon="3.24027">
        <ele>492.97098</ele>
        <time>2012-10-10T14:27:45Z</time>
      </trkpt>
      <trkpt lat="45.43722" lon="3.24021">
        <ele>491.05637</ele>
        <time>2012-10-10T14:27:47Z</time>
      </trkpt>
      <trkpt lat="45.43742" lon="3.24017">
        <ele>489.58563</ele>
        <time>2012-10-10T14:27:49Z</time>
      </trkpt>
      <trkpt lat="45.43763" lon="3.24012">
        <ele>488.23334</ele>
        <time>2012-10-10T14:27:51Z</time>
      </trkpt>
      <trkpt lat="45.43783" lon="3.24011">
        <ele>486.71643</ele>
        <time>2012-10-10T14:27:53Z</time>
      </trkpt>
      <trkpt lat="45.43802" lon="3.24011">
        <ele>485.20694</ele>
        <time>2012-10-10T14:27:55Z</time>
      </trkpt>
      <trkpt lat="45.43829" lon="3.24017">
        <ele>482.94562</ele>
        <time>2012-10-10T14:27:58Z</time>
      </trkpt>
      <trkpt lat="45.43847" lon="3.24022">
        <ele>481.78586</ele>
        <time>2012-10-10T14:28:00Z</time>
      </trkpt>
      <trkpt lat="45.43873" lon="3.24031">
        <ele>479.98672</ele>
        <time>2012-10-10T14:28:03Z</time>
      </trkpt>
      <trkpt lat="45.43891" lon="3.24035">
        <ele>478.44647</ele>
        <time>2012-10-10T14:28:05Z</time>
      </trkpt>
      <trkpt lat="45.4391" lon="3.24041">
        <ele>477.08008</ele>
        <time>2012-10-10T14:28:07Z</time>
      </trkpt>
      <trkpt lat="45.43936" lon="3.24046">
        <ele>474.39056</ele>
        <time>2012-10-10T14:28:10Z</time>
      </trkpt>
      <trkpt lat="45.43963" lon="3.24048">
        <ele>472.60434</ele>
        <time>2012-10-10T14:28:13Z</time>
      </trkpt>
      <trkpt lat="45.43988" lon="3.24049">
        <ele>470.37735</ele>
        <time>2012-10-10T14:28:16Z</time>
      </trkpt>
      <trkpt lat="45.44015" lon="3.24047">
        <ele>468.57535</ele>
        <time>2012-10-10T14:28:19Z</time>
      </trkpt>
      <trkpt lat="45.44038" lon="3.24047">
        <ele>466.66357</ele>
        <time>2012-10-10T14:28:22Z</time>
      </trkpt>
      <trkpt lat="45.44063" lon="3.24044">
        <ele>464.65076</ele>
        <time>2012-10-10T14:28:25Z</time>
      </trkpt>
      <trkpt lat="45.44085" lon="3.24035">
        <ele>463.4938</ele>
        <time>2012-10-10T14:28:28Z</time>
      </trkpt>
      <trkpt lat="45.44107" lon="3.24022">
        <ele>462.57758</ele>
        <time>2012-10-10T14:28:31Z</time>
      </trkpt>
      <trkpt lat="45.44128" lon="3.24009">
        <ele>461.65512</ele>
        <time>2012-10-10T14:28:34Z</time>
      </trkpt>
      <trkpt lat="45.44149" lon="3.23995">
        <ele>460.55814</ele>
        <time>2012-10-10T14:28:37Z</time>
      </trkpt>
      <trkpt lat="45.44172" lon="3.23981">
        <ele>459.37036</ele>
        <time>2012-10-10T14:28:40Z</time>
      </trkpt>
      <trkpt lat="45.44195" lon="3.23966">
        <ele>458.7427</ele>
        <time>2012-10-10T14:28:43Z</time>
      </trkpt>
      <trkpt lat="45.44216" lon="3.23954">
        <ele>458.70758</ele>
        <time>2012-10-10T14:28:46Z</time>
      </trkpt>
      <trkpt lat="45.44236" lon="3.23943">
        <ele>458.3334</ele>
        <time>2012-10-10T14:28:49Z</time>
      </trkpt>
      <trkpt lat="45.44257" lon="3.23938">
        <ele>457.26462</ele>
        <time>2012-10-10T14:28:52Z</time>
      </trkpt>
      <trkpt lat="45.44281" lon="3.23935">
        <ele>455.73715</ele>
        <time>2012-10-10T14:28:55Z</time>
      </trkpt>
      <trkpt lat="45.44305" lon="3.23932">
        <ele>454.20212</ele>
        <time>2012-10-10T14:28:57Z</time>
      </trkpt>
      <trkpt lat="45.44331" lon="3.23926">
        <ele>452.59515</ele>
        <time>2012-10-10T14:29:01Z</time>
      </trkpt>
      <trkpt lat="45.44355" lon="3.23923">
        <ele>451.01724</ele>
        <time>2012-10-10T14:29:04Z</time>
      </trkpt>
      <trkpt lat="45.44381" lon="3.23918">
        <ele>450.5187</ele>
        <time>2012-10-10T14:29:07Z</time>
      </trkpt>
      <trkpt lat="45.44405" lon="3.23915">
        <ele>449.71466</ele>
        <time>2012-10-10T14:29:09Z</time>
      </trkpt>
      <trkpt lat="45.44429" lon="3.23911">
        <ele>448.71606</ele>
        <time>2012-10-10T14:29:13Z</time>
      </trkpt>
      <trkpt lat="45.44455" lon="3.23906">
        <ele>447.387</ele>
        <time>2012-10-10T14:29:16Z</time>
      </trkpt>
      <trkpt lat="45.44478" lon="3.23901">
        <ele>446.4872</ele>
        <time>2012-10-10T14:29:19Z</time>
      </trkpt>
      <trkpt lat="45.44502" lon="3.23898">
        <ele>445.13104</ele>
        <time>2012-10-10T14:29:22Z</time>
      </trkpt>
      <trkpt lat="45.44526" lon="3.23893">
        <ele>443.57925</ele>
        <time>2012-10-10T14:29:25Z</time>
      </trkpt>
      <trkpt lat="45.44552" lon="3.23888">
        <ele>441.84958</ele>
        <time>2012-10-10T14:29:28Z</time>
      </trkpt>
      <trkpt lat="45.44571" lon="3.23885">
        <ele>440.78183</ele>
        <time>2012-10-10T14:29:30Z</time>
      </trkpt>
      <trkpt lat="45.44589" lon="3.23881">
        <ele>439.96246</ele>
        <time>2012-10-10T14:29:32Z</time>
      </trkpt>
      <trkpt lat="45.44608" lon="3.23881">
        <ele>438.83908</ele>
        <time>2012-10-10T14:29:34Z</time>
      </trkpt>
      <trkpt lat="45.44626" lon="3.23877">
        <ele>437.78217</ele>
        <time>2012-10-10T14:29:36Z</time>
      </trkpt>
      <trkpt lat="45.44645" lon="3.23873">
        <ele>436.9189</ele>
        <time>2012-10-10T14:29:38Z</time>
      </trkpt>
      <trkpt lat="45.44671" lon="3.23869">
        <ele>435.9882</ele>
        <time>2012-10-10T14:29:41Z</time>
      </trkpt>
      <trkpt lat="45.44697" lon="3.23864">
        <ele>435.1471</ele>
        <time>2012-10-10T14:29:44Z</time>
      </trkpt>
      <trkpt lat="45.44722" lon="3.23859">
        <ele>434.1532</ele>
        <time>2012-10-10T14:29:47Z</time>
      </trkpt>
      <trkpt lat="45.44748" lon="3.23854">
        <ele>433.66357</ele>
        <time>2012-10-10T14:29:50Z</time>
      </trkpt>
      <trkpt lat="45.44773" lon="3.23849">
        <ele>433.3461</ele>
        <time>2012-10-10T14:29:53Z</time>
      </trkpt>
      <trkpt lat="45.44797" lon="3.23846">
        <ele>433.33557</ele>
        <time>2012-10-10T14:29:56Z</time>
      </trkpt>
      <trkpt lat="45.44821" lon="3.23842">
        <ele>433.43585</ele>
        <time>2012-10-10T14:29:59Z</time>
      </trkpt>
      <trkpt lat="45.44844" lon="3.23839">
        <ele>433.05002</ele>
        <time>2012-10-10T14:30:02Z</time>
      </trkpt>
      <trkpt lat="45.44866" lon="3.23834">
        <ele>432.6263</ele>
        <time>2012-10-10T14:30:05Z</time>
      </trkpt>
      <trkpt lat="45.44889" lon="3.23831">
        <ele>432.79288</ele>
        <time>2012-10-10T14:30:08Z</time>
      </trkpt>
      <trkpt lat="45.44911" lon="3.23828">
        <ele>432.88187</ele>
        <time>2012-10-10T14:30:11Z</time>
      </trkpt>
      <trkpt lat="45.44937" lon="3.23823">
        <ele>432.6913</ele>
        <time>2012-10-10T14:30:14Z</time>
      </trkpt>
      <trkpt lat="45.44962" lon="3.23819">
        <ele>431.92654</ele>
        <time>2012-10-10T14:30:17Z</time>
      </trkpt>
      <trkpt lat="45.44986" lon="3.23814">
        <ele>431.3492</ele>
        <time>2012-10-10T14:30:20Z</time>
      </trkpt>
      <trkpt lat="45.45011" lon="3.23809">
        <ele>430.89316</ele>
        <time>2012-10-10T14:30:23Z</time>
      </trkpt>
      <trkpt lat="45.45037" lon="3.23804">
        <ele>430.00232</ele>
        <time>2012-10-10T14:30:26Z</time>
      </trkpt>
      <trkpt lat="45.45055" lon="3.23799">
        <ele>429.199</ele>
        <time>2012-10-10T14:30:28Z</time>
      </trkpt>
      <trkpt lat="45.45074" lon="3.23797">
        <ele>428.54086</ele>
        <time>2012-10-10T14:30:30Z</time>
      </trkpt>
      <trkpt lat="45.45099" lon="3.23792">
        <ele>427.26462</ele>
        <time>2012-10-10T14:30:33Z</time>
      </trkpt>
      <trkpt lat="45.45124" lon="3.23787">
        <ele>426.2731</ele>
        <time>2012-10-10T14:30:36Z</time>
      </trkpt>
      <trkpt lat="45.4515" lon="3.23779">
        <ele>425.95322</ele>
        <time>2012-10-10T14:30:39Z</time>
      </trkpt>
      <trkpt lat="45.45171" lon="3.23762">
        <ele>425.71204</ele>
        <time>2012-10-10T14:30:42Z</time>
      </trkpt>
      <trkpt lat="45.45193" lon="3.23745">
        <ele>425.2634</ele>
        <time>2012-10-10T14:30:45Z</time>
      </trkpt>
      <trkpt lat="45.45216" lon="3.23728">
        <ele>425.2429</ele>
        <time>2012-10-10T14:30:48Z</time>
      </trkpt>
      <trkpt lat="45.45238" lon="3.23712">
        <ele>425.5483</ele>
        <time>2012-10-10T14:30:51Z</time>
      </trkpt>
      <trkpt lat="45.45261" lon="3.23717">
        <ele>426.03653</ele>
        <time>2012-10-10T14:30:54Z</time>
      </trkpt>
      <trkpt lat="45.45285" lon="3.23721">
        <ele>425.8503</ele>
        <time>2012-10-10T14:30:57Z</time>
      </trkpt>
      <trkpt lat="45.45306" lon="3.23728">
        <ele>425.6061</ele>
        <time>2012-10-10T14:31:00Z</time>
      </trkpt>
      <trkpt lat="45.45329" lon="3.23733">
        <ele>425.51715</ele>
        <time>2012-10-10T14:31:03Z</time>
      </trkpt>
      <trkpt lat="45.45352" lon="3.23738">
        <ele>425.3515</ele>
        <time>2012-10-10T14:31:06Z</time>
      </trkpt>
      <trkpt lat="45.45375" lon="3.23743">
        <ele>425.46286</ele>
        <time>2012-10-10T14:31:09Z</time>
      </trkpt>
      <trkpt lat="45.45399" lon="3.2374">
        <ele>425.00204</ele>
        <time>2012-10-10T14:31:12Z</time>
      </trkpt>
      <trkpt lat="45.45424" lon="3.23736">
        <ele>423.97638</ele>
        <time>2012-10-10T14:31:15Z</time>
      </trkpt>
      <trkpt lat="45.45448" lon="3.23731">
        <ele>423.70306</ele>
        <time>2012-10-10T14:31:18Z</time>
      </trkpt>
      <trkpt lat="45.45471" lon="3.23721">
        <ele>423.2221</ele>
        <time>2012-10-10T14:31:21Z</time>
      </trkpt>
      <trkpt lat="45.45494" lon="3.23715">
        <ele>422.9083</ele>
        <time>2012-10-10T14:31:24Z</time>
      </trkpt>
      <trkpt lat="45.45518" lon="3.2371">
        <ele>422.2587</ele>
        <time>2012-10-10T14:31:27Z</time>
      </trkpt>
      <trkpt lat="45.45542" lon="3.23699">
        <ele>421.2378</ele>
        <time>2012-10-10T14:31:30Z</time>
      </trkpt>
      <trkpt lat="45.45564" lon="3.23691">
        <ele>421.59302</ele>
        <time>2012-10-10T14:31:33Z</time>
      </trkpt>
      <trkpt lat="45.45584" lon="3.23673">
        <ele>423.2132</ele>
        <time>2012-10-10T14:31:36Z</time>
      </trkpt>
      <trkpt lat="45.45603" lon="3.23655">
        <ele>423.07016</ele>
        <time>2012-10-10T14:31:39Z</time>
      </trkpt>
      <trkpt lat="45.4562" lon="3.23672">
        <ele>419.7862</ele>
        <time>2012-10-10T14:31:46Z</time>
      </trkpt>
      <trkpt lat="45.45631" lon="3.23693">
        <ele>417.66</ele>
        <time>2012-10-10T14:31:49Z</time>
      </trkpt>
      <trkpt lat="45.45643" lon="3.23714">
        <ele>417.41653</ele>
        <time>2012-10-10T14:31:54Z</time>
      </trkpt>
      <trkpt lat="45.45664" lon="3.23712">
        <ele>418.21906</ele>
        <time>2012-10-10T14:32:00Z</time>
      </trkpt>
      <trkpt lat="45.45675" lon="3.23685">
        <ele>418.8817</ele>
        <time>2012-10-10T14:32:04Z</time>
      </trkpt>
      <trkpt lat="45.45686" lon="3.2365">
        <ele>420.6824</ele>
        <time>2012-10-10T14:32:08Z</time>
      </trkpt>
      <trkpt lat="45.45694" lon="3.23624">
        <ele>421.1056</ele>
        <time>2012-10-10T14:32:11Z</time>
      </trkpt>
      <trkpt lat="45.45699" lon="3.23592">
        <ele>420.65558</ele>
        <time>2012-10-10T14:32:15Z</time>
      </trkpt>
      <trkpt lat="45.45703" lon="3.23565">
        <ele>419.8052</ele>
        <time>2012-10-10T14:32:18Z</time>
      </trkpt>
      <trkpt lat="45.45713" lon="3.23539">
        <ele>418.4043</ele>
        <time>2012-10-10T14:32:22Z</time>
      </trkpt>
      <trkpt lat="45.45724" lon="3.23516">
        <ele>417.56482</ele>
        <time>2012-10-10T14:32:25Z</time>
      </trkpt>
      <trkpt lat="45.45732" lon="3.23493">
        <ele>417.4341</ele>
        <time>2012-10-10T14:32:28Z</time>
      </trkpt>
      <trkpt lat="45.45741" lon="3.23468">
        <ele>416.83835</ele>
        <time>2012-10-10T14:32:31Z</time>
      </trkpt>
      <trkpt lat="45.45749" lon="3.23443">
        <ele>416.7339</ele>
        <time>2012-10-10T14:32:34Z</time>
      </trkpt>
      <trkpt lat="45.45757" lon="3.23416">
        <ele>417.0773</ele>
        <time>2012-10-10T14:32:37Z</time>
      </trkpt>
      <trkpt lat="45.4576" lon="3.23387">
        <ele>416.98624</ele>
        <time>2012-10-10T14:32:39Z</time>
      </trkpt>
      <trkpt lat="45.45758" lon="3.23358">
        <ele>416.62283</ele>
        <time>2012-10-10T14:32:43Z</time>
      </trkpt>
      <trkpt lat="45.45756" lon="3.23327">
        <ele>416.07578</ele>
        <time>2012-10-10T14:32:46Z</time>
      </trkpt>
      <trkpt lat="45.45754" lon="3.23297">
        <ele>415.3403</ele>
        <time>2012-10-10T14:32:49Z</time>
      </trkpt>
      <trkpt lat="45.45753" lon="3.23267">
        <ele>416.07065</ele>
        <time>2012-10-10T14:32:52Z</time>
      </trkpt>
      <trkpt lat="45.45751" lon="3.23237">
        <ele>416.59125</ele>
        <time>2012-10-10T14:32:55Z</time>
      </trkpt>
      <trkpt lat="45.45749" lon="3.23209">
        <ele>417.39838</ele>
        <time>2012-10-10T14:32:57Z</time>
      </trkpt>
      <trkpt lat="45.45746" lon="3.23181">
        <ele>418.12015</ele>
        <time>2012-10-10T14:33:01Z</time>
      </trkpt>
      <trkpt lat="45.45744" lon="3.23149">
        <ele>418.56213</ele>
        <time>2012-10-10T14:33:04Z</time>
      </trkpt>
      <trkpt lat="45.45739" lon="3.23121">
        <ele>419.90707</ele>
        <time>2012-10-10T14:33:09Z</time>
      </trkpt>
      <trkpt lat="45.45754" lon="3.2314">
        <ele>417.36612</ele>
        <time>2012-10-10T14:33:22Z</time>
      </trkpt>
      <trkpt lat="45.45754" lon="3.23166">
        <ele>417.78802</ele>
        <time>2012-10-10T14:33:26Z</time>
      </trkpt>
      <trkpt lat="45.45754" lon="3.23197">
        <ele>418.1966</ele>
        <time>2012-10-10T14:33:30Z</time>
      </trkpt>
      <trkpt lat="45.45756" lon="3.23224">
        <ele>418.36783</ele>
        <time>2012-10-10T14:33:34Z</time>
      </trkpt>
      <trkpt lat="45.45762" lon="3.23251">
        <ele>418.9666</ele>
        <time>2012-10-10T14:33:37Z</time>
      </trkpt>
      <trkpt lat="45.45772" lon="3.23274">
        <ele>420.22238</ele>
        <time>2012-10-10T14:33:40Z</time>
      </trkpt>
      <trkpt lat="45.45776" lon="3.23299">
        <ele>422.37402</ele>
        <time>2012-10-10T14:33:43Z</time>
      </trkpt>
      <trkpt lat="45.45783" lon="3.23327">
        <ele>424.22705</ele>
        <time>2012-10-10T14:33:46Z</time>
      </trkpt>
      <trkpt lat="45.45788" lon="3.23358">
        <ele>425.16193</ele>
        <time>2012-10-10T14:33:49Z</time>
      </trkpt>
      <trkpt lat="45.45794" lon="3.23386">
        <ele>426.07666</ele>
        <time>2012-10-10T14:33:52Z</time>
      </trkpt>
      <trkpt lat="45.45799" lon="3.23416">
        <ele>425.13754</ele>
        <time>2012-10-10T14:33:55Z</time>
      </trkpt>
      <trkpt lat="45.45806" lon="3.23447">
        <ele>424.65543</ele>
        <time>2012-10-10T14:33:58Z</time>
      </trkpt>
      <trkpt lat="45.45811" lon="3.23477">
        <ele>423.23483</ele>
        <time>2012-10-10T14:34:01Z</time>
      </trkpt>
      <trkpt lat="45.45816" lon="3.23503">
        <ele>421.9027</ele>
        <time>2012-10-10T14:34:04Z</time>
      </trkpt>
      <trkpt lat="45.45822" lon="3.23534">
        <ele>420.6954</ele>
        <time>2012-10-10T14:34:07Z</time>
      </trkpt>
      <trkpt lat="45.45827" lon="3.23562">
        <ele>420.04077</ele>
        <time>2012-10-10T14:34:10Z</time>
      </trkpt>
      <trkpt lat="45.45834" lon="3.23592">
        <ele>420.0593</ele>
        <time>2012-10-10T14:34:14Z</time>
      </trkpt>
      <trkpt lat="45.45852" lon="3.23605">
        <ele>420.20343</ele>
        <time>2012-10-10T14:34:18Z</time>
      </trkpt>
      <trkpt lat="45.45871" lon="3.2359">
        <ele>421.19708</ele>
        <time>2012-10-10T14:34:22Z</time>
      </trkpt>
      <trkpt lat="45.45889" lon="3.23579">
        <ele>421.56335</ele>
        <time>2012-10-10T14:34:25Z</time>
      </trkpt>
      <trkpt lat="45.45908" lon="3.23577">
        <ele>420.03348</ele>
        <time>2012-10-10T14:34:28Z</time>
      </trkpt>
      <trkpt lat="45.45929" lon="3.23572">
        <ele>418.9959</ele>
        <time>2012-10-10T14:34:31Z</time>
      </trkpt>
      <trkpt lat="45.45948" lon="3.23567">
        <ele>418.20816</ele>
        <time>2012-10-10T14:34:34Z</time>
      </trkpt>
      <trkpt lat="45.45967" lon="3.23562">
        <ele>418.06802</ele>
        <time>2012-10-10T14:34:37Z</time>
      </trkpt>
      <trkpt lat="45.4599" lon="3.23556">
        <ele>417.29483</ele>
        <time>2012-10-10T14:34:40Z</time>
      </trkpt>
      <trkpt lat="45.4601" lon="3.23552">
        <ele>416.25772</ele>
        <time>2012-10-10T14:34:43Z</time>
      </trkpt>
      <trkpt lat="45.46029" lon="3.23547">
        <ele>415.84674</ele>
        <time>2012-10-10T14:34:46Z</time>
      </trkpt>
      <trkpt lat="45.46051" lon="3.23543">
        <ele>414.5854</ele>
        <time>2012-10-10T14:34:50Z</time>
      </trkpt>
      <trkpt lat="45.46071" lon="3.23538">
        <ele>413.39957</ele>
        <time>2012-10-10T14:34:54Z</time>
      </trkpt>
      <trkpt lat="45.46091" lon="3.23535">
        <ele>411.8847</ele>
        <time>2012-10-10T14:34:59Z</time>
      </trkpt>
      <trkpt lat="45.46086" lon="3.23562">
        <ele>410.63498</ele>
        <time>2012-10-10T14:35:06Z</time>
      </trkpt>
      <trkpt lat="45.46084" lon="3.23594">
        <ele>410.51965</ele>
        <time>2012-10-10T14:35:11Z</time>
      </trkpt>
      <trkpt lat="45.46075" lon="3.23621">
        <ele>410.86432</ele>
        <time>2012-10-10T14:35:15Z</time>
      </trkpt>
      <trkpt lat="45.46072" lon="3.23651">
        <ele>410.46634</ele>
        <time>2012-10-10T14:35:19Z</time>
      </trkpt>
      <trkpt lat="45.46068" lon="3.23683">
        <ele>409.97714</ele>
        <time>2012-10-10T14:35:23Z</time>
      </trkpt>
      <trkpt lat="45.4606" lon="3.23712">
        <ele>409.64188</ele>
        <time>2012-10-10T14:35:27Z</time>
      </trkpt>
      <trkpt lat="45.46053" lon="3.23737">
        <ele>409.92096</ele>
        <time>2012-10-10T14:35:30Z</time>
      </trkpt>
      <trkpt lat="45.46037" lon="3.23752">
        <ele>413.40744</ele>
        <time>2012-10-10T14:35:36Z</time>
      </trkpt>
      <trkpt lat="45.4602" lon="3.23767">
        <ele>414.7378</ele>
        <time>2012-10-10T14:35:40Z</time>
      </trkpt>
      <trkpt lat="45.46019" lon="3.23798">
        <ele>415.3889</ele>
        <time>2012-10-10T14:35:45Z</time>
      </trkpt>
      <trkpt lat="45.46022" lon="3.23824">
        <ele>415.74405</ele>
        <time>2012-10-10T14:35:49Z</time>
      </trkpt>
      <trkpt lat="45.46018" lon="3.23849">
        <ele>415.874</ele>
        <time>2012-10-10T14:35:52Z</time>
      </trkpt>
      <trkpt lat="45.46015" lon="3.23879">
        <ele>416.81094</ele>
        <time>2012-10-10T14:35:58Z</time>
      </trkpt>
      <trkpt lat="45.46032" lon="3.2389">
        <ele>418.44968</ele>
        <time>2012-10-10T14:36:05Z</time>
      </trkpt>
      <trkpt lat="45.46054" lon="3.23892">
        <ele>416.20547</ele>
        <time>2012-10-10T14:36:10Z</time>
      </trkpt>
      <trkpt lat="45.46077" lon="3.23889">
        <ele>414.96335</ele>
        <time>2012-10-10T14:36:14Z</time>
      </trkpt>
      <trkpt lat="45.46095" lon="3.23885">
        <ele>414.80225</ele>
        <time>2012-10-10T14:36:17Z</time>
      </trkpt>
      <trkpt lat="45.46114" lon="3.23878">
        <ele>414.11084</ele>
        <time>2012-10-10T14:36:20Z</time>
      </trkpt>
      <trkpt lat="45.46135" lon="3.23873">
        <ele>413.7754</ele>
        <time>2012-10-10T14:36:23Z</time>
      </trkpt>
      <trkpt lat="45.46155" lon="3.2387">
        <ele>413.84015</ele>
        <time>2012-10-10T14:36:26Z</time>
      </trkpt>
      <trkpt lat="45.46176" lon="3.23861">
        <ele>412.8315</ele>
        <time>2012-10-10T14:36:29Z</time>
      </trkpt>
      <trkpt lat="45.46195" lon="3.23855">
        <ele>411.93567</ele>
        <time>2012-10-10T14:36:32Z</time>
      </trkpt>
      <trkpt lat="45.46214" lon="3.23842">
        <ele>410.914</ele>
        <time>2012-10-10T14:36:35Z</time>
      </trkpt>
      <trkpt lat="45.46233" lon="3.23828">
        <ele>410.08768</ele>
        <time>2012-10-10T14:36:38Z</time>
      </trkpt>
      <trkpt lat="45.46252" lon="3.23814">
        <ele>409.3125</ele>
        <time>2012-10-10T14:36:41Z</time>
      </trkpt>
      <trkpt lat="45.46271" lon="3.23801">
        <ele>409.1558</ele>
        <time>2012-10-10T14:36:44Z</time>
      </trkpt>
      <trkpt lat="45.4629" lon="3.23787">
        <ele>409.95374</ele>
        <time>2012-10-10T14:36:47Z</time>
      </trkpt>
      <trkpt lat="45.4631" lon="3.23773">
        <ele>410.04663</ele>
        <time>2012-10-10T14:36:50Z</time>
      </trkpt>
      <trkpt lat="45.46329" lon="3.23756">
        <ele>410.6374</ele>
        <time>2012-10-10T14:36:53Z</time>
      </trkpt>
      <trkpt lat="45.4635" lon="3.23744">
        <ele>410.55222</ele>
        <time>2012-10-10T14:36:56Z</time>
      </trkpt>
      <trkpt lat="45.46371" lon="3.23731">
        <ele>409.66788</ele>
        <time>2012-10-10T14:36:59Z</time>
      </trkpt>
      <trkpt lat="45.46393" lon="3.23718">
        <ele>408.94165</ele>
        <time>2012-10-10T14:37:02Z</time>
      </trkpt>
      <trkpt lat="45.46412" lon="3.23709">
        <ele>409.62277</ele>
        <time>2012-10-10T14:37:05Z</time>
      </trkpt>
      <trkpt lat="45.46431" lon="3.23693">
        <ele>409.72574</ele>
        <time>2012-10-10T14:37:08Z</time>
      </trkpt>
      <trkpt lat="45.46448" lon="3.23676">
        <ele>409.82233</ele>
        <time>2012-10-10T14:37:11Z</time>
      </trkpt>
      <trkpt lat="45.46462" lon="3.23654">
        <ele>408.9068</ele>
        <time>2012-10-10T14:37:14Z</time>
      </trkpt>
      <trkpt lat="45.46479" lon="3.23634">
        <ele>408.48932</ele>
        <time>2012-10-10T14:37:17Z</time>
      </trkpt>
      <trkpt lat="45.46497" lon="3.23617">
        <ele>408.6132</ele>
        <time>2012-10-10T14:37:20Z</time>
      </trkpt>
      <trkpt lat="45.46513" lon="3.23599">
        <ele>409.33264</ele>
        <time>2012-10-10T14:37:23Z</time>
      </trkpt>
      <trkpt lat="45.4653" lon="3.23584">
        <ele>410.10336</ele>
        <time>2012-10-10T14:37:26Z</time>
      </trkpt>
      <trkpt lat="45.46545" lon="3.23565">
        <ele>410.80817</ele>
        <time>2012-10-10T14:37:29Z</time>
      </trkpt>
      <trkpt lat="45.4656" lon="3.23544">
        <ele>411.55084</ele>
        <time>2012-10-10T14:37:32Z</time>
      </trkpt>
      <trkpt lat="45.46575" lon="3.23522">
        <ele>411.80386</ele>
        <time>2012-10-10T14:37:36Z</time>
      </trkpt>
      <trkpt lat="45.46588" lon="3.23495">
        <ele>413.1363</ele>
        <time>2012-10-10T14:37:40Z</time>
      </trkpt>
      <trkpt lat="45.46606" lon="3.23481">
        <ele>413.2653</ele>
        <time>2012-10-10T14:37:44Z</time>
      </trkpt>
      <trkpt lat="45.46623" lon="3.23473">
        <ele>412.5682</ele>
        <time>2012-10-10T14:37:48Z</time>
      </trkpt>
      <trkpt lat="45.46642" lon="3.23462">
        <ele>413.33398</ele>
        <time>2012-10-10T14:37:53Z</time>
      </trkpt>
      <trkpt lat="45.46663" lon="3.23453">
        <ele>413.19073</ele>
        <time>2012-10-10T14:37:57Z</time>
      </trkpt>
      <trkpt lat="45.4668" lon="3.23443">
        <ele>413.38876</ele>
        <time>2012-10-10T14:38:01Z</time>
      </trkpt>
      <trkpt lat="45.46702" lon="3.23433">
        <ele>413.43228</ele>
        <time>2012-10-10T14:38:05Z</time>
      </trkpt>
      <trkpt lat="45.46724" lon="3.23419">
        <ele>413.56793</ele>
        <time>2012-10-10T14:38:09Z</time>
      </trkpt>
      <trkpt lat="45.46743" lon="3.23408">
        <ele>413.8245</ele>
        <time>2012-10-10T14:38:12Z</time>
      </trkpt>
      <trkpt lat="45.46761" lon="3.23396">
        <ele>413.63583</ele>
        <time>2012-10-10T14:38:15Z</time>
      </trkpt>
      <trkpt lat="45.46778" lon="3.23385">
        <ele>413.02188</ele>
        <time>2012-10-10T14:38:18Z</time>
      </trkpt>
      <trkpt lat="45.46796" lon="3.23369">
        <ele>411.38162</ele>
        <time>2012-10-10T14:38:21Z</time>
      </trkpt>
      <trkpt lat="45.46813" lon="3.23356">
        <ele>411.09433</ele>
        <time>2012-10-10T14:38:24Z</time>
      </trkpt>
      <trkpt lat="45.46833" lon="3.23347">
        <ele>410.67935</ele>
        <time>2012-10-10T14:38:27Z</time>
      </trkpt>
      <trkpt lat="45.46854" lon="3.23339">
        <ele>410.74963</ele>
        <time>2012-10-10T14:38:30Z</time>
      </trkpt>
      <trkpt lat="45.46873" lon="3.2333">
        <ele>410.61676</ele>
        <time>2012-10-10T14:38:33Z</time>
      </trkpt>
      <trkpt lat="45.46895" lon="3.23323">
        <ele>411.69196</ele>
        <time>2012-10-10T14:38:36Z</time>
      </trkpt>
      <trkpt lat="45.46917" lon="3.23311">
        <ele>411.26276</ele>
        <time>2012-10-10T14:38:39Z</time>
      </trkpt>
      <trkpt lat="45.46938" lon="3.23292">
        <ele>410.052</ele>
        <time>2012-10-10T14:38:42Z</time>
      </trkpt>
      <trkpt lat="45.4696" lon="3.23269">
        <ele>409.40994</ele>
        <time>2012-10-10T14:38:45Z</time>
      </trkpt>
      <trkpt lat="45.46981" lon="3.23249">
        <ele>408.09534</ele>
        <time>2012-10-10T14:38:48Z</time>
      </trkpt>
      <trkpt lat="45.47" lon="3.23229">
        <ele>406.27356</ele>
        <time>2012-10-10T14:38:51Z</time>
      </trkpt>
      <trkpt lat="45.47019" lon="3.23209">
        <ele>405.5534</ele>
        <time>2012-10-10T14:38:54Z</time>
      </trkpt>
      <trkpt lat="45.47038" lon="3.23189">
        <ele>405.07617</ele>
        <time>2012-10-10T14:38:57Z</time>
      </trkpt>
      <trkpt lat="45.47055" lon="3.23174">
        <ele>404.85608</ele>
        <time>2012-10-10T14:39:00Z</time>
      </trkpt>
      <trkpt lat="45.47072" lon="3.23155">
        <ele>404.75854</ele>
        <time>2012-10-10T14:39:03Z</time>
      </trkpt>
      <trkpt lat="45.47087" lon="3.23135">
        <ele>404.0299</ele>
        <time>2012-10-10T14:39:06Z</time>
      </trkpt>
      <trkpt lat="45.47101" lon="3.23118">
        <ele>405.14438</ele>
        <time>2012-10-10T14:39:09Z</time>
      </trkpt>
      <trkpt lat="45.47117" lon="3.23101">
        <ele>406.68643</ele>
        <time>2012-10-10T14:39:12Z</time>
      </trkpt>
      <trkpt lat="45.47136" lon="3.23081">
        <ele>407.39795</ele>
        <time>2012-10-10T14:39:16Z</time>
      </trkpt>
      <trkpt lat="45.47148" lon="3.23058">
        <ele>407.09262</ele>
        <time>2012-10-10T14:39:20Z</time>
      </trkpt>
      <trkpt lat="45.47144" lon="3.23032">
        <ele>406.74014</ele>
        <time>2012-10-10T14:39:24Z</time>
      </trkpt>
      <trkpt lat="45.47139" lon="3.23005">
        <ele>406.96417</ele>
        <time>2012-10-10T14:39:28Z</time>
      </trkpt>
      <trkpt lat="45.47129" lon="3.22974">
        <ele>407.21747</ele>
        <time>2012-10-10T14:39:32Z</time>
      </trkpt>
      <trkpt lat="45.4712" lon="3.22946">
        <ele>408.09802</ele>
        <time>2012-10-10T14:39:36Z</time>
      </trkpt>
      <trkpt lat="45.47107" lon="3.22919">
        <ele>407.37857</ele>
        <time>2012-10-10T14:39:40Z</time>
      </trkpt>
      <trkpt lat="45.47094" lon="3.22891">
        <ele>408.25952</ele>
        <time>2012-10-10T14:39:44Z</time>
      </trkpt>
      <trkpt lat="45.47085" lon="3.22862">
        <ele>409.10428</ele>
        <time>2012-10-10T14:39:48Z</time>
      </trkpt>
      <trkpt lat="45.4708" lon="3.22832">
        <ele>410.19617</ele>
        <time>2012-10-10T14:39:52Z</time>
      </trkpt>
      <trkpt lat="45.47079" lon="3.228">
        <ele>411.0276</ele>
        <time>2012-10-10T14:39:56Z</time>
      </trkpt>
      <trkpt lat="45.47079" lon="3.22767">
        <ele>410.59418</ele>
        <time>2012-10-10T14:40:00Z</time>
      </trkpt>
      <trkpt lat="45.47079" lon="3.22739">
        <ele>410.41214</ele>
        <time>2012-10-10T14:40:03Z</time>
      </trkpt>
      <trkpt lat="45.47081" lon="3.22708">
        <ele>410.51233</ele>
        <time>2012-10-10T14:40:07Z</time>
      </trkpt>
      <trkpt lat="45.47083" lon="3.22675">
        <ele>410.3917</ele>
        <time>2012-10-10T14:40:11Z</time>
      </trkpt>
      <trkpt lat="45.47082" lon="3.22641">
        <ele>410.53906</ele>
        <time>2012-10-10T14:40:15Z</time>
      </trkpt>
      <trkpt lat="45.47083" lon="3.2261">
        <ele>410.7814</ele>
        <time>2012-10-10T14:40:19Z</time>
      </trkpt>
      <trkpt lat="45.47084" lon="3.22578">
        <ele>411.2573</ele>
        <time>2012-10-10T14:40:23Z</time>
      </trkpt>
      <trkpt lat="45.47088" lon="3.22548">
        <ele>411.652</ele>
        <time>2012-10-10T14:40:27Z</time>
      </trkpt>
      <trkpt lat="45.47096" lon="3.22516">
        <ele>411.514</ele>
        <time>2012-10-10T14:40:31Z</time>
      </trkpt>
      <trkpt lat="45.47104" lon="3.22492">
        <ele>412.05017</ele>
        <time>2012-10-10T14:40:34Z</time>
      </trkpt>
      <trkpt lat="45.47114" lon="3.22462">
        <ele>412.2185</ele>
        <time>2012-10-10T14:40:38Z</time>
      </trkpt>
      <trkpt lat="45.47122" lon="3.22438">
        <ele>412.0849</ele>
        <time>2012-10-10T14:40:41Z</time>
      </trkpt>
      <trkpt lat="45.47131" lon="3.22415">
        <ele>412.10822</ele>
        <time>2012-10-10T14:40:44Z</time>
      </trkpt>
      <trkpt lat="45.47139" lon="3.22392">
        <ele>412.23053</ele>
        <time>2012-10-10T14:40:47Z</time>
      </trkpt>
      <trkpt lat="45.47146" lon="3.22363">
        <ele>411.90213</ele>
        <time>2012-10-10T14:40:51Z</time>
      </trkpt>
      <trkpt lat="45.47154" lon="3.2234">
        <ele>411.94315</ele>
        <time>2012-10-10T14:40:55Z</time>
      </trkpt>
      <trkpt lat="45.47162" lon="3.22317">
        <ele>411.71262</ele>
        <time>2012-10-10T14:41:00Z</time>
      </trkpt>
      <trkpt lat="45.47173" lon="3.22295">
        <ele>414.3941</ele>
        <time>2012-10-10T14:42:14Z</time>
      </trkpt>
      <trkpt lat="45.47191" lon="3.22279">
        <ele>414.74994</ele>
        <time>2012-10-10T14:42:20Z</time>
      </trkpt>
      <trkpt lat="45.47208" lon="3.22267">
        <ele>414.94147</ele>
        <time>2012-10-10T14:42:24Z</time>
      </trkpt>
      <trkpt lat="45.47224" lon="3.22253">
        <ele>414.5306</ele>
        <time>2012-10-10T14:42:28Z</time>
      </trkpt>
      <trkpt lat="45.47242" lon="3.22237">
        <ele>414.1592</ele>
        <time>2012-10-10T14:42:32Z</time>
      </trkpt>
      <trkpt lat="45.47259" lon="3.2222">
        <ele>414.19168</ele>
        <time>2012-10-10T14:42:36Z</time>
      </trkpt>
      <trkpt lat="45.47274" lon="3.22203">
        <ele>414.38293</ele>
        <time>2012-10-10T14:42:39Z</time>
      </trkpt>
      <trkpt lat="45.47293" lon="3.22186">
        <ele>414.08044</ele>
        <time>2012-10-10T14:42:43Z</time>
      </trkpt>
      <trkpt lat="45.47312" lon="3.22172">
        <ele>415.76443</ele>
        <time>2012-10-10T14:42:47Z</time>
      </trkpt>
      <trkpt lat="45.47329" lon="3.22156">
        <ele>417.14645</ele>
        <time>2012-10-10T14:42:51Z</time>
      </trkpt>
      <trkpt lat="45.47349" lon="3.22142">
        <ele>418.59116</ele>
        <time>2012-10-10T14:42:55Z</time>
      </trkpt>
      <trkpt lat="45.47365" lon="3.2213">
        <ele>418.18115</ele>
        <time>2012-10-10T14:42:58Z</time>
      </trkpt>
      <trkpt lat="45.47383" lon="3.22117">
        <ele>417.46307</ele>
        <time>2012-10-10T14:43:02Z</time>
      </trkpt>
      <trkpt lat="45.47401" lon="3.22109">
        <ele>416.11462</ele>
        <time>2012-10-10T14:43:05Z</time>
      </trkpt>
      <trkpt lat="45.47419" lon="3.22103">
        <ele>415.3223</ele>
        <time>2012-10-10T14:43:08Z</time>
      </trkpt>
      <trkpt lat="45.47438" lon="3.22095">
        <ele>415.37244</ele>
        <time>2012-10-10T14:43:11Z</time>
      </trkpt>
      <trkpt lat="45.4746" lon="3.22087">
        <ele>416.5623</ele>
        <time>2012-10-10T14:43:15Z</time>
      </trkpt>
      <trkpt lat="45.47477" lon="3.22077">
        <ele>416.50336</ele>
        <time>2012-10-10T14:43:18Z</time>
      </trkpt>
      <trkpt lat="45.47496" lon="3.22071">
        <ele>416.86444</ele>
        <time>2012-10-10T14:43:21Z</time>
      </trkpt>
      <trkpt lat="45.47518" lon="3.22061">
        <ele>417.72498</ele>
        <time>2012-10-10T14:43:25Z</time>
      </trkpt>
      <trkpt lat="45.4754" lon="3.22055">
        <ele>418.94882</ele>
        <time>2012-10-10T14:43:29Z</time>
      </trkpt>
      <trkpt lat="45.47562" lon="3.2205">
        <ele>419.11185</ele>
        <time>2012-10-10T14:43:33Z</time>
      </trkpt>
      <trkpt lat="45.47585" lon="3.22044">
        <ele>419.9552</ele>
        <time>2012-10-10T14:43:37Z</time>
      </trkpt>
      <trkpt lat="45.47608" lon="3.2204">
        <ele>419.73105</ele>
        <time>2012-10-10T14:43:41Z</time>
      </trkpt>
      <trkpt lat="45.47631" lon="3.22037">
        <ele>419.20035</ele>
        <time>2012-10-10T14:43:45Z</time>
      </trkpt>
      <trkpt lat="45.47654" lon="3.22035">
        <ele>419.38516</ele>
        <time>2012-10-10T14:43:49Z</time>
      </trkpt>
      <trkpt lat="45.47674" lon="3.22036">
        <ele>419.37082</ele>
        <time>2012-10-10T14:43:52Z</time>
      </trkpt>
      <trkpt lat="45.47697" lon="3.22037">
        <ele>419.41333</ele>
        <time>2012-10-10T14:43:56Z</time>
      </trkpt>
      <trkpt lat="45.47716" lon="3.22038">
        <ele>419.01395</ele>
        <time>2012-10-10T14:43:59Z</time>
      </trkpt>
      <trkpt lat="45.47739" lon="3.2204">
        <ele>418.83362</ele>
        <time>2012-10-10T14:44:03Z</time>
      </trkpt>
      <trkpt lat="45.47762" lon="3.22042">
        <ele>418.66953</ele>
        <time>2012-10-10T14:44:07Z</time>
      </trkpt>
      <trkpt lat="45.4778" lon="3.22042">
        <ele>418.7267</ele>
        <time>2012-10-10T14:44:10Z</time>
      </trkpt>
      <trkpt lat="45.47798" lon="3.22047">
        <ele>419.50085</ele>
        <time>2012-10-10T14:44:13Z</time>
      </trkpt>
      <trkpt lat="45.4782" lon="3.2205">
        <ele>420.8158</ele>
        <time>2012-10-10T14:44:17Z</time>
      </trkpt>
      <trkpt lat="45.47843" lon="3.22053">
        <ele>420.97598</ele>
        <time>2012-10-10T14:44:21Z</time>
      </trkpt>
      <trkpt lat="45.47865" lon="3.22059">
        <ele>420.86066</ele>
        <time>2012-10-10T14:44:25Z</time>
      </trkpt>
      <trkpt lat="45.47889" lon="3.22061">
        <ele>420.67886</ele>
        <time>2012-10-10T14:44:29Z</time>
      </trkpt>
      <trkpt lat="45.47908" lon="3.22066">
        <ele>420.03378</ele>
        <time>2012-10-10T14:44:32Z</time>
      </trkpt>
      <trkpt lat="45.47925" lon="3.22074">
        <ele>418.46008</ele>
        <time>2012-10-10T14:44:35Z</time>
      </trkpt>
      <trkpt lat="45.47946" lon="3.2208">
        <ele>417.36383</ele>
        <time>2012-10-10T14:44:39Z</time>
      </trkpt>
      <trkpt lat="45.47965" lon="3.22084">
        <ele>417.1357</ele>
        <time>2012-10-10T14:44:43Z</time>
      </trkpt>
      <trkpt lat="45.47985" lon="3.22086">
        <ele>416.98306</ele>
        <time>2012-10-10T14:44:47Z</time>
      </trkpt>
      <trkpt lat="45.48003" lon="3.22086">
        <ele>417.00745</ele>
        <time>2012-10-10T14:44:50Z</time>
      </trkpt>
      <trkpt lat="45.48026" lon="3.22078">
        <ele>417.05695</ele>
        <time>2012-10-10T14:44:54Z</time>
      </trkpt>
      <trkpt lat="45.48045" lon="3.22082">
        <ele>416.6636</ele>
        <time>2012-10-10T14:44:57Z</time>
      </trkpt>
      <trkpt lat="45.48067" lon="3.22093">
        <ele>418.1997</ele>
        <time>2012-10-10T14:45:01Z</time>
      </trkpt>
      <trkpt lat="45.48089" lon="3.22096">
        <ele>420.14825</ele>
        <time>2012-10-10T14:45:05Z</time>
      </trkpt>
      <trkpt lat="45.48108" lon="3.22095">
        <ele>420.8568</ele>
        <time>2012-10-10T14:45:08Z</time>
      </trkpt>
      <trkpt lat="45.48129" lon="3.22096">
        <ele>422.5714</ele>
        <time>2012-10-10T14:45:12Z</time>
      </trkpt>
      <trkpt lat="45.48151" lon="3.22094">
        <ele>425.75836</ele>
        <time>2012-10-10T14:45:17Z</time>
      </trkpt>
      <trkpt lat="45.48172" lon="3.22095">
        <ele>426.7176</ele>
        <time>2012-10-10T14:45:21Z</time>
      </trkpt>
      <trkpt lat="45.48192" lon="3.2209">
        <ele>427.9121</ele>
        <time>2012-10-10T14:45:25Z</time>
      </trkpt>
      <trkpt lat="45.48212" lon="3.22092">
        <ele>429.0338</ele>
        <time>2012-10-10T14:45:28Z</time>
      </trkpt>
      <trkpt lat="45.4823" lon="3.22097">
        <ele>430.07468</ele>
        <time>2012-10-10T14:45:33Z</time>
      </trkpt>
      <trkpt lat="45.48249" lon="3.22101">
        <ele>431.24033</ele>
        <time>2012-10-10T14:45:37Z</time>
      </trkpt>
      <trkpt lat="45.4827" lon="3.2211">
        <ele>434.89435</ele>
        <time>2012-10-10T14:45:42Z</time>
      </trkpt>
      <trkpt lat="45.48293" lon="3.22111">
        <ele>437.09186</ele>
        <time>2012-10-10T14:45:47Z</time>
      </trkpt>
      <trkpt lat="45.48316" lon="3.22116">
        <ele>437.26413</ele>
        <time>2012-10-10T14:45:51Z</time>
      </trkpt>
      <trkpt lat="45.48339" lon="3.22113">
        <ele>436.6065</ele>
        <time>2012-10-10T14:45:55Z</time>
      </trkpt>
      <trkpt lat="45.48357" lon="3.22108">
        <ele>435.76263</ele>
        <time>2012-10-10T14:45:58Z</time>
      </trkpt>
      <trkpt lat="45.4838" lon="3.22099">
        <ele>435.3256</ele>
        <time>2012-10-10T14:46:02Z</time>
      </trkpt>
      <trkpt lat="45.48402" lon="3.2209">
        <ele>435.1916</ele>
        <time>2012-10-10T14:46:06Z</time>
      </trkpt>
      <trkpt lat="45.48422" lon="3.22081">
        <ele>435.84177</ele>
        <time>2012-10-10T14:46:10Z</time>
      </trkpt>
      <trkpt lat="45.48442" lon="3.22074">
        <ele>435.84476</ele>
        <time>2012-10-10T14:46:14Z</time>
      </trkpt>
      <trkpt lat="45.48462" lon="3.22067">
        <ele>435.85587</ele>
        <time>2012-10-10T14:46:18Z</time>
      </trkpt>
      <trkpt lat="45.48482" lon="3.22059">
        <ele>436.05624</ele>
        <time>2012-10-10T14:46:22Z</time>
      </trkpt>
      <trkpt lat="45.48502" lon="3.22055">
        <ele>436.6595</ele>
        <time>2012-10-10T14:46:26Z</time>
      </trkpt>
      <trkpt lat="45.48515" lon="3.22077">
        <ele>436.33148</ele>
        <time>2012-10-10T14:46:33Z</time>
      </trkpt>
      <trkpt lat="45.48516" lon="3.22105">
        <ele>436.7162</ele>
        <time>2012-10-10T14:46:38Z</time>
      </trkpt>
      <trkpt lat="45.48518" lon="3.22133">
        <ele>436.17554</ele>
        <time>2012-10-10T14:46:43Z</time>
      </trkpt>
      <trkpt lat="45.48519" lon="3.2216">
        <ele>435.85303</ele>
        <time>2012-10-10T14:46:48Z</time>
      </trkpt>
      <trkpt lat="45.48521" lon="3.22188">
        <ele>435.36462</ele>
        <time>2012-10-10T14:46:54Z</time>
      </trkpt>
      <trkpt lat="45.48522" lon="3.22214">
        <ele>437.86932</ele>
        <time>2012-10-10T14:47:00Z</time>
      </trkpt>
      <trkpt lat="45.48524" lon="3.22241">
        <ele>439.08615</ele>
        <time>2012-10-10T14:47:06Z</time>
      </trkpt>
      <trkpt lat="45.48535" lon="3.22261">
        <ele>439.2049</ele>
        <time>2012-10-10T14:47:12Z</time>
      </trkpt>
      <trkpt lat="45.48553" lon="3.22274">
        <ele>442.05832</ele>
        <time>2012-10-10T14:47:19Z</time>
      </trkpt>
      <trkpt lat="45.4857" lon="3.22284">
        <ele>444.01053</ele>
        <time>2012-10-10T14:47:25Z</time>
      </trkpt>
      <trkpt lat="45.48587" lon="3.22297">
        <ele>446.24628</ele>
        <time>2012-10-10T14:47:32Z</time>
      </trkpt>
      <trkpt lat="45.48605" lon="3.22308">
        <ele>447.64795</ele>
        <time>2012-10-10T14:47:39Z</time>
      </trkpt>
      <trkpt lat="45.48625" lon="3.22313">
        <ele>447.55804</ele>
        <time>2012-10-10T14:47:46Z</time>
      </trkpt>
      <trkpt lat="45.48643" lon="3.22317">
        <ele>448.40363</ele>
        <time>2012-10-10T14:47:52Z</time>
      </trkpt>
      <trkpt lat="45.48663" lon="3.22321">
        <ele>449.84515</ele>
        <time>2012-10-10T14:47:59Z</time>
      </trkpt>
      <trkpt lat="45.48682" lon="3.22323">
        <ele>450.3936</ele>
        <time>2012-10-10T14:48:05Z</time>
      </trkpt>
      <trkpt lat="45.487" lon="3.22326">
        <ele>451.30856</ele>
        <time>2012-10-10T14:48:11Z</time>
      </trkpt>
      <trkpt lat="45.48719" lon="3.22329">
        <ele>452.59436</ele>
        <time>2012-10-10T14:48:17Z</time>
      </trkpt>
      <trkpt lat="45.48739" lon="3.22331">
        <ele>454.36642</ele>
        <time>2012-10-10T14:48:23Z</time>
      </trkpt>
      <trkpt lat="45.48758" lon="3.22333">
        <ele>455.26563</ele>
        <time>2012-10-10T14:48:29Z</time>
      </trkpt>
      <trkpt lat="45.48776" lon="3.22339">
        <ele>456.0339</ele>
        <time>2012-10-10T14:48:35Z</time>
      </trkpt>
      <trkpt lat="45.48794" lon="3.22345">
        <ele>457.6196</ele>
        <time>2012-10-10T14:48:41Z</time>
      </trkpt>
      <trkpt lat="45.48814" lon="3.22351">
        <ele>459.27606</ele>
        <time>2012-10-10T14:48:47Z</time>
      </trkpt>
      <trkpt lat="45.48831" lon="3.22359">
        <ele>461.78067</ele>
        <time>2012-10-10T14:48:53Z</time>
      </trkpt>
      <trkpt lat="45.48851" lon="3.22367">
        <ele>463.73032</ele>
        <time>2012-10-10T14:49:00Z</time>
      </trkpt>
      <trkpt lat="45.48872" lon="3.22372">
        <ele>464.53714</ele>
        <time>2012-10-10T14:49:07Z</time>
      </trkpt>
      <trkpt lat="45.48889" lon="3.22379">
        <ele>465.98752</ele>
        <time>2012-10-10T14:49:13Z</time>
      </trkpt>
      <trkpt lat="45.48907" lon="3.22382">
        <ele>467.96014</ele>
        <time>2012-10-10T14:49:19Z</time>
      </trkpt>
      <trkpt lat="45.48925" lon="3.22388">
        <ele>469.07095</ele>
        <time>2012-10-10T14:49:25Z</time>
      </trkpt>
      <trkpt lat="45.48944" lon="3.22395">
        <ele>470.48227</ele>
        <time>2012-10-10T14:49:32Z</time>
      </trkpt>
      <trkpt lat="45.48963" lon="3.22394">
        <ele>472.49792</ele>
        <time>2012-10-10T14:49:38Z</time>
      </trkpt>
      <trkpt lat="45.48981" lon="3.22392">
        <ele>472.58636</ele>
        <time>2012-10-10T14:49:43Z</time>
      </trkpt>
      <trkpt lat="45.49001" lon="3.22385">
        <ele>473.01007</ele>
        <time>2012-10-10T14:49:48Z</time>
      </trkpt>
      <trkpt lat="45.49022" lon="3.2238">
        <ele>473.86218</ele>
        <time>2012-10-10T14:49:53Z</time>
      </trkpt>
      <trkpt lat="45.49043" lon="3.22378">
        <ele>475.70337</ele>
        <time>2012-10-10T14:49:58Z</time>
      </trkpt>
      <trkpt lat="45.49062" lon="3.22375">
        <ele>477.2645</ele>
        <time>2012-10-10T14:50:03Z</time>
      </trkpt>
      <trkpt lat="45.49081" lon="3.22374">
        <ele>477.78583</ele>
        <time>2012-10-10T14:50:08Z</time>
      </trkpt>
      <trkpt lat="45.49102" lon="3.22374">
        <ele>479.15314</ele>
        <time>2012-10-10T14:50:14Z</time>
      </trkpt>
      <trkpt lat="45.49121" lon="3.2237">
        <ele>479.07132</ele>
        <time>2012-10-10T14:50:19Z</time>
      </trkpt>
      <trkpt lat="45.4914" lon="3.22365">
        <ele>478.9687</ele>
        <time>2012-10-10T14:50:24Z</time>
      </trkpt>
      <trkpt lat="45.4916" lon="3.2236">
        <ele>479.02045</ele>
        <time>2012-10-10T14:50:29Z</time>
      </trkpt>
      <trkpt lat="45.49182" lon="3.22353">
        <ele>478.78583</ele>
        <time>2012-10-10T14:50:34Z</time>
      </trkpt>
      <trkpt lat="45.492" lon="3.22348">
        <ele>479.76065</ele>
        <time>2012-10-10T14:50:38Z</time>
      </trkpt>
      <trkpt lat="45.49222" lon="3.22346">
        <ele>479.71658</ele>
        <time>2012-10-10T14:50:43Z</time>
      </trkpt>
      <trkpt lat="45.49243" lon="3.22343">
        <ele>479.2152</ele>
        <time>2012-10-10T14:50:48Z</time>
      </trkpt>
      <trkpt lat="45.49264" lon="3.22342">
        <ele>479.8172</ele>
        <time>2012-10-10T14:50:53Z</time>
      </trkpt>
      <trkpt lat="45.49283" lon="3.22339">
        <ele>480.98145</ele>
        <time>2012-10-10T14:50:58Z</time>
      </trkpt>
      <trkpt lat="45.49294" lon="3.22318">
        <ele>480.65515</ele>
        <time>2012-10-10T14:51:04Z</time>
      </trkpt>
      <trkpt lat="45.49292" lon="3.22287">
        <ele>479.19565</ele>
        <time>2012-10-10T14:51:07Z</time>
      </trkpt>
      <trkpt lat="45.49299" lon="3.2226">
        <ele>478.36276</ele>
        <time>2012-10-10T14:51:10Z</time>
      </trkpt>
      <trkpt lat="45.4932" lon="3.22251">
        <ele>477.91232</ele>
        <time>2012-10-10T14:51:14Z</time>
      </trkpt>
      <trkpt lat="45.49339" lon="3.22247">
        <ele>477.74478</ele>
        <time>2012-10-10T14:51:17Z</time>
      </trkpt>
      <trkpt lat="45.4936" lon="3.22237">
        <ele>477.67737</ele>
        <time>2012-10-10T14:51:21Z</time>
      </trkpt>
      <trkpt lat="45.49382" lon="3.22229">
        <ele>477.1361</ele>
        <time>2012-10-10T14:51:25Z</time>
      </trkpt>
      <trkpt lat="45.49404" lon="3.2222">
        <ele>477.35822</ele>
        <time>2012-10-10T14:51:29Z</time>
      </trkpt>
      <trkpt lat="45.49427" lon="3.22216">
        <ele>477.3976</ele>
        <time>2012-10-10T14:51:33Z</time>
      </trkpt>
      <trkpt lat="45.4945" lon="3.2221">
        <ele>476.36517</ele>
        <time>2012-10-10T14:51:37Z</time>
      </trkpt>
      <trkpt lat="45.49468" lon="3.22209">
        <ele>475.96115</ele>
        <time>2012-10-10T14:51:41Z</time>
      </trkpt>
      <trkpt lat="45.4949" lon="3.22205">
        <ele>476.94092</ele>
        <time>2012-10-10T14:51:46Z</time>
      </trkpt>
      <trkpt lat="45.4951" lon="3.22205">
        <ele>478.1992</ele>
        <time>2012-10-10T14:51:50Z</time>
      </trkpt>
      <trkpt lat="45.4953" lon="3.22198">
        <ele>479.5605</ele>
        <time>2012-10-10T14:51:55Z</time>
      </trkpt>
      <trkpt lat="45.49548" lon="3.22195">
        <ele>480.32297</ele>
        <time>2012-10-10T14:51:59Z</time>
      </trkpt>
      <trkpt lat="45.49569" lon="3.2219">
        <ele>480.47787</ele>
        <time>2012-10-10T14:52:03Z</time>
      </trkpt>
      <trkpt lat="45.49588" lon="3.22189">
        <ele>480.55542</ele>
        <time>2012-10-10T14:52:07Z</time>
      </trkpt>
      <trkpt lat="45.49611" lon="3.22188">
        <ele>479.46198</ele>
        <time>2012-10-10T14:52:11Z</time>
      </trkpt>
      <trkpt lat="45.49631" lon="3.22192">
        <ele>477.97342</ele>
        <time>2012-10-10T14:52:15Z</time>
      </trkpt>
      <trkpt lat="45.49654" lon="3.22193">
        <ele>477.07635</ele>
        <time>2012-10-10T14:52:20Z</time>
      </trkpt>
      <trkpt lat="45.49673" lon="3.22195">
        <ele>476.92288</ele>
        <time>2012-10-10T14:52:24Z</time>
      </trkpt>
      <trkpt lat="45.49693" lon="3.22197">
        <ele>476.613</ele>
        <time>2012-10-10T14:52:28Z</time>
      </trkpt>
      <trkpt lat="45.49714" lon="3.22201">
        <ele>476.70926</ele>
        <time>2012-10-10T14:52:33Z</time>
      </trkpt>
      <trkpt lat="45.49737" lon="3.22205">
        <ele>476.7664</ele>
        <time>2012-10-10T14:52:38Z</time>
      </trkpt>
      <trkpt lat="45.49756" lon="3.22209">
        <ele>477.06738</ele>
        <time>2012-10-10T14:52:42Z</time>
      </trkpt>
      <trkpt lat="45.49775" lon="3.22203">
        <ele>477.46887</ele>
        <time>2012-10-10T14:52:46Z</time>
      </trkpt>
      <trkpt lat="45.49794" lon="3.22196">
        <ele>477.56427</ele>
        <time>2012-10-10T14:52:50Z</time>
      </trkpt>
      <trkpt lat="45.49814" lon="3.22187">
        <ele>477.02768</ele>
        <time>2012-10-10T14:52:54Z</time>
      </trkpt>
      <trkpt lat="45.49834" lon="3.2218">
        <ele>476.49225</ele>
        <time>2012-10-10T14:52:58Z</time>
      </trkpt>
      <trkpt lat="45.49854" lon="3.22179">
        <ele>476.77988</ele>
        <time>2012-10-10T14:53:02Z</time>
      </trkpt>
      <trkpt lat="45.49872" lon="3.22181">
        <ele>477.17245</ele>
        <time>2012-10-10T14:53:06Z</time>
      </trkpt>
      <trkpt lat="45.4989" lon="3.22183">
        <ele>477.33377</ele>
        <time>2012-10-10T14:53:10Z</time>
      </trkpt>
      <trkpt lat="45.49911" lon="3.22186">
        <ele>477.4437</ele>
        <time>2012-10-10T14:53:15Z</time>
      </trkpt>
      <trkpt lat="45.49931" lon="3.22192">
        <ele>478.4882</ele>
        <time>2012-10-10T14:53:21Z</time>
      </trkpt>
      <trkpt lat="45.49951" lon="3.22189">
        <ele>479.739</ele>
        <time>2012-10-10T14:53:27Z</time>
      </trkpt>
      <trkpt lat="45.49972" lon="3.2219">
        <ele>481.2628</ele>
        <time>2012-10-10T14:53:33Z</time>
      </trkpt>
      <trkpt lat="45.49992" lon="3.22191">
        <ele>482.6894</ele>
        <time>2012-10-10T14:53:39Z</time>
      </trkpt>
      <trkpt lat="45.50011" lon="3.22197">
        <ele>484.3403</ele>
        <time>2012-10-10T14:53:45Z</time>
      </trkpt>
      <trkpt lat="45.50031" lon="3.22199">
        <ele>486.33203</ele>
        <time>2012-10-10T14:53:51Z</time>
      </trkpt>
      <trkpt lat="45.50049" lon="3.2219">
        <ele>487.2059</ele>
        <time>2012-10-10T14:53:56Z</time>
      </trkpt>
      <trkpt lat="45.50066" lon="3.22179">
        <ele>489.08252</ele>
        <time>2012-10-10T14:54:06Z</time>
      </trkpt>
      <trkpt lat="45.50077" lon="3.22203">
        <ele>489.14648</ele>
        <time>2012-10-10T14:54:13Z</time>
      </trkpt>
      <trkpt lat="45.50088" lon="3.22223">
        <ele>492.7997</ele>
        <time>2012-10-10T14:56:16Z</time>
      </trkpt>
      <trkpt lat="45.50095" lon="3.22248">
        <ele>491.70413</ele>
        <time>2012-10-10T14:56:23Z</time>
      </trkpt>
      <trkpt lat="45.501" lon="3.22274">
        <ele>493.63675</ele>
        <time>2012-10-10T14:56:31Z</time>
      </trkpt>
      <trkpt lat="45.5011" lon="3.22296">
        <ele>493.1966</ele>
        <time>2012-10-10T14:56:38Z</time>
      </trkpt>
      <trkpt lat="45.50128" lon="3.22309">
        <ele>494.40833</ele>
        <time>2012-10-10T14:56:45Z</time>
      </trkpt>
      <trkpt lat="45.50145" lon="3.22319">
        <ele>497.32663</ele>
        <time>2012-10-10T14:56:52Z</time>
      </trkpt>
      <trkpt lat="45.50165" lon="3.22325">
        <ele>499.79456</ele>
        <time>2012-10-10T14:56:58Z</time>
      </trkpt>
      <trkpt lat="45.50182" lon="3.22334">
        <ele>499.85333</ele>
        <time>2012-10-10T14:57:04Z</time>
      </trkpt>
      <trkpt lat="45.50198" lon="3.22346">
        <ele>501.57343</ele>
        <time>2012-10-10T14:57:11Z</time>
      </trkpt>
      <trkpt lat="45.50215" lon="3.22358">
        <ele>499.48315</ele>
        <time>2012-10-10T14:57:17Z</time>
      </trkpt>
      <trkpt lat="45.50232" lon="3.22374">
        <ele>498.74167</ele>
        <time>2012-10-10T14:57:23Z</time>
      </trkpt>
      <trkpt lat="45.50249" lon="3.22388">
        <ele>498.34375</ele>
        <time>2012-10-10T14:57:30Z</time>
      </trkpt>
      <trkpt lat="45.50265" lon="3.22401">
        <ele>499.6623</ele>
        <time>2012-10-10T14:57:36Z</time>
      </trkpt>
      <trkpt lat="45.50283" lon="3.22413">
        <ele>501.76855</ele>
        <time>2012-10-10T14:57:41Z</time>
      </trkpt>
      <trkpt lat="45.50303" lon="3.22427">
        <ele>505.81528</ele>
        <time>2012-10-10T14:57:50Z</time>
      </trkpt>
      <trkpt lat="45.50317" lon="3.22446">
        <ele>503.75034</ele>
        <time>2012-10-10T14:57:55Z</time>
      </trkpt>
      <trkpt lat="45.50332" lon="3.22465">
        <ele>512.5526</ele>
        <time>2012-10-10T14:58:04Z</time>
      </trkpt>
      <trkpt lat="45.50349" lon="3.2248">
        <ele>517.8531</ele>
        <time>2012-10-10T14:58:13Z</time>
      </trkpt>
      <trkpt lat="45.50366" lon="3.22492">
        <ele>517.9412</ele>
        <time>2012-10-10T14:58:18Z</time>
      </trkpt>
      <trkpt lat="45.50386" lon="3.22485">
        <ele>518.61414</ele>
        <time>2012-10-10T14:58:25Z</time>
      </trkpt>
      <trkpt lat="45.50392" lon="3.22459">
        <ele>519.0669</ele>
        <time>2012-10-10T14:58:31Z</time>
      </trkpt>
      <trkpt lat="45.50396" lon="3.22431">
        <ele>519.31995</ele>
        <time>2012-10-10T14:58:36Z</time>
      </trkpt>
      <trkpt lat="45.50399" lon="3.22404">
        <ele>519.8941</ele>
        <time>2012-10-10T14:58:41Z</time>
      </trkpt>
      <trkpt lat="45.50403" lon="3.22379">
        <ele>521.652</ele>
        <time>2012-10-10T14:58:46Z</time>
      </trkpt>
      <trkpt lat="45.50405" lon="3.22347">
        <ele>523.6652</ele>
        <time>2012-10-10T14:58:52Z</time>
      </trkpt>
      <trkpt lat="45.50407" lon="3.22319">
        <ele>525.9548</ele>
        <time>2012-10-10T14:58:58Z</time>
      </trkpt>
      <trkpt lat="45.50413" lon="3.22291">
        <ele>529.28766</ele>
        <time>2012-10-10T14:59:05Z</time>
      </trkpt>
      <trkpt lat="45.50417" lon="3.22265">
        <ele>534.6689</ele>
        <time>2012-10-10T14:59:13Z</time>
      </trkpt>
      <trkpt lat="45.5042" lon="3.22235">
        <ele>538.1424</ele>
        <time>2012-10-10T14:59:21Z</time>
      </trkpt>
      <trkpt lat="45.50424" lon="3.22209">
        <ele>539.5894</ele>
        <time>2012-10-10T14:59:28Z</time>
      </trkpt>
      <trkpt lat="45.50427" lon="3.22183">
        <ele>543.24854</ele>
        <time>2012-10-10T14:59:36Z</time>
      </trkpt>
      <trkpt lat="45.50431" lon="3.22155">
        <ele>544.8036</ele>
        <time>2012-10-10T14:59:45Z</time>
      </trkpt>
      <trkpt lat="45.50441" lon="3.22131">
        <ele>547.21906</ele>
        <time>2012-10-10T14:59:52Z</time>
      </trkpt>
      <trkpt lat="45.5046" lon="3.22127">
        <ele>550.5204</ele>
        <time>2012-10-10T15:00:01Z</time>
      </trkpt>
      <trkpt lat="45.50479" lon="3.22137">
        <ele>551.48083</ele>
        <time>2012-10-10T15:00:08Z</time>
      </trkpt>
      <trkpt lat="45.50498" lon="3.22143">
        <ele>552.29956</ele>
        <time>2012-10-10T15:00:13Z</time>
      </trkpt>
      <trkpt lat="45.50517" lon="3.22144">
        <ele>554.03705</ele>
        <time>2012-10-10T15:00:19Z</time>
      </trkpt>
    </trkseg>
  </trk>
</gpx>